<?xml version="1.0" encoding="UTF-8" standalone="no" ?>
<gpx xmlns="http://www.topografix.com/GPX/1/1" xmlns:xsi="http://www.w3.org/2001/XMLSchema-instance" xsi:schemaLocation="http://www.topografix.com/GPX/1/1 http://www.topografix.com/GPX/1/1/gpx.xsd" version="1.1" creator="VisuGPX - https://www.visugpx.com">
  <metadata>
    <name>2014-10-26 14:04 Balade Avec Fabien et Céline</name>
    <desc><![CDATA[Balade Avec Fabien et Céline]]></desc>
  </metadata>
  <trk>
    <name><![CDATA[2014-10-26 14:04 Balade Avec Fabien et Céline]]></name>
    <trkseg>
      <trkpt lat="43.62449" lon="3.83872">
        <ele>-25.34</ele>
        <time>2014-10-26T13:04:35Z</time>
      </trkpt>
      <trkpt lat="43.62435" lon="3.83807">
        <ele>88.1</ele>
        <time>2014-10-26T13:08:26Z</time>
      </trkpt>
      <trkpt lat="43.62425" lon="3.83766">
        <ele>127.51</ele>
        <time>2014-10-26T13:12:54Z</time>
      </trkpt>
      <trkpt lat="43.62429" lon="3.83769">
        <ele>119.34</ele>
        <time>2014-10-26T13:14:14Z</time>
      </trkpt>
      <trkpt lat="43.62436" lon="3.83788">
        <ele>81.37</ele>
        <time>2014-10-26T13:16:59Z</time>
      </trkpt>
      <trkpt lat="43.62434" lon="3.83781">
        <ele>84.25</ele>
        <time>2014-10-26T13:18:06Z</time>
      </trkpt>
      <trkpt lat="43.62423" lon="3.83777">
        <ele>109.25</ele>
        <time>2014-10-26T13:18:50Z</time>
      </trkpt>
      <trkpt lat="43.62413" lon="3.83747">
        <ele>149.14</ele>
        <time>2014-10-26T13:19:05Z</time>
      </trkpt>
      <trkpt lat="43.62413" lon="3.83714">
        <ele>172.69</ele>
        <time>2014-10-26T13:19:28Z</time>
      </trkpt>
      <trkpt lat="43.62425" lon="3.83753">
        <ele>123.19</ele>
        <time>2014-10-26T13:20:10Z</time>
      </trkpt>
      <trkpt lat="43.62427" lon="3.83761">
        <ele>113.57</ele>
        <time>2014-10-26T13:20:41Z</time>
      </trkpt>
      <trkpt lat="43.62429" lon="3.83773">
        <ele>102.52</ele>
        <time>2014-10-26T13:21:47Z</time>
      </trkpt>
      <trkpt lat="43.62427" lon="3.83778">
        <ele>98.19</ele>
        <time>2014-10-26T13:23:10Z</time>
      </trkpt>
      <trkpt lat="43.62429" lon="3.83779">
        <ele>97.23</ele>
        <time>2014-10-26T13:23:27Z</time>
      </trkpt>
      <trkpt lat="43.62442" lon="3.83787">
        <ele>77.52</ele>
        <time>2014-10-26T13:23:38Z</time>
      </trkpt>
      <trkpt lat="43.62444" lon="3.83787">
        <ele>74.16</ele>
        <time>2014-10-26T13:23:44Z</time>
      </trkpt>
      <trkpt lat="43.62453" lon="3.83788">
        <ele>73.2</ele>
        <time>2014-10-26T13:23:47Z</time>
      </trkpt>
      <trkpt lat="43.62458" lon="3.83794">
        <ele>73.2</ele>
        <time>2014-10-26T13:23:48Z</time>
      </trkpt>
      <trkpt lat="43.62464" lon="3.838">
        <ele>73.2</ele>
        <time>2014-10-26T13:23:49Z</time>
      </trkpt>
      <trkpt lat="43.62471" lon="3.83806">
        <ele>72.24</ele>
        <time>2014-10-26T13:23:50Z</time>
      </trkpt>
      <trkpt lat="43.62511" lon="3.83837">
        <ele>70.31</ele>
        <time>2014-10-26T13:23:55Z</time>
      </trkpt>
      <trkpt lat="43.62517" lon="3.83845">
        <ele>69.83</ele>
        <time>2014-10-26T13:23:56Z</time>
      </trkpt>
      <trkpt lat="43.62521" lon="3.83854">
        <ele>69.35</ele>
        <time>2014-10-26T13:23:57Z</time>
      </trkpt>
      <trkpt lat="43.62524" lon="3.83864">
        <ele>68.87</ele>
        <time>2014-10-26T13:23:58Z</time>
      </trkpt>
      <trkpt lat="43.62526" lon="3.83873">
        <ele>68.39</ele>
        <time>2014-10-26T13:23:59Z</time>
      </trkpt>
      <trkpt lat="43.62527" lon="3.83882">
        <ele>68.39</ele>
        <time>2014-10-26T13:24:00Z</time>
      </trkpt>
      <trkpt lat="43.62526" lon="3.83891">
        <ele>67.91</ele>
        <time>2014-10-26T13:24:01Z</time>
      </trkpt>
      <trkpt lat="43.62526" lon="3.83899">
        <ele>67.43</ele>
        <time>2014-10-26T13:24:02Z</time>
      </trkpt>
      <trkpt lat="43.62528" lon="3.83905">
        <ele>67.43</ele>
        <time>2014-10-26T13:24:03Z</time>
      </trkpt>
      <trkpt lat="43.62532" lon="3.83908">
        <ele>66.95</ele>
        <time>2014-10-26T13:24:04Z</time>
      </trkpt>
      <trkpt lat="43.62536" lon="3.83906">
        <ele>65.99</ele>
        <time>2014-10-26T13:24:05Z</time>
      </trkpt>
      <trkpt lat="43.6254" lon="3.83902">
        <ele>65.51</ele>
        <time>2014-10-26T13:24:06Z</time>
      </trkpt>
      <trkpt lat="43.62546" lon="3.83898">
        <ele>65.51</ele>
        <time>2014-10-26T13:24:07Z</time>
      </trkpt>
      <trkpt lat="43.62553" lon="3.83895">
        <ele>65.03</ele>
        <time>2014-10-26T13:24:08Z</time>
      </trkpt>
      <trkpt lat="43.62561" lon="3.83893">
        <ele>65.03</ele>
        <time>2014-10-26T13:24:09Z</time>
      </trkpt>
      <trkpt lat="43.62585" lon="3.83887">
        <ele>62.62</ele>
        <time>2014-10-26T13:24:12Z</time>
      </trkpt>
      <trkpt lat="43.62594" lon="3.83888">
        <ele>62.14</ele>
        <time>2014-10-26T13:24:13Z</time>
      </trkpt>
      <trkpt lat="43.62603" lon="3.83892">
        <ele>61.66</ele>
        <time>2014-10-26T13:24:14Z</time>
      </trkpt>
      <trkpt lat="43.62613" lon="3.83894">
        <ele>61.18</ele>
        <time>2014-10-26T13:24:15Z</time>
      </trkpt>
      <trkpt lat="43.62623" lon="3.83893">
        <ele>60.7</ele>
        <time>2014-10-26T13:24:16Z</time>
      </trkpt>
      <trkpt lat="43.62632" lon="3.83889">
        <ele>60.22</ele>
        <time>2014-10-26T13:24:17Z</time>
      </trkpt>
      <trkpt lat="43.62642" lon="3.83885">
        <ele>60.22</ele>
        <time>2014-10-26T13:24:18Z</time>
      </trkpt>
      <trkpt lat="43.62652" lon="3.83885">
        <ele>59.74</ele>
        <time>2014-10-26T13:24:19Z</time>
      </trkpt>
      <trkpt lat="43.62662" lon="3.83892">
        <ele>59.26</ele>
        <time>2014-10-26T13:24:20Z</time>
      </trkpt>
      <trkpt lat="43.6267" lon="3.83901">
        <ele>59.26</ele>
        <time>2014-10-26T13:24:21Z</time>
      </trkpt>
      <trkpt lat="43.6268" lon="3.83915">
        <ele>58.78</ele>
        <time>2014-10-26T13:24:22Z</time>
      </trkpt>
      <trkpt lat="43.6269" lon="3.8393">
        <ele>58.3</ele>
        <time>2014-10-26T13:24:23Z</time>
      </trkpt>
      <trkpt lat="43.62812" lon="3.84076">
        <ele>53.97</ele>
        <time>2014-10-26T13:24:33Z</time>
      </trkpt>
      <trkpt lat="43.62947" lon="3.84172">
        <ele>51.09</ele>
        <time>2014-10-26T13:24:41Z</time>
      </trkpt>
      <trkpt lat="43.63044" lon="3.84209">
        <ele>50.61</ele>
        <time>2014-10-26T13:24:48Z</time>
      </trkpt>
      <trkpt lat="43.63062" lon="3.84217">
        <ele>50.61</ele>
        <time>2014-10-26T13:24:50Z</time>
      </trkpt>
      <trkpt lat="43.63069" lon="3.84223">
        <ele>50.61</ele>
        <time>2014-10-26T13:24:51Z</time>
      </trkpt>
      <trkpt lat="43.63075" lon="3.84231">
        <ele>50.61</ele>
        <time>2014-10-26T13:24:52Z</time>
      </trkpt>
      <trkpt lat="43.63079" lon="3.84242">
        <ele>50.61</ele>
        <time>2014-10-26T13:24:53Z</time>
      </trkpt>
      <trkpt lat="43.63083" lon="3.84254">
        <ele>50.13</ele>
        <time>2014-10-26T13:24:54Z</time>
      </trkpt>
      <trkpt lat="43.63087" lon="3.84265">
        <ele>50.13</ele>
        <time>2014-10-26T13:24:55Z</time>
      </trkpt>
      <trkpt lat="43.63092" lon="3.84273">
        <ele>50.13</ele>
        <time>2014-10-26T13:24:56Z</time>
      </trkpt>
      <trkpt lat="43.63098" lon="3.84281">
        <ele>49.65</ele>
        <time>2014-10-26T13:24:57Z</time>
      </trkpt>
      <trkpt lat="43.63105" lon="3.84286">
        <ele>49.65</ele>
        <time>2014-10-26T13:24:58Z</time>
      </trkpt>
      <trkpt lat="43.63114" lon="3.8429">
        <ele>49.16</ele>
        <time>2014-10-26T13:24:59Z</time>
      </trkpt>
      <trkpt lat="43.63123" lon="3.84292">
        <ele>49.16</ele>
        <time>2014-10-26T13:25:00Z</time>
      </trkpt>
      <trkpt lat="43.63133" lon="3.84291">
        <ele>48.68</ele>
        <time>2014-10-26T13:25:01Z</time>
      </trkpt>
      <trkpt lat="43.63143" lon="3.84288">
        <ele>48.2</ele>
        <time>2014-10-26T13:25:02Z</time>
      </trkpt>
      <trkpt lat="43.63152" lon="3.84283">
        <ele>47.72</ele>
        <time>2014-10-26T13:25:03Z</time>
      </trkpt>
      <trkpt lat="43.6316" lon="3.84279">
        <ele>47.72</ele>
        <time>2014-10-26T13:25:04Z</time>
      </trkpt>
      <trkpt lat="43.63168" lon="3.84275">
        <ele>47.72</ele>
        <time>2014-10-26T13:25:05Z</time>
      </trkpt>
      <trkpt lat="43.63175" lon="3.84274">
        <ele>47.24</ele>
        <time>2014-10-26T13:25:06Z</time>
      </trkpt>
      <trkpt lat="43.63182" lon="3.84274">
        <ele>47.24</ele>
        <time>2014-10-26T13:25:07Z</time>
      </trkpt>
      <trkpt lat="43.63188" lon="3.84274">
        <ele>47.24</ele>
        <time>2014-10-26T13:25:08Z</time>
      </trkpt>
      <trkpt lat="43.63194" lon="3.84275">
        <ele>46.76</ele>
        <time>2014-10-26T13:25:09Z</time>
      </trkpt>
      <trkpt lat="43.63207" lon="3.84277">
        <ele>47.24</ele>
        <time>2014-10-26T13:25:11Z</time>
      </trkpt>
      <trkpt lat="43.63306" lon="3.84312">
        <ele>49.16</ele>
        <time>2014-10-26T13:25:21Z</time>
      </trkpt>
      <trkpt lat="43.63443" lon="3.84354">
        <ele>50.13</ele>
        <time>2014-10-26T13:25:32Z</time>
      </trkpt>
      <trkpt lat="43.63547" lon="3.84417">
        <ele>47.72</ele>
        <time>2014-10-26T13:25:41Z</time>
      </trkpt>
      <trkpt lat="43.63599" lon="3.84445">
        <ele>46.28</ele>
        <time>2014-10-26T13:25:50Z</time>
      </trkpt>
      <trkpt lat="43.63674" lon="3.84491">
        <ele>49.65</ele>
        <time>2014-10-26T13:25:59Z</time>
      </trkpt>
      <trkpt lat="43.63782" lon="3.84591">
        <ele>51.09</ele>
        <time>2014-10-26T13:26:08Z</time>
      </trkpt>
      <trkpt lat="43.63902" lon="3.84667">
        <ele>51.09</ele>
        <time>2014-10-26T13:26:15Z</time>
      </trkpt>
      <trkpt lat="43.64232" lon="3.84774">
        <ele>62.14</ele>
        <time>2014-10-26T13:26:31Z</time>
      </trkpt>
      <trkpt lat="43.64251" lon="3.84788">
        <ele>64.07</ele>
        <time>2014-10-26T13:26:32Z</time>
      </trkpt>
      <trkpt lat="43.64269" lon="3.84804">
        <ele>65.03</ele>
        <time>2014-10-26T13:26:33Z</time>
      </trkpt>
      <trkpt lat="43.64287" lon="3.84823">
        <ele>65.99</ele>
        <time>2014-10-26T13:26:34Z</time>
      </trkpt>
      <trkpt lat="43.64302" lon="3.84843">
        <ele>66.95</ele>
        <time>2014-10-26T13:26:35Z</time>
      </trkpt>
      <trkpt lat="43.64317" lon="3.84866">
        <ele>68.39</ele>
        <time>2014-10-26T13:26:36Z</time>
      </trkpt>
      <trkpt lat="43.6433" lon="3.8489">
        <ele>69.35</ele>
        <time>2014-10-26T13:26:37Z</time>
      </trkpt>
      <trkpt lat="43.64342" lon="3.84915">
        <ele>70.31</ele>
        <time>2014-10-26T13:26:38Z</time>
      </trkpt>
      <trkpt lat="43.64352" lon="3.84941">
        <ele>71.27</ele>
        <time>2014-10-26T13:26:39Z</time>
      </trkpt>
      <trkpt lat="43.64362" lon="3.84968">
        <ele>71.76</ele>
        <time>2014-10-26T13:26:40Z</time>
      </trkpt>
      <trkpt lat="43.64444" lon="3.85134">
        <ele>68.39</ele>
        <time>2014-10-26T13:26:47Z</time>
      </trkpt>
      <trkpt lat="43.64489" lon="3.85219">
        <ele>67.91</ele>
        <time>2014-10-26T13:26:52Z</time>
      </trkpt>
      <trkpt lat="43.64493" lon="3.85231">
        <ele>67.91</ele>
        <time>2014-10-26T13:26:53Z</time>
      </trkpt>
      <trkpt lat="43.64494" lon="3.85243">
        <ele>67.91</ele>
        <time>2014-10-26T13:26:54Z</time>
      </trkpt>
      <trkpt lat="43.64495" lon="3.85256">
        <ele>67.91</ele>
        <time>2014-10-26T13:26:55Z</time>
      </trkpt>
      <trkpt lat="43.64496" lon="3.85269">
        <ele>67.91</ele>
        <time>2014-10-26T13:26:56Z</time>
      </trkpt>
      <trkpt lat="43.645" lon="3.8528">
        <ele>68.39</ele>
        <time>2014-10-26T13:26:57Z</time>
      </trkpt>
      <trkpt lat="43.64506" lon="3.85285">
        <ele>68.39</ele>
        <time>2014-10-26T13:26:58Z</time>
      </trkpt>
      <trkpt lat="43.64514" lon="3.85288">
        <ele>67.91</ele>
        <time>2014-10-26T13:26:59Z</time>
      </trkpt>
      <trkpt lat="43.64523" lon="3.85291">
        <ele>67.91</ele>
        <time>2014-10-26T13:27:00Z</time>
      </trkpt>
      <trkpt lat="43.64531" lon="3.85298">
        <ele>67.43</ele>
        <time>2014-10-26T13:27:01Z</time>
      </trkpt>
      <trkpt lat="43.6454" lon="3.85312">
        <ele>66.95</ele>
        <time>2014-10-26T13:27:02Z</time>
      </trkpt>
      <trkpt lat="43.64563" lon="3.85346">
        <ele>66.47</ele>
        <time>2014-10-26T13:27:04Z</time>
      </trkpt>
      <trkpt lat="43.64578" lon="3.85362">
        <ele>65.51</ele>
        <time>2014-10-26T13:27:05Z</time>
      </trkpt>
      <trkpt lat="43.64593" lon="3.85377">
        <ele>64.55</ele>
        <time>2014-10-26T13:27:06Z</time>
      </trkpt>
      <trkpt lat="43.6461" lon="3.8539">
        <ele>63.58</ele>
        <time>2014-10-26T13:27:07Z</time>
      </trkpt>
      <trkpt lat="43.64628" lon="3.85402">
        <ele>63.1</ele>
        <time>2014-10-26T13:27:08Z</time>
      </trkpt>
      <trkpt lat="43.64646" lon="3.85412">
        <ele>62.14</ele>
        <time>2014-10-26T13:27:09Z</time>
      </trkpt>
      <trkpt lat="43.64827" lon="3.85509">
        <ele>54.93</ele>
        <time>2014-10-26T13:27:18Z</time>
      </trkpt>
      <trkpt lat="43.64927" lon="3.85631">
        <ele>52.05</ele>
        <time>2014-10-26T13:27:24Z</time>
      </trkpt>
      <trkpt lat="43.64996" lon="3.85824">
        <ele>52.05</ele>
        <time>2014-10-26T13:27:31Z</time>
      </trkpt>
      <trkpt lat="43.65032" lon="3.86037">
        <ele>47.72</ele>
        <time>2014-10-26T13:27:38Z</time>
      </trkpt>
      <trkpt lat="43.65051" lon="3.86286">
        <ele>40.03</ele>
        <time>2014-10-26T13:27:48Z</time>
      </trkpt>
      <trkpt lat="43.6505" lon="3.86308">
        <ele>39.55</ele>
        <time>2014-10-26T13:27:49Z</time>
      </trkpt>
      <trkpt lat="43.65051" lon="3.86331">
        <ele>39.07</ele>
        <time>2014-10-26T13:27:50Z</time>
      </trkpt>
      <trkpt lat="43.65065" lon="3.86514">
        <ele>39.55</ele>
        <time>2014-10-26T13:27:59Z</time>
      </trkpt>
      <trkpt lat="43.65059" lon="3.86583">
        <ele>39.55</ele>
        <time>2014-10-26T13:28:05Z</time>
      </trkpt>
      <trkpt lat="43.65055" lon="3.866">
        <ele>40.03</ele>
        <time>2014-10-26T13:28:12Z</time>
      </trkpt>
      <trkpt lat="43.65051" lon="3.86619">
        <ele>40.51</ele>
        <time>2014-10-26T13:28:14Z</time>
      </trkpt>
      <trkpt lat="43.65052" lon="3.86629">
        <ele>40.51</ele>
        <time>2014-10-26T13:28:15Z</time>
      </trkpt>
      <trkpt lat="43.65055" lon="3.86637">
        <ele>40.99</ele>
        <time>2014-10-26T13:28:16Z</time>
      </trkpt>
      <trkpt lat="43.65061" lon="3.86643">
        <ele>40.99</ele>
        <time>2014-10-26T13:28:17Z</time>
      </trkpt>
      <trkpt lat="43.65067" lon="3.86649">
        <ele>40.99</ele>
        <time>2014-10-26T13:28:18Z</time>
      </trkpt>
      <trkpt lat="43.65074" lon="3.86656">
        <ele>40.99</ele>
        <time>2014-10-26T13:28:19Z</time>
      </trkpt>
      <trkpt lat="43.65078" lon="3.86666">
        <ele>40.99</ele>
        <time>2014-10-26T13:28:20Z</time>
      </trkpt>
      <trkpt lat="43.65082" lon="3.86681">
        <ele>41.47</ele>
        <time>2014-10-26T13:28:21Z</time>
      </trkpt>
      <trkpt lat="43.65085" lon="3.86699">
        <ele>41.47</ele>
        <time>2014-10-26T13:28:22Z</time>
      </trkpt>
      <trkpt lat="43.65088" lon="3.8672">
        <ele>41.95</ele>
        <time>2014-10-26T13:28:23Z</time>
      </trkpt>
      <trkpt lat="43.65124" lon="3.8691">
        <ele>40.99</ele>
        <time>2014-10-26T13:28:31Z</time>
      </trkpt>
      <trkpt lat="43.65202" lon="3.87103">
        <ele>39.55</ele>
        <time>2014-10-26T13:28:38Z</time>
      </trkpt>
      <trkpt lat="43.65245" lon="3.87178">
        <ele>39.55</ele>
        <time>2014-10-26T13:28:41Z</time>
      </trkpt>
      <trkpt lat="43.65261" lon="3.87198">
        <ele>40.03</ele>
        <time>2014-10-26T13:28:42Z</time>
      </trkpt>
      <trkpt lat="43.65277" lon="3.87215">
        <ele>40.51</ele>
        <time>2014-10-26T13:28:43Z</time>
      </trkpt>
      <trkpt lat="43.65292" lon="3.87229">
        <ele>40.51</ele>
        <time>2014-10-26T13:28:44Z</time>
      </trkpt>
      <trkpt lat="43.65306" lon="3.87241">
        <ele>40.99</ele>
        <time>2014-10-26T13:28:45Z</time>
      </trkpt>
      <trkpt lat="43.65336" lon="3.87268">
        <ele>42.44</ele>
        <time>2014-10-26T13:28:49Z</time>
      </trkpt>
      <trkpt lat="43.6534" lon="3.87276">
        <ele>42.44</ele>
        <time>2014-10-26T13:28:50Z</time>
      </trkpt>
      <trkpt lat="43.65342" lon="3.87288">
        <ele>42.92</ele>
        <time>2014-10-26T13:28:51Z</time>
      </trkpt>
      <trkpt lat="43.65343" lon="3.87303">
        <ele>42.92</ele>
        <time>2014-10-26T13:28:52Z</time>
      </trkpt>
      <trkpt lat="43.65348" lon="3.8732">
        <ele>42.92</ele>
        <time>2014-10-26T13:28:53Z</time>
      </trkpt>
      <trkpt lat="43.65356" lon="3.87337">
        <ele>43.4</ele>
        <time>2014-10-26T13:28:54Z</time>
      </trkpt>
      <trkpt lat="43.65368" lon="3.87354">
        <ele>43.88</ele>
        <time>2014-10-26T13:28:55Z</time>
      </trkpt>
      <trkpt lat="43.6538" lon="3.8737">
        <ele>44.84</ele>
        <time>2014-10-26T13:28:56Z</time>
      </trkpt>
      <trkpt lat="43.65446" lon="3.87431">
        <ele>46.76</ele>
        <time>2014-10-26T13:29:01Z</time>
      </trkpt>
      <trkpt lat="43.65468" lon="3.87446">
        <ele>47.72</ele>
        <time>2014-10-26T13:29:03Z</time>
      </trkpt>
      <trkpt lat="43.65475" lon="3.8746">
        <ele>47.72</ele>
        <time>2014-10-26T13:29:04Z</time>
      </trkpt>
      <trkpt lat="43.6548" lon="3.8748">
        <ele>48.2</ele>
        <time>2014-10-26T13:29:05Z</time>
      </trkpt>
      <trkpt lat="43.65484" lon="3.87503">
        <ele>48.2</ele>
        <time>2014-10-26T13:29:06Z</time>
      </trkpt>
      <trkpt lat="43.65486" lon="3.87528">
        <ele>48.68</ele>
        <time>2014-10-26T13:29:07Z</time>
      </trkpt>
      <trkpt lat="43.65487" lon="3.87555">
        <ele>48.68</ele>
        <time>2014-10-26T13:29:08Z</time>
      </trkpt>
      <trkpt lat="43.65488" lon="3.87582">
        <ele>48.2</ele>
        <time>2014-10-26T13:29:09Z</time>
      </trkpt>
      <trkpt lat="43.65473" lon="3.8789">
        <ele>47.72</ele>
        <time>2014-10-26T13:29:20Z</time>
      </trkpt>
      <trkpt lat="43.65467" lon="3.87915">
        <ele>47.72</ele>
        <time>2014-10-26T13:29:21Z</time>
      </trkpt>
      <trkpt lat="43.65459" lon="3.8794">
        <ele>47.72</ele>
        <time>2014-10-26T13:29:22Z</time>
      </trkpt>
      <trkpt lat="43.65449" lon="3.87962">
        <ele>47.24</ele>
        <time>2014-10-26T13:29:23Z</time>
      </trkpt>
      <trkpt lat="43.65438" lon="3.87984">
        <ele>47.24</ele>
        <time>2014-10-26T13:29:24Z</time>
      </trkpt>
      <trkpt lat="43.65426" lon="3.88003">
        <ele>47.24</ele>
        <time>2014-10-26T13:29:25Z</time>
      </trkpt>
      <trkpt lat="43.65413" lon="3.88021">
        <ele>47.24</ele>
        <time>2014-10-26T13:29:26Z</time>
      </trkpt>
      <trkpt lat="43.6525" lon="3.88234">
        <ele>43.88</ele>
        <time>2014-10-26T13:29:40Z</time>
      </trkpt>
      <trkpt lat="43.6517" lon="3.8831">
        <ele>48.2</ele>
        <time>2014-10-26T13:29:47Z</time>
      </trkpt>
      <trkpt lat="43.6505" lon="3.88362">
        <ele>45.8</ele>
        <time>2014-10-26T13:29:54Z</time>
      </trkpt>
      <trkpt lat="43.64901" lon="3.88419">
        <ele>40.51</ele>
        <time>2014-10-26T13:30:00Z</time>
      </trkpt>
      <trkpt lat="43.64849" lon="3.88448">
        <ele>38.59</ele>
        <time>2014-10-26T13:30:02Z</time>
      </trkpt>
      <trkpt lat="43.64824" lon="3.88471">
        <ele>37.63</ele>
        <time>2014-10-26T13:30:03Z</time>
      </trkpt>
      <trkpt lat="43.64802" lon="3.88499">
        <ele>36.67</ele>
        <time>2014-10-26T13:30:04Z</time>
      </trkpt>
      <trkpt lat="43.64782" lon="3.8853">
        <ele>35.71</ele>
        <time>2014-10-26T13:30:05Z</time>
      </trkpt>
      <trkpt lat="43.64763" lon="3.8856">
        <ele>34.74</ele>
        <time>2014-10-26T13:30:06Z</time>
      </trkpt>
      <trkpt lat="43.64746" lon="3.88592">
        <ele>34.26</ele>
        <time>2014-10-26T13:30:07Z</time>
      </trkpt>
      <trkpt lat="43.64737" lon="3.88637">
        <ele>34.74</ele>
        <time>2014-10-26T13:30:08Z</time>
      </trkpt>
      <trkpt lat="43.64727" lon="3.88676">
        <ele>34.74</ele>
        <time>2014-10-26T13:30:09Z</time>
      </trkpt>
      <trkpt lat="43.64717" lon="3.88711">
        <ele>34.74</ele>
        <time>2014-10-26T13:30:10Z</time>
      </trkpt>
      <trkpt lat="43.64643" lon="3.88879">
        <ele>33.78</ele>
        <time>2014-10-26T13:30:16Z</time>
      </trkpt>
      <trkpt lat="43.64517" lon="3.8904">
        <ele>32.82</ele>
        <time>2014-10-26T13:30:24Z</time>
      </trkpt>
      <trkpt lat="43.64375" lon="3.89228">
        <ele>31.38</ele>
        <time>2014-10-26T13:30:33Z</time>
      </trkpt>
      <trkpt lat="43.6432" lon="3.89413">
        <ele>32.82</ele>
        <time>2014-10-26T13:30:40Z</time>
      </trkpt>
      <trkpt lat="43.64321" lon="3.89615">
        <ele>34.74</ele>
        <time>2014-10-26T13:30:47Z</time>
      </trkpt>
      <trkpt lat="43.6438" lon="3.89817">
        <ele>35.23</ele>
        <time>2014-10-26T13:30:54Z</time>
      </trkpt>
      <trkpt lat="43.64452" lon="3.9007">
        <ele>39.55</ele>
        <time>2014-10-26T13:31:03Z</time>
      </trkpt>
      <trkpt lat="43.64502" lon="3.90333">
        <ele>44.36</ele>
        <time>2014-10-26T13:31:12Z</time>
      </trkpt>
      <trkpt lat="43.64613" lon="3.90607">
        <ele>47.24</ele>
        <time>2014-10-26T13:31:23Z</time>
      </trkpt>
      <trkpt lat="43.64707" lon="3.90852">
        <ele>50.13</ele>
        <time>2014-10-26T13:31:31Z</time>
      </trkpt>
      <trkpt lat="43.64753" lon="3.91092">
        <ele>62.62</ele>
        <time>2014-10-26T13:31:38Z</time>
      </trkpt>
      <trkpt lat="43.64822" lon="3.9138">
        <ele>76.08</ele>
        <time>2014-10-26T13:31:48Z</time>
      </trkpt>
      <trkpt lat="43.64896" lon="3.91635">
        <ele>78</ele>
        <time>2014-10-26T13:31:57Z</time>
      </trkpt>
      <trkpt lat="43.64976" lon="3.91913">
        <ele>78.97</ele>
        <time>2014-10-26T13:32:07Z</time>
      </trkpt>
      <trkpt lat="43.65049" lon="3.92037">
        <ele>80.41</ele>
        <time>2014-10-26T13:32:13Z</time>
      </trkpt>
      <trkpt lat="43.65063" lon="3.92051">
        <ele>79.93</ele>
        <time>2014-10-26T13:32:14Z</time>
      </trkpt>
      <trkpt lat="43.65077" lon="3.92062">
        <ele>79.93</ele>
        <time>2014-10-26T13:32:15Z</time>
      </trkpt>
      <trkpt lat="43.65146" lon="3.92104">
        <ele>76.08</ele>
        <time>2014-10-26T13:32:21Z</time>
      </trkpt>
      <trkpt lat="43.65153" lon="3.92111">
        <ele>75.6</ele>
        <time>2014-10-26T13:32:22Z</time>
      </trkpt>
      <trkpt lat="43.65157" lon="3.92122">
        <ele>75.6</ele>
        <time>2014-10-26T13:32:23Z</time>
      </trkpt>
      <trkpt lat="43.65161" lon="3.92134">
        <ele>75.12</ele>
        <time>2014-10-26T13:32:24Z</time>
      </trkpt>
      <trkpt lat="43.65167" lon="3.92145">
        <ele>74.64</ele>
        <time>2014-10-26T13:32:25Z</time>
      </trkpt>
      <trkpt lat="43.65174" lon="3.92156">
        <ele>74.16</ele>
        <time>2014-10-26T13:32:26Z</time>
      </trkpt>
      <trkpt lat="43.65181" lon="3.92169">
        <ele>73.2</ele>
        <time>2014-10-26T13:32:27Z</time>
      </trkpt>
      <trkpt lat="43.65184" lon="3.92185">
        <ele>72.72</ele>
        <time>2014-10-26T13:32:28Z</time>
      </trkpt>
      <trkpt lat="43.65184" lon="3.92206">
        <ele>72.24</ele>
        <time>2014-10-26T13:32:29Z</time>
      </trkpt>
      <trkpt lat="43.65184" lon="3.9223">
        <ele>71.76</ele>
        <time>2014-10-26T13:32:30Z</time>
      </trkpt>
      <trkpt lat="43.65183" lon="3.92257">
        <ele>71.27</ele>
        <time>2014-10-26T13:32:31Z</time>
      </trkpt>
      <trkpt lat="43.65154" lon="3.92524">
        <ele>64.07</ele>
        <time>2014-10-26T13:32:40Z</time>
      </trkpt>
      <trkpt lat="43.6509" lon="3.92657">
        <ele>60.22</ele>
        <time>2014-10-26T13:32:45Z</time>
      </trkpt>
      <trkpt lat="43.64981" lon="3.92758">
        <ele>58.78</ele>
        <time>2014-10-26T13:32:51Z</time>
      </trkpt>
      <trkpt lat="43.649" lon="3.92816">
        <ele>57.82</ele>
        <time>2014-10-26T13:32:57Z</time>
      </trkpt>
      <trkpt lat="43.64876" lon="3.92828">
        <ele>56.86</ele>
        <time>2014-10-26T13:33:02Z</time>
      </trkpt>
      <trkpt lat="43.64869" lon="3.92828">
        <ele>56.86</ele>
        <time>2014-10-26T13:33:04Z</time>
      </trkpt>
      <trkpt lat="43.64863" lon="3.92826">
        <ele>56.86</ele>
        <time>2014-10-26T13:33:05Z</time>
      </trkpt>
      <trkpt lat="43.64855" lon="3.92823">
        <ele>56.86</ele>
        <time>2014-10-26T13:33:06Z</time>
      </trkpt>
      <trkpt lat="43.64846" lon="3.92823">
        <ele>56.86</ele>
        <time>2014-10-26T13:33:07Z</time>
      </trkpt>
      <trkpt lat="43.64838" lon="3.92827">
        <ele>56.86</ele>
        <time>2014-10-26T13:33:08Z</time>
      </trkpt>
      <trkpt lat="43.64832" lon="3.92834">
        <ele>56.86</ele>
        <time>2014-10-26T13:33:09Z</time>
      </trkpt>
      <trkpt lat="43.64829" lon="3.92845">
        <ele>56.86</ele>
        <time>2014-10-26T13:33:10Z</time>
      </trkpt>
      <trkpt lat="43.64828" lon="3.92858">
        <ele>56.86</ele>
        <time>2014-10-26T13:33:11Z</time>
      </trkpt>
      <trkpt lat="43.6483" lon="3.92871">
        <ele>56.86</ele>
        <time>2014-10-26T13:33:12Z</time>
      </trkpt>
      <trkpt lat="43.64837" lon="3.92882">
        <ele>56.86</ele>
        <time>2014-10-26T13:33:13Z</time>
      </trkpt>
      <trkpt lat="43.64845" lon="3.92891">
        <ele>56.86</ele>
        <time>2014-10-26T13:33:14Z</time>
      </trkpt>
      <trkpt lat="43.64852" lon="3.929">
        <ele>56.86</ele>
        <time>2014-10-26T13:33:15Z</time>
      </trkpt>
      <trkpt lat="43.64856" lon="3.9291">
        <ele>56.86</ele>
        <time>2014-10-26T13:33:16Z</time>
      </trkpt>
      <trkpt lat="43.64858" lon="3.92921">
        <ele>56.86</ele>
        <time>2014-10-26T13:33:17Z</time>
      </trkpt>
      <trkpt lat="43.64857" lon="3.92933">
        <ele>56.86</ele>
        <time>2014-10-26T13:33:18Z</time>
      </trkpt>
      <trkpt lat="43.64855" lon="3.92945">
        <ele>56.86</ele>
        <time>2014-10-26T13:33:19Z</time>
      </trkpt>
      <trkpt lat="43.64856" lon="3.93061">
        <ele>59.26</ele>
        <time>2014-10-26T13:33:28Z</time>
      </trkpt>
      <trkpt lat="43.64865" lon="3.93123">
        <ele>61.18</ele>
        <time>2014-10-26T13:33:34Z</time>
      </trkpt>
      <trkpt lat="43.64903" lon="3.93284">
        <ele>63.58</ele>
        <time>2014-10-26T13:33:44Z</time>
      </trkpt>
      <trkpt lat="43.6491" lon="3.93319">
        <ele>64.07</ele>
        <time>2014-10-26T13:33:47Z</time>
      </trkpt>
      <trkpt lat="43.6491" lon="3.93329">
        <ele>64.07</ele>
        <time>2014-10-26T13:33:48Z</time>
      </trkpt>
      <trkpt lat="43.64907" lon="3.93339">
        <ele>64.07</ele>
        <time>2014-10-26T13:33:49Z</time>
      </trkpt>
      <trkpt lat="43.649" lon="3.93343">
        <ele>64.07</ele>
        <time>2014-10-26T13:33:50Z</time>
      </trkpt>
      <trkpt lat="43.64891" lon="3.93349">
        <ele>64.07</ele>
        <time>2014-10-26T13:33:51Z</time>
      </trkpt>
      <trkpt lat="43.64879" lon="3.93351">
        <ele>64.07</ele>
        <time>2014-10-26T13:33:52Z</time>
      </trkpt>
      <trkpt lat="43.64866" lon="3.93355">
        <ele>63.1</ele>
        <time>2014-10-26T13:33:53Z</time>
      </trkpt>
      <trkpt lat="43.64804" lon="3.93371">
        <ele>61.66</ele>
        <time>2014-10-26T13:34:00Z</time>
      </trkpt>
      <trkpt lat="43.64746" lon="3.93388">
        <ele>58.78</ele>
        <time>2014-10-26T13:34:09Z</time>
      </trkpt>
      <trkpt lat="43.64675" lon="3.93411">
        <ele>54.93</ele>
        <time>2014-10-26T13:34:16Z</time>
      </trkpt>
      <trkpt lat="43.64634" lon="3.93425">
        <ele>53.01</ele>
        <time>2014-10-26T13:34:21Z</time>
      </trkpt>
      <trkpt lat="43.64628" lon="3.93425">
        <ele>52.53</ele>
        <time>2014-10-26T13:34:22Z</time>
      </trkpt>
      <trkpt lat="43.64622" lon="3.93427">
        <ele>52.53</ele>
        <time>2014-10-26T13:34:23Z</time>
      </trkpt>
      <trkpt lat="43.64615" lon="3.93432">
        <ele>52.05</ele>
        <time>2014-10-26T13:34:24Z</time>
      </trkpt>
      <trkpt lat="43.64607" lon="3.93437">
        <ele>51.57</ele>
        <time>2014-10-26T13:34:25Z</time>
      </trkpt>
      <trkpt lat="43.64599" lon="3.9344">
        <ele>51.09</ele>
        <time>2014-10-26T13:34:26Z</time>
      </trkpt>
      <trkpt lat="43.6459" lon="3.93442">
        <ele>50.61</ele>
        <time>2014-10-26T13:34:27Z</time>
      </trkpt>
      <trkpt lat="43.64581" lon="3.93446">
        <ele>50.13</ele>
        <time>2014-10-26T13:34:28Z</time>
      </trkpt>
      <trkpt lat="43.64572" lon="3.93451">
        <ele>49.65</ele>
        <time>2014-10-26T13:34:29Z</time>
      </trkpt>
      <trkpt lat="43.64496" lon="3.93496">
        <ele>47.24</ele>
        <time>2014-10-26T13:34:38Z</time>
      </trkpt>
      <trkpt lat="43.6444" lon="3.93529">
        <ele>45.32</ele>
        <time>2014-10-26T13:34:47Z</time>
      </trkpt>
      <trkpt lat="43.64358" lon="3.93578">
        <ele>40.03</ele>
        <time>2014-10-26T13:34:57Z</time>
      </trkpt>
      <trkpt lat="43.64297" lon="3.93613">
        <ele>37.15</ele>
        <time>2014-10-26T13:35:06Z</time>
      </trkpt>
      <trkpt lat="43.6429" lon="3.93615">
        <ele>37.15</ele>
        <time>2014-10-26T13:35:07Z</time>
      </trkpt>
      <trkpt lat="43.64281" lon="3.93618">
        <ele>36.67</ele>
        <time>2014-10-26T13:35:09Z</time>
      </trkpt>
      <trkpt lat="43.64277" lon="3.93622">
        <ele>36.67</ele>
        <time>2014-10-26T13:35:10Z</time>
      </trkpt>
      <trkpt lat="43.64274" lon="3.93629">
        <ele>36.19</ele>
        <time>2014-10-26T13:35:11Z</time>
      </trkpt>
      <trkpt lat="43.64274" lon="3.93637">
        <ele>36.19</ele>
        <time>2014-10-26T13:35:12Z</time>
      </trkpt>
      <trkpt lat="43.64275" lon="3.93647">
        <ele>36.19</ele>
        <time>2014-10-26T13:35:13Z</time>
      </trkpt>
      <trkpt lat="43.64278" lon="3.93658">
        <ele>36.19</ele>
        <time>2014-10-26T13:35:14Z</time>
      </trkpt>
      <trkpt lat="43.64281" lon="3.9367">
        <ele>35.71</ele>
        <time>2014-10-26T13:35:15Z</time>
      </trkpt>
      <trkpt lat="43.64302" lon="3.93744">
        <ele>35.23</ele>
        <time>2014-10-26T13:35:22Z</time>
      </trkpt>
      <trkpt lat="43.64303" lon="3.93749">
        <ele>35.23</ele>
        <time>2014-10-26T13:35:23Z</time>
      </trkpt>
      <trkpt lat="43.64303" lon="3.93752">
        <ele>35.23</ele>
        <time>2014-10-26T13:35:24Z</time>
      </trkpt>
      <trkpt lat="43.64306" lon="3.93776">
        <ele>34.74</ele>
        <time>2014-10-26T13:35:31Z</time>
      </trkpt>
      <trkpt lat="43.64309" lon="3.93788">
        <ele>34.74</ele>
        <time>2014-10-26T13:35:32Z</time>
      </trkpt>
      <trkpt lat="43.64334" lon="3.93862">
        <ele>35.71</ele>
        <time>2014-10-26T13:35:39Z</time>
      </trkpt>
      <trkpt lat="43.64338" lon="3.93869">
        <ele>35.71</ele>
        <time>2014-10-26T13:35:40Z</time>
      </trkpt>
      <trkpt lat="43.64382" lon="3.93938">
        <ele>39.07</ele>
        <time>2014-10-26T13:35:46Z</time>
      </trkpt>
      <trkpt lat="43.64466" lon="3.94049">
        <ele>36.19</ele>
        <time>2014-10-26T13:35:57Z</time>
      </trkpt>
      <trkpt lat="43.6447" lon="3.94055">
        <ele>36.19</ele>
        <time>2014-10-26T13:35:58Z</time>
      </trkpt>
      <trkpt lat="43.64472" lon="3.9406">
        <ele>36.19</ele>
        <time>2014-10-26T13:35:59Z</time>
      </trkpt>
      <trkpt lat="43.64473" lon="3.94065">
        <ele>36.19</ele>
        <time>2014-10-26T13:36:09Z</time>
      </trkpt>
      <trkpt lat="43.64487" lon="3.94095">
        <ele>36.19</ele>
        <time>2014-10-26T13:36:20Z</time>
      </trkpt>
      <trkpt lat="43.64513" lon="3.94155">
        <ele>36.19</ele>
        <time>2014-10-26T13:36:28Z</time>
      </trkpt>
      <trkpt lat="43.64522" lon="3.94178">
        <ele>36.67</ele>
        <time>2014-10-26T13:36:37Z</time>
      </trkpt>
      <trkpt lat="43.64524" lon="3.94179">
        <ele>36.67</ele>
        <time>2014-10-26T13:36:39Z</time>
      </trkpt>
      <trkpt lat="43.64526" lon="3.94181">
        <ele>36.67</ele>
        <time>2014-10-26T13:36:40Z</time>
      </trkpt>
      <trkpt lat="43.64529" lon="3.94181">
        <ele>36.67</ele>
        <time>2014-10-26T13:36:41Z</time>
      </trkpt>
      <trkpt lat="43.64533" lon="3.9418">
        <ele>36.67</ele>
        <time>2014-10-26T13:36:42Z</time>
      </trkpt>
      <trkpt lat="43.64537" lon="3.94178">
        <ele>36.67</ele>
        <time>2014-10-26T13:36:43Z</time>
      </trkpt>
      <trkpt lat="43.64543" lon="3.94175">
        <ele>36.19</ele>
        <time>2014-10-26T13:36:44Z</time>
      </trkpt>
      <trkpt lat="43.6457" lon="3.94161">
        <ele>37.15</ele>
        <time>2014-10-26T13:36:49Z</time>
      </trkpt>
      <trkpt lat="43.64573" lon="3.94161">
        <ele>37.63</ele>
        <time>2014-10-26T13:36:50Z</time>
      </trkpt>
      <trkpt lat="43.64576" lon="3.94162">
        <ele>37.63</ele>
        <time>2014-10-26T13:36:51Z</time>
      </trkpt>
      <trkpt lat="43.64577" lon="3.94163">
        <ele>37.63</ele>
        <time>2014-10-26T13:36:52Z</time>
      </trkpt>
      <trkpt lat="43.64583" lon="3.94161">
        <ele>36.19</ele>
        <time>2014-10-26T13:37:05Z</time>
      </trkpt>
      <trkpt lat="43.64582" lon="3.94159">
        <ele>36.67</ele>
        <time>2014-10-26T13:37:18Z</time>
      </trkpt>
      <trkpt lat="43.64581" lon="3.94159">
        <ele>38.59</ele>
        <time>2014-10-26T13:38:50Z</time>
      </trkpt>
      <trkpt lat="43.64576" lon="3.94156">
        <ele>48.68</ele>
        <time>2014-10-26T13:44:59Z</time>
      </trkpt>
      <trkpt lat="43.64579" lon="3.94158">
        <ele>44.36</ele>
        <time>2014-10-26T13:45:42Z</time>
      </trkpt>
      <trkpt lat="43.64577" lon="3.94156">
        <ele>44.36</ele>
        <time>2014-10-26T13:46:53Z</time>
      </trkpt>
      <trkpt lat="43.64575" lon="3.94155">
        <ele>44.36</ele>
        <time>2014-10-26T13:46:54Z</time>
      </trkpt>
      <trkpt lat="43.64573" lon="3.94154">
        <ele>43.4</ele>
        <time>2014-10-26T13:46:55Z</time>
      </trkpt>
      <trkpt lat="43.64569" lon="3.94155">
        <ele>42.92</ele>
        <time>2014-10-26T13:46:56Z</time>
      </trkpt>
      <trkpt lat="43.64564" lon="3.94156">
        <ele>42.44</ele>
        <time>2014-10-26T13:46:57Z</time>
      </trkpt>
      <trkpt lat="43.64558" lon="3.94159">
        <ele>41.95</ele>
        <time>2014-10-26T13:46:58Z</time>
      </trkpt>
      <trkpt lat="43.64553" lon="3.94162">
        <ele>41.47</ele>
        <time>2014-10-26T13:46:59Z</time>
      </trkpt>
      <trkpt lat="43.64531" lon="3.94176">
        <ele>37.63</ele>
        <time>2014-10-26T13:47:07Z</time>
      </trkpt>
      <trkpt lat="43.64527" lon="3.94181">
        <ele>36.19</ele>
        <time>2014-10-26T13:47:24Z</time>
      </trkpt>
      <trkpt lat="43.64526" lon="3.94184">
        <ele>36.19</ele>
        <time>2014-10-26T13:47:25Z</time>
      </trkpt>
      <trkpt lat="43.64527" lon="3.94191">
        <ele>36.19</ele>
        <time>2014-10-26T13:47:26Z</time>
      </trkpt>
      <trkpt lat="43.6453" lon="3.94202">
        <ele>35.71</ele>
        <time>2014-10-26T13:47:27Z</time>
      </trkpt>
      <trkpt lat="43.64534" lon="3.94214">
        <ele>35.71</ele>
        <time>2014-10-26T13:47:28Z</time>
      </trkpt>
      <trkpt lat="43.64539" lon="3.94227">
        <ele>36.67</ele>
        <time>2014-10-26T13:47:29Z</time>
      </trkpt>
      <trkpt lat="43.64546" lon="3.94239">
        <ele>38.11</ele>
        <time>2014-10-26T13:47:30Z</time>
      </trkpt>
      <trkpt lat="43.64577" lon="3.94293">
        <ele>41.47</ele>
        <time>2014-10-26T13:47:36Z</time>
      </trkpt>
      <trkpt lat="43.64582" lon="3.94298">
        <ele>41.47</ele>
        <time>2014-10-26T13:47:37Z</time>
      </trkpt>
      <trkpt lat="43.64599" lon="3.94311">
        <ele>41.95</ele>
        <time>2014-10-26T13:47:40Z</time>
      </trkpt>
      <trkpt lat="43.64678" lon="3.94344">
        <ele>39.07</ele>
        <time>2014-10-26T13:47:50Z</time>
      </trkpt>
      <trkpt lat="43.64741" lon="3.94359">
        <ele>36.67</ele>
        <time>2014-10-26T13:47:59Z</time>
      </trkpt>
      <trkpt lat="43.64803" lon="3.94368">
        <ele>36.67</ele>
        <time>2014-10-26T13:48:07Z</time>
      </trkpt>
      <trkpt lat="43.64881" lon="3.9438">
        <ele>41.95</ele>
        <time>2014-10-26T13:48:18Z</time>
      </trkpt>
      <trkpt lat="43.64962" lon="3.94394">
        <ele>45.8</ele>
        <time>2014-10-26T13:48:26Z</time>
      </trkpt>
      <trkpt lat="43.65029" lon="3.94402">
        <ele>45.8</ele>
        <time>2014-10-26T13:48:34Z</time>
      </trkpt>
      <trkpt lat="43.65106" lon="3.94409">
        <ele>46.28</ele>
        <time>2014-10-26T13:48:44Z</time>
      </trkpt>
      <trkpt lat="43.6514" lon="3.94417">
        <ele>44.84</ele>
        <time>2014-10-26T13:48:50Z</time>
      </trkpt>
      <trkpt lat="43.65148" lon="3.94422">
        <ele>43.88</ele>
        <time>2014-10-26T13:48:51Z</time>
      </trkpt>
      <trkpt lat="43.65227" lon="3.94474">
        <ele>38.59</ele>
        <time>2014-10-26T13:49:01Z</time>
      </trkpt>
      <trkpt lat="43.65237" lon="3.94476">
        <ele>38.11</ele>
        <time>2014-10-26T13:49:02Z</time>
      </trkpt>
      <trkpt lat="43.65247" lon="3.94475">
        <ele>37.63</ele>
        <time>2014-10-26T13:49:03Z</time>
      </trkpt>
      <trkpt lat="43.65256" lon="3.94474">
        <ele>37.15</ele>
        <time>2014-10-26T13:49:04Z</time>
      </trkpt>
      <trkpt lat="43.65265" lon="3.94472">
        <ele>37.15</ele>
        <time>2014-10-26T13:49:05Z</time>
      </trkpt>
      <trkpt lat="43.65328" lon="3.94466">
        <ele>35.71</ele>
        <time>2014-10-26T13:49:15Z</time>
      </trkpt>
      <trkpt lat="43.65363" lon="3.94476">
        <ele>35.71</ele>
        <time>2014-10-26T13:49:20Z</time>
      </trkpt>
      <trkpt lat="43.6537" lon="3.9448">
        <ele>36.19</ele>
        <time>2014-10-26T13:49:21Z</time>
      </trkpt>
      <trkpt lat="43.65383" lon="3.94487">
        <ele>37.15</ele>
        <time>2014-10-26T13:49:23Z</time>
      </trkpt>
      <trkpt lat="43.65395" lon="3.94493">
        <ele>37.63</ele>
        <time>2014-10-26T13:49:25Z</time>
      </trkpt>
      <trkpt lat="43.65401" lon="3.94497">
        <ele>38.11</ele>
        <time>2014-10-26T13:49:26Z</time>
      </trkpt>
      <trkpt lat="43.65408" lon="3.94499">
        <ele>38.59</ele>
        <time>2014-10-26T13:49:27Z</time>
      </trkpt>
      <trkpt lat="43.65416" lon="3.94498">
        <ele>39.55</ele>
        <time>2014-10-26T13:49:28Z</time>
      </trkpt>
      <trkpt lat="43.65424" lon="3.94496">
        <ele>40.03</ele>
        <time>2014-10-26T13:49:29Z</time>
      </trkpt>
      <trkpt lat="43.65432" lon="3.94492">
        <ele>40.51</ele>
        <time>2014-10-26T13:49:30Z</time>
      </trkpt>
      <trkpt lat="43.65439" lon="3.94486">
        <ele>40.51</ele>
        <time>2014-10-26T13:49:31Z</time>
      </trkpt>
      <trkpt lat="43.65445" lon="3.9448">
        <ele>40.99</ele>
        <time>2014-10-26T13:49:32Z</time>
      </trkpt>
      <trkpt lat="43.6545" lon="3.94474">
        <ele>40.99</ele>
        <time>2014-10-26T13:49:33Z</time>
      </trkpt>
      <trkpt lat="43.65455" lon="3.94468">
        <ele>41.95</ele>
        <time>2014-10-26T13:49:34Z</time>
      </trkpt>
      <trkpt lat="43.65459" lon="3.94461">
        <ele>42.44</ele>
        <time>2014-10-26T13:49:35Z</time>
      </trkpt>
      <trkpt lat="43.65495" lon="3.94416">
        <ele>45.8</ele>
        <time>2014-10-26T13:49:41Z</time>
      </trkpt>
      <trkpt lat="43.65503" lon="3.94411">
        <ele>46.76</ele>
        <time>2014-10-26T13:49:42Z</time>
      </trkpt>
      <trkpt lat="43.65512" lon="3.94407">
        <ele>47.72</ele>
        <time>2014-10-26T13:49:43Z</time>
      </trkpt>
      <trkpt lat="43.65521" lon="3.94405">
        <ele>48.68</ele>
        <time>2014-10-26T13:49:44Z</time>
      </trkpt>
      <trkpt lat="43.6553" lon="3.94402">
        <ele>50.13</ele>
        <time>2014-10-26T13:49:45Z</time>
      </trkpt>
      <trkpt lat="43.6554" lon="3.94401">
        <ele>51.09</ele>
        <time>2014-10-26T13:49:46Z</time>
      </trkpt>
      <trkpt lat="43.65612" lon="3.94392">
        <ele>57.82</ele>
        <time>2014-10-26T13:49:55Z</time>
      </trkpt>
      <trkpt lat="43.6562" lon="3.94391">
        <ele>58.3</ele>
        <time>2014-10-26T13:49:56Z</time>
      </trkpt>
      <trkpt lat="43.65627" lon="3.94388">
        <ele>58.78</ele>
        <time>2014-10-26T13:49:57Z</time>
      </trkpt>
      <trkpt lat="43.65634" lon="3.94384">
        <ele>59.26</ele>
        <time>2014-10-26T13:49:58Z</time>
      </trkpt>
      <trkpt lat="43.6564" lon="3.9438">
        <ele>59.74</ele>
        <time>2014-10-26T13:49:59Z</time>
      </trkpt>
      <trkpt lat="43.65646" lon="3.94376">
        <ele>59.74</ele>
        <time>2014-10-26T13:50:00Z</time>
      </trkpt>
      <trkpt lat="43.65651" lon="3.94372">
        <ele>60.22</ele>
        <time>2014-10-26T13:50:01Z</time>
      </trkpt>
      <trkpt lat="43.65657" lon="3.94369">
        <ele>60.22</ele>
        <time>2014-10-26T13:50:02Z</time>
      </trkpt>
      <trkpt lat="43.65663" lon="3.94367">
        <ele>60.7</ele>
        <time>2014-10-26T13:50:03Z</time>
      </trkpt>
      <trkpt lat="43.65718" lon="3.94363">
        <ele>60.22</ele>
        <time>2014-10-26T13:50:11Z</time>
      </trkpt>
      <trkpt lat="43.65724" lon="3.94361">
        <ele>60.7</ele>
        <time>2014-10-26T13:50:12Z</time>
      </trkpt>
      <trkpt lat="43.6573" lon="3.94357">
        <ele>60.22</ele>
        <time>2014-10-26T13:50:13Z</time>
      </trkpt>
      <trkpt lat="43.65733" lon="3.94349">
        <ele>59.74</ele>
        <time>2014-10-26T13:50:14Z</time>
      </trkpt>
      <trkpt lat="43.65737" lon="3.9434">
        <ele>59.74</ele>
        <time>2014-10-26T13:50:15Z</time>
      </trkpt>
      <trkpt lat="43.6574" lon="3.94333">
        <ele>60.22</ele>
        <time>2014-10-26T13:50:16Z</time>
      </trkpt>
      <trkpt lat="43.65743" lon="3.94327">
        <ele>60.22</ele>
        <time>2014-10-26T13:50:17Z</time>
      </trkpt>
      <trkpt lat="43.65746" lon="3.94323">
        <ele>60.22</ele>
        <time>2014-10-26T13:50:18Z</time>
      </trkpt>
      <trkpt lat="43.65749" lon="3.94315">
        <ele>59.74</ele>
        <time>2014-10-26T13:50:20Z</time>
      </trkpt>
      <trkpt lat="43.65749" lon="3.94309">
        <ele>59.74</ele>
        <time>2014-10-26T13:50:21Z</time>
      </trkpt>
      <trkpt lat="43.65747" lon="3.94302">
        <ele>59.26</ele>
        <time>2014-10-26T13:50:22Z</time>
      </trkpt>
      <trkpt lat="43.65742" lon="3.94296">
        <ele>59.74</ele>
        <time>2014-10-26T13:50:23Z</time>
      </trkpt>
      <trkpt lat="43.65737" lon="3.9429">
        <ele>59.74</ele>
        <time>2014-10-26T13:50:24Z</time>
      </trkpt>
      <trkpt lat="43.65733" lon="3.94284">
        <ele>59.74</ele>
        <time>2014-10-26T13:50:25Z</time>
      </trkpt>
      <trkpt lat="43.65731" lon="3.94277">
        <ele>59.74</ele>
        <time>2014-10-26T13:50:26Z</time>
      </trkpt>
      <trkpt lat="43.6573" lon="3.9427">
        <ele>59.74</ele>
        <time>2014-10-26T13:50:27Z</time>
      </trkpt>
      <trkpt lat="43.65729" lon="3.94239">
        <ele>59.26</ele>
        <time>2014-10-26T13:50:31Z</time>
      </trkpt>
      <trkpt lat="43.65727" lon="3.94233">
        <ele>58.78</ele>
        <time>2014-10-26T13:50:32Z</time>
      </trkpt>
      <trkpt lat="43.65724" lon="3.94229">
        <ele>58.78</ele>
        <time>2014-10-26T13:50:33Z</time>
      </trkpt>
      <trkpt lat="43.6572" lon="3.94225">
        <ele>59.26</ele>
        <time>2014-10-26T13:50:34Z</time>
      </trkpt>
      <trkpt lat="43.65717" lon="3.94221">
        <ele>59.26</ele>
        <time>2014-10-26T13:50:35Z</time>
      </trkpt>
      <trkpt lat="43.65715" lon="3.94215">
        <ele>58.78</ele>
        <time>2014-10-26T13:50:36Z</time>
      </trkpt>
      <trkpt lat="43.65716" lon="3.94207">
        <ele>58.78</ele>
        <time>2014-10-26T13:50:37Z</time>
      </trkpt>
      <trkpt lat="43.65718" lon="3.94199">
        <ele>58.3</ele>
        <time>2014-10-26T13:50:38Z</time>
      </trkpt>
      <trkpt lat="43.65721" lon="3.9419">
        <ele>58.3</ele>
        <time>2014-10-26T13:50:39Z</time>
      </trkpt>
      <trkpt lat="43.6574" lon="3.94143">
        <ele>56.37</ele>
        <time>2014-10-26T13:50:47Z</time>
      </trkpt>
      <trkpt lat="43.65765" lon="3.94084">
        <ele>55.89</ele>
        <time>2014-10-26T13:50:54Z</time>
      </trkpt>
      <trkpt lat="43.65768" lon="3.94073">
        <ele>55.89</ele>
        <time>2014-10-26T13:50:55Z</time>
      </trkpt>
      <trkpt lat="43.6577" lon="3.94061">
        <ele>55.89</ele>
        <time>2014-10-26T13:50:56Z</time>
      </trkpt>
      <trkpt lat="43.6577" lon="3.94049">
        <ele>55.41</ele>
        <time>2014-10-26T13:50:57Z</time>
      </trkpt>
      <trkpt lat="43.65769" lon="3.94038">
        <ele>54.93</ele>
        <time>2014-10-26T13:50:58Z</time>
      </trkpt>
      <trkpt lat="43.65767" lon="3.94027">
        <ele>54.93</ele>
        <time>2014-10-26T13:50:59Z</time>
      </trkpt>
      <trkpt lat="43.65764" lon="3.94018">
        <ele>54.45</ele>
        <time>2014-10-26T13:51:00Z</time>
      </trkpt>
      <trkpt lat="43.65761" lon="3.9401">
        <ele>54.45</ele>
        <time>2014-10-26T13:51:01Z</time>
      </trkpt>
      <trkpt lat="43.65758" lon="3.94004">
        <ele>53.97</ele>
        <time>2014-10-26T13:51:02Z</time>
      </trkpt>
      <trkpt lat="43.65755" lon="3.93997">
        <ele>53.49</ele>
        <time>2014-10-26T13:51:03Z</time>
      </trkpt>
      <trkpt lat="43.65721" lon="3.93925">
        <ele>53.97</ele>
        <time>2014-10-26T13:51:14Z</time>
      </trkpt>
      <trkpt lat="43.65692" lon="3.93854">
        <ele>54.93</ele>
        <time>2014-10-26T13:51:24Z</time>
      </trkpt>
      <trkpt lat="43.65683" lon="3.9379">
        <ele>53.01</ele>
        <time>2014-10-26T13:51:34Z</time>
      </trkpt>
      <trkpt lat="43.65686" lon="3.93725">
        <ele>48.2</ele>
        <time>2014-10-26T13:51:42Z</time>
      </trkpt>
      <trkpt lat="43.65688" lon="3.93637">
        <ele>41.47</ele>
        <time>2014-10-26T13:51:52Z</time>
      </trkpt>
      <trkpt lat="43.65688" lon="3.93631">
        <ele>40.99</ele>
        <time>2014-10-26T13:51:53Z</time>
      </trkpt>
      <trkpt lat="43.65686" lon="3.93624">
        <ele>40.51</ele>
        <time>2014-10-26T13:51:54Z</time>
      </trkpt>
      <trkpt lat="43.65688" lon="3.93583">
        <ele>38.59</ele>
        <time>2014-10-26T13:52:03Z</time>
      </trkpt>
      <trkpt lat="43.65695" lon="3.93579">
        <ele>38.59</ele>
        <time>2014-10-26T13:52:06Z</time>
      </trkpt>
      <trkpt lat="43.65705" lon="3.93583">
        <ele>38.59</ele>
        <time>2014-10-26T13:52:07Z</time>
      </trkpt>
      <trkpt lat="43.65791" lon="3.93604">
        <ele>40.03</ele>
        <time>2014-10-26T13:52:15Z</time>
      </trkpt>
      <trkpt lat="43.6582" lon="3.93606">
        <ele>40.99</ele>
        <time>2014-10-26T13:52:18Z</time>
      </trkpt>
      <trkpt lat="43.65827" lon="3.93605">
        <ele>40.99</ele>
        <time>2014-10-26T13:52:19Z</time>
      </trkpt>
      <trkpt lat="43.65846" lon="3.93601">
        <ele>41.47</ele>
        <time>2014-10-26T13:52:22Z</time>
      </trkpt>
      <trkpt lat="43.6585" lon="3.93602">
        <ele>41.95</ele>
        <time>2014-10-26T13:52:23Z</time>
      </trkpt>
      <trkpt lat="43.65854" lon="3.93604">
        <ele>41.95</ele>
        <time>2014-10-26T13:52:24Z</time>
      </trkpt>
      <trkpt lat="43.65858" lon="3.93606">
        <ele>41.95</ele>
        <time>2014-10-26T13:52:25Z</time>
      </trkpt>
      <trkpt lat="43.65865" lon="3.93611">
        <ele>42.44</ele>
        <time>2014-10-26T13:52:26Z</time>
      </trkpt>
      <trkpt lat="43.65873" lon="3.93617">
        <ele>42.44</ele>
        <time>2014-10-26T13:52:27Z</time>
      </trkpt>
      <trkpt lat="43.65883" lon="3.9362">
        <ele>42.44</ele>
        <time>2014-10-26T13:52:28Z</time>
      </trkpt>
      <trkpt lat="43.65892" lon="3.9362">
        <ele>42.44</ele>
        <time>2014-10-26T13:52:29Z</time>
      </trkpt>
      <trkpt lat="43.659" lon="3.93616">
        <ele>42.44</ele>
        <time>2014-10-26T13:52:30Z</time>
      </trkpt>
      <trkpt lat="43.65908" lon="3.93609">
        <ele>42.44</ele>
        <time>2014-10-26T13:52:31Z</time>
      </trkpt>
      <trkpt lat="43.65913" lon="3.93601">
        <ele>42.44</ele>
        <time>2014-10-26T13:52:32Z</time>
      </trkpt>
      <trkpt lat="43.65917" lon="3.93592">
        <ele>42.44</ele>
        <time>2014-10-26T13:52:33Z</time>
      </trkpt>
      <trkpt lat="43.65921" lon="3.93585">
        <ele>42.44</ele>
        <time>2014-10-26T13:52:34Z</time>
      </trkpt>
      <trkpt lat="43.65926" lon="3.93579">
        <ele>42.92</ele>
        <time>2014-10-26T13:52:35Z</time>
      </trkpt>
      <trkpt lat="43.65932" lon="3.93574">
        <ele>42.92</ele>
        <time>2014-10-26T13:52:36Z</time>
      </trkpt>
      <trkpt lat="43.65938" lon="3.93571">
        <ele>42.92</ele>
        <time>2014-10-26T13:52:37Z</time>
      </trkpt>
      <trkpt lat="43.65944" lon="3.9357">
        <ele>42.92</ele>
        <time>2014-10-26T13:52:38Z</time>
      </trkpt>
      <trkpt lat="43.65948" lon="3.93571">
        <ele>42.92</ele>
        <time>2014-10-26T13:52:39Z</time>
      </trkpt>
      <trkpt lat="43.65951" lon="3.93575">
        <ele>42.92</ele>
        <time>2014-10-26T13:52:40Z</time>
      </trkpt>
      <trkpt lat="43.65953" lon="3.9358">
        <ele>43.4</ele>
        <time>2014-10-26T13:52:41Z</time>
      </trkpt>
      <trkpt lat="43.65954" lon="3.93585">
        <ele>43.4</ele>
        <time>2014-10-26T13:52:42Z</time>
      </trkpt>
      <trkpt lat="43.65953" lon="3.93592">
        <ele>43.4</ele>
        <time>2014-10-26T13:52:43Z</time>
      </trkpt>
      <trkpt lat="43.65951" lon="3.93598">
        <ele>43.4</ele>
        <time>2014-10-26T13:52:44Z</time>
      </trkpt>
      <trkpt lat="43.65948" lon="3.93605">
        <ele>43.4</ele>
        <time>2014-10-26T13:52:45Z</time>
      </trkpt>
      <trkpt lat="43.65946" lon="3.93611">
        <ele>43.4</ele>
        <time>2014-10-26T13:52:46Z</time>
      </trkpt>
      <trkpt lat="43.65945" lon="3.93618">
        <ele>43.4</ele>
        <time>2014-10-26T13:52:47Z</time>
      </trkpt>
      <trkpt lat="43.65944" lon="3.93624">
        <ele>43.4</ele>
        <time>2014-10-26T13:52:48Z</time>
      </trkpt>
      <trkpt lat="43.65945" lon="3.9363">
        <ele>43.88</ele>
        <time>2014-10-26T13:52:49Z</time>
      </trkpt>
      <trkpt lat="43.65946" lon="3.93636">
        <ele>43.88</ele>
        <time>2014-10-26T13:52:50Z</time>
      </trkpt>
      <trkpt lat="43.65948" lon="3.93641">
        <ele>43.88</ele>
        <time>2014-10-26T13:52:51Z</time>
      </trkpt>
      <trkpt lat="43.6595" lon="3.93644">
        <ele>43.88</ele>
        <time>2014-10-26T13:52:52Z</time>
      </trkpt>
      <trkpt lat="43.65954" lon="3.93647">
        <ele>43.88</ele>
        <time>2014-10-26T13:52:53Z</time>
      </trkpt>
      <trkpt lat="43.65957" lon="3.93648">
        <ele>44.36</ele>
        <time>2014-10-26T13:52:54Z</time>
      </trkpt>
      <trkpt lat="43.65961" lon="3.93648">
        <ele>43.88</ele>
        <time>2014-10-26T13:52:55Z</time>
      </trkpt>
      <trkpt lat="43.65964" lon="3.93646">
        <ele>43.88</ele>
        <time>2014-10-26T13:52:56Z</time>
      </trkpt>
      <trkpt lat="43.65966" lon="3.93643">
        <ele>43.88</ele>
        <time>2014-10-26T13:52:57Z</time>
      </trkpt>
      <trkpt lat="43.65967" lon="3.93639">
        <ele>43.88</ele>
        <time>2014-10-26T13:52:58Z</time>
      </trkpt>
      <trkpt lat="43.65968" lon="3.93635">
        <ele>43.88</ele>
        <time>2014-10-26T13:52:59Z</time>
      </trkpt>
      <trkpt lat="43.65969" lon="3.93618">
        <ele>43.88</ele>
        <time>2014-10-26T13:53:07Z</time>
      </trkpt>
      <trkpt lat="43.65968" lon="3.93615">
        <ele>44.84</ele>
        <time>2014-10-26T13:53:38Z</time>
      </trkpt>
      <trkpt lat="43.65969" lon="3.93617">
        <ele>40.99</ele>
        <time>2014-10-26T13:54:20Z</time>
      </trkpt>
      <trkpt lat="43.65964" lon="3.93617">
        <ele>33.78</ele>
        <time>2014-10-26T13:54:59Z</time>
      </trkpt>
      <trkpt lat="43.65968" lon="3.93614">
        <ele>37.63</ele>
        <time>2014-10-26T13:55:46Z</time>
      </trkpt>
      <trkpt lat="43.65969" lon="3.93614">
        <ele>35.71</ele>
        <time>2014-10-26T13:56:05Z</time>
      </trkpt>
      <trkpt lat="43.6597" lon="3.93611">
        <ele>43.4</ele>
        <time>2014-10-26T13:56:44Z</time>
      </trkpt>
      <trkpt lat="43.65971" lon="3.93609">
        <ele>46.28</ele>
        <time>2014-10-26T13:57:29Z</time>
      </trkpt>
      <trkpt lat="43.6598" lon="3.93583">
        <ele>44.36</ele>
        <time>2014-10-26T13:57:39Z</time>
      </trkpt>
      <trkpt lat="43.65982" lon="3.93581">
        <ele>44.36</ele>
        <time>2014-10-26T13:57:40Z</time>
      </trkpt>
      <trkpt lat="43.65984" lon="3.93581">
        <ele>43.88</ele>
        <time>2014-10-26T13:57:41Z</time>
      </trkpt>
      <trkpt lat="43.65987" lon="3.93583">
        <ele>43.88</ele>
        <time>2014-10-26T13:57:42Z</time>
      </trkpt>
      <trkpt lat="43.6599" lon="3.93588">
        <ele>43.88</ele>
        <time>2014-10-26T13:57:43Z</time>
      </trkpt>
      <trkpt lat="43.65994" lon="3.93592">
        <ele>43.88</ele>
        <time>2014-10-26T13:57:44Z</time>
      </trkpt>
      <trkpt lat="43.65998" lon="3.93594">
        <ele>43.88</ele>
        <time>2014-10-26T13:57:45Z</time>
      </trkpt>
      <trkpt lat="43.66002" lon="3.93593">
        <ele>43.4</ele>
        <time>2014-10-26T13:57:46Z</time>
      </trkpt>
      <trkpt lat="43.66005" lon="3.9359">
        <ele>43.4</ele>
        <time>2014-10-26T13:57:47Z</time>
      </trkpt>
      <trkpt lat="43.66006" lon="3.93585">
        <ele>43.4</ele>
        <time>2014-10-26T13:57:48Z</time>
      </trkpt>
      <trkpt lat="43.66005" lon="3.93579">
        <ele>43.4</ele>
        <time>2014-10-26T13:57:49Z</time>
      </trkpt>
      <trkpt lat="43.66001" lon="3.93575">
        <ele>43.4</ele>
        <time>2014-10-26T13:57:50Z</time>
      </trkpt>
      <trkpt lat="43.65996" lon="3.93574">
        <ele>43.4</ele>
        <time>2014-10-26T13:57:51Z</time>
      </trkpt>
      <trkpt lat="43.6599" lon="3.93574">
        <ele>42.92</ele>
        <time>2014-10-26T13:57:52Z</time>
      </trkpt>
      <trkpt lat="43.65984" lon="3.93572">
        <ele>42.92</ele>
        <time>2014-10-26T13:57:53Z</time>
      </trkpt>
      <trkpt lat="43.65976" lon="3.9357">
        <ele>42.92</ele>
        <time>2014-10-26T13:57:54Z</time>
      </trkpt>
      <trkpt lat="43.65925" lon="3.93561">
        <ele>42.44</ele>
        <time>2014-10-26T13:58:01Z</time>
      </trkpt>
      <trkpt lat="43.65919" lon="3.93559">
        <ele>42.44</ele>
        <time>2014-10-26T13:58:02Z</time>
      </trkpt>
      <trkpt lat="43.65912" lon="3.93553">
        <ele>42.44</ele>
        <time>2014-10-26T13:58:03Z</time>
      </trkpt>
      <trkpt lat="43.65906" lon="3.93545">
        <ele>41.95</ele>
        <time>2014-10-26T13:58:04Z</time>
      </trkpt>
      <trkpt lat="43.65899" lon="3.93534">
        <ele>41.95</ele>
        <time>2014-10-26T13:58:05Z</time>
      </trkpt>
      <trkpt lat="43.65892" lon="3.9352">
        <ele>41.47</ele>
        <time>2014-10-26T13:58:06Z</time>
      </trkpt>
      <trkpt lat="43.65889" lon="3.935">
        <ele>41.47</ele>
        <time>2014-10-26T13:58:07Z</time>
      </trkpt>
      <trkpt lat="43.6589" lon="3.9348">
        <ele>41.47</ele>
        <time>2014-10-26T13:58:08Z</time>
      </trkpt>
      <trkpt lat="43.65894" lon="3.93459">
        <ele>40.99</ele>
        <time>2014-10-26T13:58:09Z</time>
      </trkpt>
      <trkpt lat="43.659" lon="3.93437">
        <ele>40.99</ele>
        <time>2014-10-26T13:58:10Z</time>
      </trkpt>
      <trkpt lat="43.65906" lon="3.93416">
        <ele>41.47</ele>
        <time>2014-10-26T13:58:11Z</time>
      </trkpt>
      <trkpt lat="43.65951" lon="3.932">
        <ele>42.92</ele>
        <time>2014-10-26T13:58:21Z</time>
      </trkpt>
      <trkpt lat="43.65972" lon="3.93094">
        <ele>43.88</ele>
        <time>2014-10-26T13:58:28Z</time>
      </trkpt>
      <trkpt lat="43.65975" lon="3.93085">
        <ele>43.88</ele>
        <time>2014-10-26T13:58:29Z</time>
      </trkpt>
      <trkpt lat="43.65979" lon="3.93078">
        <ele>43.88</ele>
        <time>2014-10-26T13:58:30Z</time>
      </trkpt>
      <trkpt lat="43.65984" lon="3.93072">
        <ele>43.88</ele>
        <time>2014-10-26T13:58:31Z</time>
      </trkpt>
      <trkpt lat="43.66" lon="3.9306">
        <ele>44.36</ele>
        <time>2014-10-26T13:58:33Z</time>
      </trkpt>
      <trkpt lat="43.66008" lon="3.93052">
        <ele>44.84</ele>
        <time>2014-10-26T13:58:34Z</time>
      </trkpt>
      <trkpt lat="43.66059" lon="3.92967">
        <ele>44.36</ele>
        <time>2014-10-26T13:58:41Z</time>
      </trkpt>
      <trkpt lat="43.66062" lon="3.92952">
        <ele>44.36</ele>
        <time>2014-10-26T13:58:42Z</time>
      </trkpt>
      <trkpt lat="43.66063" lon="3.92937">
        <ele>43.88</ele>
        <time>2014-10-26T13:58:43Z</time>
      </trkpt>
      <trkpt lat="43.66062" lon="3.92921">
        <ele>43.88</ele>
        <time>2014-10-26T13:58:44Z</time>
      </trkpt>
      <trkpt lat="43.66059" lon="3.92907">
        <ele>43.4</ele>
        <time>2014-10-26T13:58:45Z</time>
      </trkpt>
      <trkpt lat="43.66055" lon="3.92895">
        <ele>43.4</ele>
        <time>2014-10-26T13:58:46Z</time>
      </trkpt>
      <trkpt lat="43.66051" lon="3.92874">
        <ele>42.92</ele>
        <time>2014-10-26T13:58:48Z</time>
      </trkpt>
      <trkpt lat="43.66051" lon="3.92863">
        <ele>42.92</ele>
        <time>2014-10-26T13:58:49Z</time>
      </trkpt>
      <trkpt lat="43.66054" lon="3.92851">
        <ele>42.44</ele>
        <time>2014-10-26T13:58:50Z</time>
      </trkpt>
      <trkpt lat="43.66061" lon="3.92838">
        <ele>41.95</ele>
        <time>2014-10-26T13:58:51Z</time>
      </trkpt>
      <trkpt lat="43.66069" lon="3.92824">
        <ele>41.95</ele>
        <time>2014-10-26T13:58:52Z</time>
      </trkpt>
      <trkpt lat="43.66151" lon="3.92682">
        <ele>41.95</ele>
        <time>2014-10-26T13:59:01Z</time>
      </trkpt>
      <trkpt lat="43.66209" lon="3.92609">
        <ele>42.44</ele>
        <time>2014-10-26T13:59:07Z</time>
      </trkpt>
      <trkpt lat="43.66218" lon="3.92602">
        <ele>42.92</ele>
        <time>2014-10-26T13:59:08Z</time>
      </trkpt>
      <trkpt lat="43.66237" lon="3.92589">
        <ele>42.92</ele>
        <time>2014-10-26T13:59:10Z</time>
      </trkpt>
      <trkpt lat="43.66246" lon="3.92578">
        <ele>43.4</ele>
        <time>2014-10-26T13:59:11Z</time>
      </trkpt>
      <trkpt lat="43.66256" lon="3.92568">
        <ele>43.4</ele>
        <time>2014-10-26T13:59:12Z</time>
      </trkpt>
      <trkpt lat="43.66268" lon="3.92557">
        <ele>43.88</ele>
        <time>2014-10-26T13:59:13Z</time>
      </trkpt>
      <trkpt lat="43.66282" lon="3.92548">
        <ele>44.36</ele>
        <time>2014-10-26T13:59:14Z</time>
      </trkpt>
      <trkpt lat="43.66297" lon="3.9254">
        <ele>44.84</ele>
        <time>2014-10-26T13:59:15Z</time>
      </trkpt>
      <trkpt lat="43.66431" lon="3.92459">
        <ele>48.2</ele>
        <time>2014-10-26T13:59:23Z</time>
      </trkpt>
      <trkpt lat="43.66575" lon="3.92318">
        <ele>50.13</ele>
        <time>2014-10-26T13:59:33Z</time>
      </trkpt>
      <trkpt lat="43.66685" lon="3.92153">
        <ele>52.53</ele>
        <time>2014-10-26T13:59:41Z</time>
      </trkpt>
      <trkpt lat="43.66809" lon="3.9194">
        <ele>54.45</ele>
        <time>2014-10-26T13:59:52Z</time>
      </trkpt>
      <trkpt lat="43.66864" lon="3.91837">
        <ele>54.93</ele>
        <time>2014-10-26T14:00:00Z</time>
      </trkpt>
      <trkpt lat="43.66868" lon="3.91832">
        <ele>54.93</ele>
        <time>2014-10-26T14:00:01Z</time>
      </trkpt>
      <trkpt lat="43.66873" lon="3.91828">
        <ele>55.41</ele>
        <time>2014-10-26T14:00:02Z</time>
      </trkpt>
      <trkpt lat="43.66884" lon="3.9182">
        <ele>55.89</ele>
        <time>2014-10-26T14:00:04Z</time>
      </trkpt>
      <trkpt lat="43.66888" lon="3.91813">
        <ele>55.41</ele>
        <time>2014-10-26T14:00:05Z</time>
      </trkpt>
      <trkpt lat="43.6689" lon="3.91803">
        <ele>55.41</ele>
        <time>2014-10-26T14:00:06Z</time>
      </trkpt>
      <trkpt lat="43.66893" lon="3.91781">
        <ele>55.41</ele>
        <time>2014-10-26T14:00:08Z</time>
      </trkpt>
      <trkpt lat="43.66897" lon="3.91769">
        <ele>55.41</ele>
        <time>2014-10-26T14:00:09Z</time>
      </trkpt>
      <trkpt lat="43.66903" lon="3.91756">
        <ele>55.41</ele>
        <time>2014-10-26T14:00:10Z</time>
      </trkpt>
      <trkpt lat="43.66978" lon="3.91635">
        <ele>55.41</ele>
        <time>2014-10-26T14:00:18Z</time>
      </trkpt>
      <trkpt lat="43.67068" lon="3.91473">
        <ele>55.89</ele>
        <time>2014-10-26T14:00:29Z</time>
      </trkpt>
      <trkpt lat="43.67134" lon="3.91404">
        <ele>56.37</ele>
        <time>2014-10-26T14:00:36Z</time>
      </trkpt>
      <trkpt lat="43.67141" lon="3.91394">
        <ele>56.86</ele>
        <time>2014-10-26T14:00:37Z</time>
      </trkpt>
      <trkpt lat="43.67147" lon="3.91383">
        <ele>56.86</ele>
        <time>2014-10-26T14:00:38Z</time>
      </trkpt>
      <trkpt lat="43.67152" lon="3.91373">
        <ele>56.86</ele>
        <time>2014-10-26T14:00:39Z</time>
      </trkpt>
      <trkpt lat="43.67155" lon="3.91363">
        <ele>56.86</ele>
        <time>2014-10-26T14:00:40Z</time>
      </trkpt>
      <trkpt lat="43.67157" lon="3.91356">
        <ele>56.86</ele>
        <time>2014-10-26T14:00:41Z</time>
      </trkpt>
      <trkpt lat="43.67163" lon="3.91337">
        <ele>56.37</ele>
        <time>2014-10-26T14:00:49Z</time>
      </trkpt>
      <trkpt lat="43.6717" lon="3.91326">
        <ele>56.37</ele>
        <time>2014-10-26T14:00:53Z</time>
      </trkpt>
      <trkpt lat="43.67179" lon="3.91315">
        <ele>56.37</ele>
        <time>2014-10-26T14:00:55Z</time>
      </trkpt>
      <trkpt lat="43.67182" lon="3.91308">
        <ele>56.37</ele>
        <time>2014-10-26T14:00:56Z</time>
      </trkpt>
      <trkpt lat="43.67183" lon="3.91299">
        <ele>56.37</ele>
        <time>2014-10-26T14:00:57Z</time>
      </trkpt>
      <trkpt lat="43.67182" lon="3.9129">
        <ele>56.37</ele>
        <time>2014-10-26T14:00:58Z</time>
      </trkpt>
      <trkpt lat="43.67179" lon="3.91283">
        <ele>56.37</ele>
        <time>2014-10-26T14:00:59Z</time>
      </trkpt>
      <trkpt lat="43.67173" lon="3.91277">
        <ele>56.37</ele>
        <time>2014-10-26T14:01:00Z</time>
      </trkpt>
      <trkpt lat="43.67167" lon="3.91274">
        <ele>56.37</ele>
        <time>2014-10-26T14:01:01Z</time>
      </trkpt>
      <trkpt lat="43.67159" lon="3.91275">
        <ele>56.37</ele>
        <time>2014-10-26T14:01:02Z</time>
      </trkpt>
      <trkpt lat="43.67151" lon="3.91276">
        <ele>55.89</ele>
        <time>2014-10-26T14:01:03Z</time>
      </trkpt>
      <trkpt lat="43.67142" lon="3.91278">
        <ele>55.89</ele>
        <time>2014-10-26T14:01:04Z</time>
      </trkpt>
      <trkpt lat="43.67133" lon="3.91277">
        <ele>55.41</ele>
        <time>2014-10-26T14:01:05Z</time>
      </trkpt>
      <trkpt lat="43.67123" lon="3.91273">
        <ele>55.89</ele>
        <time>2014-10-26T14:01:06Z</time>
      </trkpt>
      <trkpt lat="43.67111" lon="3.91266">
        <ele>55.89</ele>
        <time>2014-10-26T14:01:07Z</time>
      </trkpt>
      <trkpt lat="43.67099" lon="3.91258">
        <ele>55.89</ele>
        <time>2014-10-26T14:01:08Z</time>
      </trkpt>
      <trkpt lat="43.67009" lon="3.91192">
        <ele>56.37</ele>
        <time>2014-10-26T14:01:13Z</time>
      </trkpt>
      <trkpt lat="43.66864" lon="3.91057">
        <ele>56.86</ele>
        <time>2014-10-26T14:01:22Z</time>
      </trkpt>
      <trkpt lat="43.66795" lon="3.90965">
        <ele>56.37</ele>
        <time>2014-10-26T14:01:29Z</time>
      </trkpt>
      <trkpt lat="43.66784" lon="3.90946">
        <ele>56.37</ele>
        <time>2014-10-26T14:01:31Z</time>
      </trkpt>
      <trkpt lat="43.66781" lon="3.90936">
        <ele>56.37</ele>
        <time>2014-10-26T14:01:32Z</time>
      </trkpt>
      <trkpt lat="43.66779" lon="3.90926">
        <ele>56.37</ele>
        <time>2014-10-26T14:01:33Z</time>
      </trkpt>
      <trkpt lat="43.66775" lon="3.90903">
        <ele>56.37</ele>
        <time>2014-10-26T14:01:35Z</time>
      </trkpt>
      <trkpt lat="43.66769" lon="3.90895">
        <ele>56.37</ele>
        <time>2014-10-26T14:01:36Z</time>
      </trkpt>
      <trkpt lat="43.66762" lon="3.90891">
        <ele>56.37</ele>
        <time>2014-10-26T14:01:37Z</time>
      </trkpt>
      <trkpt lat="43.66752" lon="3.90889">
        <ele>55.89</ele>
        <time>2014-10-26T14:01:38Z</time>
      </trkpt>
      <trkpt lat="43.66741" lon="3.90884">
        <ele>55.89</ele>
        <time>2014-10-26T14:01:39Z</time>
      </trkpt>
      <trkpt lat="43.6673" lon="3.90875">
        <ele>55.89</ele>
        <time>2014-10-26T14:01:40Z</time>
      </trkpt>
      <trkpt lat="43.6672" lon="3.9086">
        <ele>55.89</ele>
        <time>2014-10-26T14:01:41Z</time>
      </trkpt>
      <trkpt lat="43.66709" lon="3.90844">
        <ele>55.89</ele>
        <time>2014-10-26T14:01:42Z</time>
      </trkpt>
      <trkpt lat="43.66598" lon="3.90668">
        <ele>54.93</ele>
        <time>2014-10-26T14:01:52Z</time>
      </trkpt>
      <trkpt lat="43.66591" lon="3.90647">
        <ele>55.41</ele>
        <time>2014-10-26T14:01:53Z</time>
      </trkpt>
      <trkpt lat="43.66585" lon="3.90625">
        <ele>55.41</ele>
        <time>2014-10-26T14:01:54Z</time>
      </trkpt>
      <trkpt lat="43.66582" lon="3.90602">
        <ele>55.41</ele>
        <time>2014-10-26T14:01:55Z</time>
      </trkpt>
      <trkpt lat="43.6658" lon="3.90578">
        <ele>55.89</ele>
        <time>2014-10-26T14:01:56Z</time>
      </trkpt>
      <trkpt lat="43.6658" lon="3.90554">
        <ele>56.37</ele>
        <time>2014-10-26T14:01:57Z</time>
      </trkpt>
      <trkpt lat="43.66573" lon="3.90401">
        <ele>60.22</ele>
        <time>2014-10-26T14:02:04Z</time>
      </trkpt>
      <trkpt lat="43.66569" lon="3.90386">
        <ele>60.7</ele>
        <time>2014-10-26T14:02:05Z</time>
      </trkpt>
      <trkpt lat="43.66564" lon="3.90372">
        <ele>61.18</ele>
        <time>2014-10-26T14:02:06Z</time>
      </trkpt>
      <trkpt lat="43.6656" lon="3.90359">
        <ele>61.66</ele>
        <time>2014-10-26T14:02:07Z</time>
      </trkpt>
      <trkpt lat="43.66558" lon="3.90346">
        <ele>61.66</ele>
        <time>2014-10-26T14:02:08Z</time>
      </trkpt>
      <trkpt lat="43.66559" lon="3.90334">
        <ele>62.14</ele>
        <time>2014-10-26T14:02:09Z</time>
      </trkpt>
      <trkpt lat="43.66563" lon="3.90323">
        <ele>61.18</ele>
        <time>2014-10-26T14:02:10Z</time>
      </trkpt>
      <trkpt lat="43.66572" lon="3.90315">
        <ele>61.66</ele>
        <time>2014-10-26T14:02:11Z</time>
      </trkpt>
      <trkpt lat="43.66583" lon="3.90311">
        <ele>62.14</ele>
        <time>2014-10-26T14:02:12Z</time>
      </trkpt>
      <trkpt lat="43.66598" lon="3.90312">
        <ele>60.7</ele>
        <time>2014-10-26T14:02:13Z</time>
      </trkpt>
      <trkpt lat="43.66614" lon="3.90312">
        <ele>59.74</ele>
        <time>2014-10-26T14:02:14Z</time>
      </trkpt>
      <trkpt lat="43.66631" lon="3.90311">
        <ele>58.78</ele>
        <time>2014-10-26T14:02:15Z</time>
      </trkpt>
      <trkpt lat="43.66817" lon="3.90277">
        <ele>57.34</ele>
        <time>2014-10-26T14:02:25Z</time>
      </trkpt>
      <trkpt lat="43.66834" lon="3.90269">
        <ele>57.34</ele>
        <time>2014-10-26T14:02:26Z</time>
      </trkpt>
      <trkpt lat="43.66851" lon="3.90259">
        <ele>57.82</ele>
        <time>2014-10-26T14:02:27Z</time>
      </trkpt>
      <trkpt lat="43.66867" lon="3.90246">
        <ele>58.78</ele>
        <time>2014-10-26T14:02:28Z</time>
      </trkpt>
      <trkpt lat="43.66951" lon="3.9018">
        <ele>64.55</ele>
        <time>2014-10-26T14:02:34Z</time>
      </trkpt>
      <trkpt lat="43.66966" lon="3.90176">
        <ele>65.99</ele>
        <time>2014-10-26T14:02:35Z</time>
      </trkpt>
      <trkpt lat="43.66982" lon="3.90174">
        <ele>66.95</ele>
        <time>2014-10-26T14:02:36Z</time>
      </trkpt>
      <trkpt lat="43.67" lon="3.90175">
        <ele>68.39</ele>
        <time>2014-10-26T14:02:37Z</time>
      </trkpt>
      <trkpt lat="43.67018" lon="3.90177">
        <ele>70.31</ele>
        <time>2014-10-26T14:02:38Z</time>
      </trkpt>
      <trkpt lat="43.6711" lon="3.90198">
        <ele>76.56</ele>
        <time>2014-10-26T14:02:43Z</time>
      </trkpt>
      <trkpt lat="43.67127" lon="3.90196">
        <ele>76.56</ele>
        <time>2014-10-26T14:02:44Z</time>
      </trkpt>
      <trkpt lat="43.67144" lon="3.90193">
        <ele>77.04</ele>
        <time>2014-10-26T14:02:45Z</time>
      </trkpt>
      <trkpt lat="43.67161" lon="3.90189">
        <ele>77.04</ele>
        <time>2014-10-26T14:02:46Z</time>
      </trkpt>
      <trkpt lat="43.67179" lon="3.90184">
        <ele>76.08</ele>
        <time>2014-10-26T14:02:47Z</time>
      </trkpt>
      <trkpt lat="43.67314" lon="3.90149">
        <ele>75.12</ele>
        <time>2014-10-26T14:02:54Z</time>
      </trkpt>
      <trkpt lat="43.67333" lon="3.90152">
        <ele>75.12</ele>
        <time>2014-10-26T14:02:55Z</time>
      </trkpt>
      <trkpt lat="43.67352" lon="3.9016">
        <ele>74.64</ele>
        <time>2014-10-26T14:02:56Z</time>
      </trkpt>
      <trkpt lat="43.67494" lon="3.90215">
        <ele>71.76</ele>
        <time>2014-10-26T14:03:04Z</time>
      </trkpt>
      <trkpt lat="43.67511" lon="3.90216">
        <ele>71.27</ele>
        <time>2014-10-26T14:03:05Z</time>
      </trkpt>
      <trkpt lat="43.67529" lon="3.90213">
        <ele>70.79</ele>
        <time>2014-10-26T14:03:06Z</time>
      </trkpt>
      <trkpt lat="43.67547" lon="3.90207">
        <ele>70.31</ele>
        <time>2014-10-26T14:03:07Z</time>
      </trkpt>
      <trkpt lat="43.67566" lon="3.902">
        <ele>68.87</ele>
        <time>2014-10-26T14:03:08Z</time>
      </trkpt>
      <trkpt lat="43.67585" lon="3.90191">
        <ele>67.91</ele>
        <time>2014-10-26T14:03:09Z</time>
      </trkpt>
      <trkpt lat="43.67748" lon="3.90116">
        <ele>65.03</ele>
        <time>2014-10-26T14:03:19Z</time>
      </trkpt>
      <trkpt lat="43.67779" lon="3.90106">
        <ele>65.51</ele>
        <time>2014-10-26T14:03:22Z</time>
      </trkpt>
      <trkpt lat="43.67787" lon="3.90106">
        <ele>65.99</ele>
        <time>2014-10-26T14:03:23Z</time>
      </trkpt>
      <trkpt lat="43.67795" lon="3.90108">
        <ele>65.99</ele>
        <time>2014-10-26T14:03:24Z</time>
      </trkpt>
      <trkpt lat="43.67803" lon="3.90111">
        <ele>65.99</ele>
        <time>2014-10-26T14:03:25Z</time>
      </trkpt>
      <trkpt lat="43.67811" lon="3.90111">
        <ele>65.99</ele>
        <time>2014-10-26T14:03:26Z</time>
      </trkpt>
      <trkpt lat="43.67818" lon="3.90107">
        <ele>66.47</ele>
        <time>2014-10-26T14:03:27Z</time>
      </trkpt>
      <trkpt lat="43.67824" lon="3.901">
        <ele>65.99</ele>
        <time>2014-10-26T14:03:28Z</time>
      </trkpt>
      <trkpt lat="43.6783" lon="3.90092">
        <ele>65.51</ele>
        <time>2014-10-26T14:03:29Z</time>
      </trkpt>
      <trkpt lat="43.67839" lon="3.90083">
        <ele>65.51</ele>
        <time>2014-10-26T14:03:30Z</time>
      </trkpt>
      <trkpt lat="43.6785" lon="3.90076">
        <ele>65.51</ele>
        <time>2014-10-26T14:03:31Z</time>
      </trkpt>
      <trkpt lat="43.67864" lon="3.90072">
        <ele>65.99</ele>
        <time>2014-10-26T14:03:32Z</time>
      </trkpt>
      <trkpt lat="43.6788" lon="3.90068">
        <ele>65.51</ele>
        <time>2014-10-26T14:03:33Z</time>
      </trkpt>
      <trkpt lat="43.67898" lon="3.90064">
        <ele>65.51</ele>
        <time>2014-10-26T14:03:34Z</time>
      </trkpt>
      <trkpt lat="43.68041" lon="3.90025">
        <ele>65.99</ele>
        <time>2014-10-26T14:03:41Z</time>
      </trkpt>
      <trkpt lat="43.68232" lon="3.89909">
        <ele>67.91</ele>
        <time>2014-10-26T14:03:50Z</time>
      </trkpt>
      <trkpt lat="43.68254" lon="3.89901">
        <ele>68.39</ele>
        <time>2014-10-26T14:03:51Z</time>
      </trkpt>
      <trkpt lat="43.68277" lon="3.89896">
        <ele>68.87</ele>
        <time>2014-10-26T14:03:52Z</time>
      </trkpt>
      <trkpt lat="43.683" lon="3.89894">
        <ele>68.87</ele>
        <time>2014-10-26T14:03:53Z</time>
      </trkpt>
      <trkpt lat="43.68323" lon="3.89895">
        <ele>68.87</ele>
        <time>2014-10-26T14:03:54Z</time>
      </trkpt>
      <trkpt lat="43.68345" lon="3.89898">
        <ele>69.35</ele>
        <time>2014-10-26T14:03:55Z</time>
      </trkpt>
      <trkpt lat="43.68367" lon="3.89902">
        <ele>69.35</ele>
        <time>2014-10-26T14:03:56Z</time>
      </trkpt>
      <trkpt lat="43.68389" lon="3.8991">
        <ele>69.83</ele>
        <time>2014-10-26T14:03:57Z</time>
      </trkpt>
      <trkpt lat="43.68411" lon="3.89918">
        <ele>69.35</ele>
        <time>2014-10-26T14:03:58Z</time>
      </trkpt>
      <trkpt lat="43.6858" lon="3.89975">
        <ele>70.79</ele>
        <time>2014-10-26T14:04:06Z</time>
      </trkpt>
      <trkpt lat="43.68602" lon="3.89976">
        <ele>70.79</ele>
        <time>2014-10-26T14:04:07Z</time>
      </trkpt>
      <trkpt lat="43.68624" lon="3.89975">
        <ele>71.27</ele>
        <time>2014-10-26T14:04:08Z</time>
      </trkpt>
      <trkpt lat="43.68645" lon="3.89971">
        <ele>71.27</ele>
        <time>2014-10-26T14:04:09Z</time>
      </trkpt>
      <trkpt lat="43.68667" lon="3.89965">
        <ele>71.27</ele>
        <time>2014-10-26T14:04:10Z</time>
      </trkpt>
      <trkpt lat="43.68688" lon="3.89957">
        <ele>71.27</ele>
        <time>2014-10-26T14:04:11Z</time>
      </trkpt>
      <trkpt lat="43.68765" lon="3.89913">
        <ele>72.24</ele>
        <time>2014-10-26T14:04:15Z</time>
      </trkpt>
      <trkpt lat="43.68781" lon="3.89899">
        <ele>72.72</ele>
        <time>2014-10-26T14:04:16Z</time>
      </trkpt>
      <trkpt lat="43.68812" lon="3.89872">
        <ele>73.2</ele>
        <time>2014-10-26T14:04:18Z</time>
      </trkpt>
      <trkpt lat="43.6883" lon="3.89861">
        <ele>73.68</ele>
        <time>2014-10-26T14:04:19Z</time>
      </trkpt>
      <trkpt lat="43.6885" lon="3.89854">
        <ele>74.16</ele>
        <time>2014-10-26T14:04:20Z</time>
      </trkpt>
      <trkpt lat="43.68872" lon="3.89851">
        <ele>74.16</ele>
        <time>2014-10-26T14:04:21Z</time>
      </trkpt>
      <trkpt lat="43.68895" lon="3.89852">
        <ele>74.16</ele>
        <time>2014-10-26T14:04:22Z</time>
      </trkpt>
      <trkpt lat="43.68917" lon="3.89852">
        <ele>74.64</ele>
        <time>2014-10-26T14:04:23Z</time>
      </trkpt>
      <trkpt lat="43.69192" lon="3.89862">
        <ele>78</ele>
        <time>2014-10-26T14:04:35Z</time>
      </trkpt>
      <trkpt lat="43.69405" lon="3.8994">
        <ele>82.81</ele>
        <time>2014-10-26T14:04:45Z</time>
      </trkpt>
      <trkpt lat="43.69467" lon="3.89954">
        <ele>85.21</ele>
        <time>2014-10-26T14:04:48Z</time>
      </trkpt>
      <trkpt lat="43.69487" lon="3.89952">
        <ele>86.18</ele>
        <time>2014-10-26T14:04:49Z</time>
      </trkpt>
      <trkpt lat="43.69507" lon="3.89947">
        <ele>86.66</ele>
        <time>2014-10-26T14:04:50Z</time>
      </trkpt>
      <trkpt lat="43.69699" lon="3.89934">
        <ele>90.98</ele>
        <time>2014-10-26T14:04:59Z</time>
      </trkpt>
      <trkpt lat="43.69815" lon="3.89933">
        <ele>97.23</ele>
        <time>2014-10-26T14:05:06Z</time>
      </trkpt>
      <trkpt lat="43.69868" lon="3.89928">
        <ele>100.6</ele>
        <time>2014-10-26T14:05:13Z</time>
      </trkpt>
      <trkpt lat="43.6992" lon="3.89925">
        <ele>101.56</ele>
        <time>2014-10-26T14:05:21Z</time>
      </trkpt>
      <trkpt lat="43.69993" lon="3.89925">
        <ele>104.44</ele>
        <time>2014-10-26T14:05:30Z</time>
      </trkpt>
      <trkpt lat="43.70019" lon="3.89928">
        <ele>106.36</ele>
        <time>2014-10-26T14:05:35Z</time>
      </trkpt>
      <trkpt lat="43.70026" lon="3.8993">
        <ele>106.84</ele>
        <time>2014-10-26T14:05:36Z</time>
      </trkpt>
      <trkpt lat="43.70034" lon="3.89934">
        <ele>106.84</ele>
        <time>2014-10-26T14:05:37Z</time>
      </trkpt>
      <trkpt lat="43.70042" lon="3.89938">
        <ele>107.81</ele>
        <time>2014-10-26T14:05:38Z</time>
      </trkpt>
      <trkpt lat="43.70049" lon="3.89944">
        <ele>108.29</ele>
        <time>2014-10-26T14:05:39Z</time>
      </trkpt>
      <trkpt lat="43.70126" lon="3.89987">
        <ele>110.69</ele>
        <time>2014-10-26T14:05:50Z</time>
      </trkpt>
      <trkpt lat="43.7019" lon="3.90015">
        <ele>112.13</ele>
        <time>2014-10-26T14:06:01Z</time>
      </trkpt>
      <trkpt lat="43.70217" lon="3.90015">
        <ele>111.17</ele>
        <time>2014-10-26T14:06:09Z</time>
      </trkpt>
      <trkpt lat="43.70233" lon="3.90013">
        <ele>112.13</ele>
        <time>2014-10-26T14:06:12Z</time>
      </trkpt>
      <trkpt lat="43.70243" lon="3.90015">
        <ele>112.61</ele>
        <time>2014-10-26T14:06:14Z</time>
      </trkpt>
      <trkpt lat="43.70326" lon="3.90027">
        <ele>117.9</ele>
        <time>2014-10-26T14:06:29Z</time>
      </trkpt>
      <trkpt lat="43.70406" lon="3.90048">
        <ele>114.53</ele>
        <time>2014-10-26T14:06:41Z</time>
      </trkpt>
      <trkpt lat="43.70504" lon="3.90076">
        <ele>107.32</ele>
        <time>2014-10-26T14:06:52Z</time>
      </trkpt>
      <trkpt lat="43.70568" lon="3.90093">
        <ele>105.88</ele>
        <time>2014-10-26T14:06:59Z</time>
      </trkpt>
      <trkpt lat="43.70575" lon="3.90099">
        <ele>106.36</ele>
        <time>2014-10-26T14:07:00Z</time>
      </trkpt>
      <trkpt lat="43.70581" lon="3.90106">
        <ele>106.36</ele>
        <time>2014-10-26T14:07:01Z</time>
      </trkpt>
      <trkpt lat="43.70588" lon="3.90111">
        <ele>106.36</ele>
        <time>2014-10-26T14:07:02Z</time>
      </trkpt>
      <trkpt lat="43.70595" lon="3.90111">
        <ele>106.36</ele>
        <time>2014-10-26T14:07:03Z</time>
      </trkpt>
      <trkpt lat="43.706" lon="3.90108">
        <ele>106.36</ele>
        <time>2014-10-26T14:07:04Z</time>
      </trkpt>
      <trkpt lat="43.70604" lon="3.90101">
        <ele>106.36</ele>
        <time>2014-10-26T14:07:05Z</time>
      </trkpt>
      <trkpt lat="43.70606" lon="3.90092">
        <ele>106.36</ele>
        <time>2014-10-26T14:07:06Z</time>
      </trkpt>
      <trkpt lat="43.70605" lon="3.90084">
        <ele>106.36</ele>
        <time>2014-10-26T14:07:07Z</time>
      </trkpt>
      <trkpt lat="43.70602" lon="3.90077">
        <ele>105.88</ele>
        <time>2014-10-26T14:07:08Z</time>
      </trkpt>
      <trkpt lat="43.70597" lon="3.90073">
        <ele>105.4</ele>
        <time>2014-10-26T14:07:09Z</time>
      </trkpt>
      <trkpt lat="43.70591" lon="3.9007">
        <ele>105.4</ele>
        <time>2014-10-26T14:07:10Z</time>
      </trkpt>
      <trkpt lat="43.70585" lon="3.90071">
        <ele>105.4</ele>
        <time>2014-10-26T14:07:11Z</time>
      </trkpt>
      <trkpt lat="43.70579" lon="3.90075">
        <ele>104.92</ele>
        <time>2014-10-26T14:07:12Z</time>
      </trkpt>
      <trkpt lat="43.70576" lon="3.90082">
        <ele>104.44</ele>
        <time>2014-10-26T14:07:13Z</time>
      </trkpt>
      <trkpt lat="43.70574" lon="3.90091">
        <ele>104.92</ele>
        <time>2014-10-26T14:07:14Z</time>
      </trkpt>
      <trkpt lat="43.70576" lon="3.901">
        <ele>104.44</ele>
        <time>2014-10-26T14:07:15Z</time>
      </trkpt>
      <trkpt lat="43.7058" lon="3.90107">
        <ele>104.92</ele>
        <time>2014-10-26T14:07:16Z</time>
      </trkpt>
      <trkpt lat="43.70587" lon="3.90111">
        <ele>104.92</ele>
        <time>2014-10-26T14:07:17Z</time>
      </trkpt>
      <trkpt lat="43.70595" lon="3.90115">
        <ele>105.4</ele>
        <time>2014-10-26T14:07:18Z</time>
      </trkpt>
      <trkpt lat="43.70603" lon="3.90122">
        <ele>105.4</ele>
        <time>2014-10-26T14:07:19Z</time>
      </trkpt>
      <trkpt lat="43.70612" lon="3.90132">
        <ele>105.88</ele>
        <time>2014-10-26T14:07:20Z</time>
      </trkpt>
      <trkpt lat="43.7062" lon="3.90144">
        <ele>106.36</ele>
        <time>2014-10-26T14:07:21Z</time>
      </trkpt>
      <trkpt lat="43.70638" lon="3.90164">
        <ele>106.36</ele>
        <time>2014-10-26T14:07:23Z</time>
      </trkpt>
      <trkpt lat="43.70648" lon="3.90172">
        <ele>106.36</ele>
        <time>2014-10-26T14:07:24Z</time>
      </trkpt>
      <trkpt lat="43.70658" lon="3.9018">
        <ele>106.36</ele>
        <time>2014-10-26T14:07:25Z</time>
      </trkpt>
      <trkpt lat="43.70735" lon="3.90223">
        <ele>103.96</ele>
        <time>2014-10-26T14:07:34Z</time>
      </trkpt>
      <trkpt lat="43.70816" lon="3.9025">
        <ele>101.08</ele>
        <time>2014-10-26T14:07:42Z</time>
      </trkpt>
      <trkpt lat="43.70918" lon="3.90276">
        <ele>99.63</ele>
        <time>2014-10-26T14:07:51Z</time>
      </trkpt>
      <trkpt lat="43.71048" lon="3.90337">
        <ele>101.08</ele>
        <time>2014-10-26T14:07:58Z</time>
      </trkpt>
      <trkpt lat="43.71175" lon="3.90408">
        <ele>98.19</ele>
        <time>2014-10-26T14:08:05Z</time>
      </trkpt>
      <trkpt lat="43.71387" lon="3.90485">
        <ele>90.5</ele>
        <time>2014-10-26T14:08:16Z</time>
      </trkpt>
      <trkpt lat="43.71599" lon="3.90629">
        <ele>89.54</ele>
        <time>2014-10-26T14:08:27Z</time>
      </trkpt>
      <trkpt lat="43.7162" lon="3.90635">
        <ele>89.54</ele>
        <time>2014-10-26T14:08:28Z</time>
      </trkpt>
      <trkpt lat="43.71805" lon="3.90704">
        <ele>90.02</ele>
        <time>2014-10-26T14:08:37Z</time>
      </trkpt>
      <trkpt lat="43.71894" lon="3.9078">
        <ele>92.9</ele>
        <time>2014-10-26T14:08:43Z</time>
      </trkpt>
      <trkpt lat="43.71921" lon="3.90805">
        <ele>93.87</ele>
        <time>2014-10-26T14:08:47Z</time>
      </trkpt>
      <trkpt lat="43.71924" lon="3.90812">
        <ele>93.87</ele>
        <time>2014-10-26T14:08:48Z</time>
      </trkpt>
      <trkpt lat="43.71929" lon="3.9082">
        <ele>93.87</ele>
        <time>2014-10-26T14:08:49Z</time>
      </trkpt>
      <trkpt lat="43.71935" lon="3.90827">
        <ele>93.87</ele>
        <time>2014-10-26T14:08:50Z</time>
      </trkpt>
      <trkpt lat="43.71943" lon="3.9083">
        <ele>93.87</ele>
        <time>2014-10-26T14:08:51Z</time>
      </trkpt>
      <trkpt lat="43.71953" lon="3.90832">
        <ele>93.87</ele>
        <time>2014-10-26T14:08:52Z</time>
      </trkpt>
      <trkpt lat="43.71963" lon="3.90835">
        <ele>93.87</ele>
        <time>2014-10-26T14:08:53Z</time>
      </trkpt>
      <trkpt lat="43.71974" lon="3.90842">
        <ele>93.39</ele>
        <time>2014-10-26T14:08:54Z</time>
      </trkpt>
      <trkpt lat="43.71985" lon="3.90852">
        <ele>93.39</ele>
        <time>2014-10-26T14:08:55Z</time>
      </trkpt>
      <trkpt lat="43.72078" lon="3.90971">
        <ele>94.35</ele>
        <time>2014-10-26T14:09:04Z</time>
      </trkpt>
      <trkpt lat="43.72185" lon="3.91053">
        <ele>98.19</ele>
        <time>2014-10-26T14:09:11Z</time>
      </trkpt>
      <trkpt lat="43.72426" lon="3.91196">
        <ele>102.04</ele>
        <time>2014-10-26T14:09:25Z</time>
      </trkpt>
      <trkpt lat="43.72548" lon="3.91256">
        <ele>101.08</ele>
        <time>2014-10-26T14:09:33Z</time>
      </trkpt>
      <trkpt lat="43.72721" lon="3.91306">
        <ele>103</ele>
        <time>2014-10-26T14:09:41Z</time>
      </trkpt>
      <trkpt lat="43.7291" lon="3.91352">
        <ele>106.36</ele>
        <time>2014-10-26T14:09:50Z</time>
      </trkpt>
      <trkpt lat="43.72931" lon="3.9135">
        <ele>106.36</ele>
        <time>2014-10-26T14:09:51Z</time>
      </trkpt>
      <trkpt lat="43.73261" lon="3.9131">
        <ele>113.57</ele>
        <time>2014-10-26T14:10:06Z</time>
      </trkpt>
      <trkpt lat="43.73449" lon="3.91237">
        <ele>118.86</ele>
        <time>2014-10-26T14:10:15Z</time>
      </trkpt>
      <trkpt lat="43.7357" lon="3.91204">
        <ele>122.71</ele>
        <time>2014-10-26T14:10:22Z</time>
      </trkpt>
      <trkpt lat="43.73584" lon="3.91201">
        <ele>122.71</ele>
        <time>2014-10-26T14:10:23Z</time>
      </trkpt>
      <trkpt lat="43.73598" lon="3.91195">
        <ele>122.71</ele>
        <time>2014-10-26T14:10:24Z</time>
      </trkpt>
      <trkpt lat="43.73612" lon="3.91186">
        <ele>122.22</ele>
        <time>2014-10-26T14:10:25Z</time>
      </trkpt>
      <trkpt lat="43.73624" lon="3.91174">
        <ele>121.26</ele>
        <time>2014-10-26T14:10:26Z</time>
      </trkpt>
      <trkpt lat="43.73637" lon="3.9116">
        <ele>120.3</ele>
        <time>2014-10-26T14:10:27Z</time>
      </trkpt>
      <trkpt lat="43.7382" lon="3.90949">
        <ele>124.63</ele>
        <time>2014-10-26T14:10:40Z</time>
      </trkpt>
      <trkpt lat="43.74003" lon="3.90778">
        <ele>125.59</ele>
        <time>2014-10-26T14:10:51Z</time>
      </trkpt>
      <trkpt lat="43.74193" lon="3.90675">
        <ele>127.03</ele>
        <time>2014-10-26T14:11:00Z</time>
      </trkpt>
      <trkpt lat="43.74287" lon="3.90648">
        <ele>129.92</ele>
        <time>2014-10-26T14:11:06Z</time>
      </trkpt>
      <trkpt lat="43.74311" lon="3.90641">
        <ele>130.4</ele>
        <time>2014-10-26T14:11:09Z</time>
      </trkpt>
      <trkpt lat="43.74317" lon="3.90635">
        <ele>129.92</ele>
        <time>2014-10-26T14:11:10Z</time>
      </trkpt>
      <trkpt lat="43.74323" lon="3.90627">
        <ele>129.43</ele>
        <time>2014-10-26T14:11:11Z</time>
      </trkpt>
      <trkpt lat="43.74388" lon="3.90535">
        <ele>126.07</ele>
        <time>2014-10-26T14:11:18Z</time>
      </trkpt>
      <trkpt lat="43.74508" lon="3.90353">
        <ele>121.26</ele>
        <time>2014-10-26T14:11:28Z</time>
      </trkpt>
      <trkpt lat="43.74564" lon="3.90227">
        <ele>118.38</ele>
        <time>2014-10-26T14:11:34Z</time>
      </trkpt>
      <trkpt lat="43.74566" lon="3.90204">
        <ele>117.9</ele>
        <time>2014-10-26T14:11:35Z</time>
      </trkpt>
      <trkpt lat="43.74566" lon="3.90182">
        <ele>116.94</ele>
        <time>2014-10-26T14:11:36Z</time>
      </trkpt>
      <trkpt lat="43.74563" lon="3.9016">
        <ele>115.98</ele>
        <time>2014-10-26T14:11:37Z</time>
      </trkpt>
      <trkpt lat="43.74561" lon="3.90139">
        <ele>115.5</ele>
        <time>2014-10-26T14:11:38Z</time>
      </trkpt>
      <trkpt lat="43.7455" lon="3.90039">
        <ele>113.57</ele>
        <time>2014-10-26T14:11:43Z</time>
      </trkpt>
      <trkpt lat="43.74553" lon="3.90018">
        <ele>113.09</ele>
        <time>2014-10-26T14:11:44Z</time>
      </trkpt>
      <trkpt lat="43.74558" lon="3.89998">
        <ele>112.61</ele>
        <time>2014-10-26T14:11:45Z</time>
      </trkpt>
      <trkpt lat="43.74567" lon="3.8998">
        <ele>112.13</ele>
        <time>2014-10-26T14:11:46Z</time>
      </trkpt>
      <trkpt lat="43.74579" lon="3.89963">
        <ele>112.13</ele>
        <time>2014-10-26T14:11:47Z</time>
      </trkpt>
      <trkpt lat="43.74593" lon="3.89949">
        <ele>112.13</ele>
        <time>2014-10-26T14:11:48Z</time>
      </trkpt>
      <trkpt lat="43.7461" lon="3.89938">
        <ele>112.61</ele>
        <time>2014-10-26T14:11:49Z</time>
      </trkpt>
      <trkpt lat="43.74627" lon="3.89928">
        <ele>112.61</ele>
        <time>2014-10-26T14:11:50Z</time>
      </trkpt>
      <trkpt lat="43.74643" lon="3.89919">
        <ele>112.13</ele>
        <time>2014-10-26T14:11:51Z</time>
      </trkpt>
      <trkpt lat="43.74807" lon="3.89814">
        <ele>112.61</ele>
        <time>2014-10-26T14:12:01Z</time>
      </trkpt>
      <trkpt lat="43.74955" lon="3.89662">
        <ele>115.01</ele>
        <time>2014-10-26T14:12:09Z</time>
      </trkpt>
      <trkpt lat="43.75208" lon="3.89372">
        <ele>112.13</ele>
        <time>2014-10-26T14:12:22Z</time>
      </trkpt>
      <trkpt lat="43.7543" lon="3.89134">
        <ele>110.21</ele>
        <time>2014-10-26T14:12:34Z</time>
      </trkpt>
      <trkpt lat="43.75638" lon="3.88988">
        <ele>108.77</ele>
        <time>2014-10-26T14:12:44Z</time>
      </trkpt>
      <trkpt lat="43.75775" lon="3.88867">
        <ele>107.81</ele>
        <time>2014-10-26T14:12:52Z</time>
      </trkpt>
      <trkpt lat="43.75922" lon="3.88737">
        <ele>107.32</ele>
        <time>2014-10-26T14:13:01Z</time>
      </trkpt>
      <trkpt lat="43.76016" lon="3.88663">
        <ele>106.84</ele>
        <time>2014-10-26T14:13:07Z</time>
      </trkpt>
      <trkpt lat="43.76026" lon="3.88649">
        <ele>106.36</ele>
        <time>2014-10-26T14:13:08Z</time>
      </trkpt>
      <trkpt lat="43.76034" lon="3.88633">
        <ele>105.88</ele>
        <time>2014-10-26T14:13:09Z</time>
      </trkpt>
      <trkpt lat="43.76039" lon="3.88612">
        <ele>105.4</ele>
        <time>2014-10-26T14:13:10Z</time>
      </trkpt>
      <trkpt lat="43.76043" lon="3.88591">
        <ele>104.92</ele>
        <time>2014-10-26T14:13:11Z</time>
      </trkpt>
      <trkpt lat="43.76046" lon="3.8857">
        <ele>104.44</ele>
        <time>2014-10-26T14:13:12Z</time>
      </trkpt>
      <trkpt lat="43.76058" lon="3.8851">
        <ele>103</ele>
        <time>2014-10-26T14:13:15Z</time>
      </trkpt>
      <trkpt lat="43.76066" lon="3.88491">
        <ele>102.52</ele>
        <time>2014-10-26T14:13:16Z</time>
      </trkpt>
      <trkpt lat="43.76076" lon="3.88473">
        <ele>102.04</ele>
        <time>2014-10-26T14:13:17Z</time>
      </trkpt>
      <trkpt lat="43.76088" lon="3.88455">
        <ele>101.56</ele>
        <time>2014-10-26T14:13:18Z</time>
      </trkpt>
      <trkpt lat="43.761" lon="3.88436">
        <ele>101.56</ele>
        <time>2014-10-26T14:13:19Z</time>
      </trkpt>
      <trkpt lat="43.76253" lon="3.88209">
        <ele>99.15</ele>
        <time>2014-10-26T14:13:30Z</time>
      </trkpt>
      <trkpt lat="43.76353" lon="3.88047">
        <ele>98.19</ele>
        <time>2014-10-26T14:13:39Z</time>
      </trkpt>
      <trkpt lat="43.76437" lon="3.8794">
        <ele>98.19</ele>
        <time>2014-10-26T14:13:45Z</time>
      </trkpt>
      <trkpt lat="43.7656" lon="3.87825">
        <ele>98.19</ele>
        <time>2014-10-26T14:13:51Z</time>
      </trkpt>
      <trkpt lat="43.76697" lon="3.87732">
        <ele>101.08</ele>
        <time>2014-10-26T14:13:59Z</time>
      </trkpt>
      <trkpt lat="43.76843" lon="3.87644">
        <ele>100.11</ele>
        <time>2014-10-26T14:14:08Z</time>
      </trkpt>
      <trkpt lat="43.76856" lon="3.87629">
        <ele>99.63</ele>
        <time>2014-10-26T14:14:09Z</time>
      </trkpt>
      <trkpt lat="43.76867" lon="3.87611">
        <ele>99.15</ele>
        <time>2014-10-26T14:14:10Z</time>
      </trkpt>
      <trkpt lat="43.76877" lon="3.8759">
        <ele>99.15</ele>
        <time>2014-10-26T14:14:11Z</time>
      </trkpt>
      <trkpt lat="43.76887" lon="3.87568">
        <ele>99.15</ele>
        <time>2014-10-26T14:14:12Z</time>
      </trkpt>
      <trkpt lat="43.76968" lon="3.87321">
        <ele>98.19</ele>
        <time>2014-10-26T14:14:22Z</time>
      </trkpt>
      <trkpt lat="43.76972" lon="3.87297">
        <ele>98.19</ele>
        <time>2014-10-26T14:14:23Z</time>
      </trkpt>
      <trkpt lat="43.76975" lon="3.87273">
        <ele>97.71</ele>
        <time>2014-10-26T14:14:24Z</time>
      </trkpt>
      <trkpt lat="43.76985" lon="3.87178">
        <ele>97.23</ele>
        <time>2014-10-26T14:14:29Z</time>
      </trkpt>
      <trkpt lat="43.76988" lon="3.87164">
        <ele>97.23</ele>
        <time>2014-10-26T14:14:30Z</time>
      </trkpt>
      <trkpt lat="43.76993" lon="3.87151">
        <ele>97.23</ele>
        <time>2014-10-26T14:14:31Z</time>
      </trkpt>
      <trkpt lat="43.77019" lon="3.87101">
        <ele>97.23</ele>
        <time>2014-10-26T14:14:38Z</time>
      </trkpt>
      <trkpt lat="43.77023" lon="3.87088">
        <ele>97.71</ele>
        <time>2014-10-26T14:14:42Z</time>
      </trkpt>
      <trkpt lat="43.77022" lon="3.87082">
        <ele>97.71</ele>
        <time>2014-10-26T14:14:43Z</time>
      </trkpt>
      <trkpt lat="43.77019" lon="3.87076">
        <ele>97.71</ele>
        <time>2014-10-26T14:14:44Z</time>
      </trkpt>
      <trkpt lat="43.77006" lon="3.87048">
        <ele>97.71</ele>
        <time>2014-10-26T14:14:48Z</time>
      </trkpt>
      <trkpt lat="43.76987" lon="3.87016">
        <ele>97.71</ele>
        <time>2014-10-26T14:14:52Z</time>
      </trkpt>
      <trkpt lat="43.76968" lon="3.86989">
        <ele>97.71</ele>
        <time>2014-10-26T14:14:56Z</time>
      </trkpt>
      <trkpt lat="43.76965" lon="3.8698">
        <ele>97.71</ele>
        <time>2014-10-26T14:14:57Z</time>
      </trkpt>
      <trkpt lat="43.76964" lon="3.86971">
        <ele>97.71</ele>
        <time>2014-10-26T14:14:58Z</time>
      </trkpt>
      <trkpt lat="43.76964" lon="3.86929">
        <ele>96.27</ele>
        <time>2014-10-26T14:15:03Z</time>
      </trkpt>
      <trkpt lat="43.76965" lon="3.8692">
        <ele>96.27</ele>
        <time>2014-10-26T14:15:04Z</time>
      </trkpt>
      <trkpt lat="43.76968" lon="3.86911">
        <ele>95.79</ele>
        <time>2014-10-26T14:15:05Z</time>
      </trkpt>
      <trkpt lat="43.76971" lon="3.86902">
        <ele>95.31</ele>
        <time>2014-10-26T14:15:06Z</time>
      </trkpt>
      <trkpt lat="43.76974" lon="3.86892">
        <ele>94.83</ele>
        <time>2014-10-26T14:15:07Z</time>
      </trkpt>
      <trkpt lat="43.76994" lon="3.86832">
        <ele>96.75</ele>
        <time>2014-10-26T14:15:17Z</time>
      </trkpt>
      <trkpt lat="43.76997" lon="3.86829">
        <ele>93.87</ele>
        <time>2014-10-26T14:16:03Z</time>
      </trkpt>
      <trkpt lat="43.76999" lon="3.86826">
        <ele>94.35</ele>
        <time>2014-10-26T14:16:04Z</time>
      </trkpt>
      <trkpt lat="43.77002" lon="3.86823">
        <ele>94.83</ele>
        <time>2014-10-26T14:16:05Z</time>
      </trkpt>
      <trkpt lat="43.77006" lon="3.86823">
        <ele>95.31</ele>
        <time>2014-10-26T14:16:06Z</time>
      </trkpt>
      <trkpt lat="43.7701" lon="3.86824">
        <ele>95.31</ele>
        <time>2014-10-26T14:16:07Z</time>
      </trkpt>
      <trkpt lat="43.77016" lon="3.86827">
        <ele>95.31</ele>
        <time>2014-10-26T14:16:08Z</time>
      </trkpt>
      <trkpt lat="43.77068" lon="3.86848">
        <ele>95.79</ele>
        <time>2014-10-26T14:16:16Z</time>
      </trkpt>
      <trkpt lat="43.77156" lon="3.86882">
        <ele>97.71</ele>
        <time>2014-10-26T14:16:26Z</time>
      </trkpt>
      <trkpt lat="43.77246" lon="3.86914">
        <ele>102.04</ele>
        <time>2014-10-26T14:16:35Z</time>
      </trkpt>
      <trkpt lat="43.77361" lon="3.86951">
        <ele>107.32</ele>
        <time>2014-10-26T14:16:46Z</time>
      </trkpt>
      <trkpt lat="43.77378" lon="3.86955">
        <ele>108.29</ele>
        <time>2014-10-26T14:16:48Z</time>
      </trkpt>
      <trkpt lat="43.77385" lon="3.86959">
        <ele>108.29</ele>
        <time>2014-10-26T14:16:49Z</time>
      </trkpt>
      <trkpt lat="43.77391" lon="3.86964">
        <ele>108.29</ele>
        <time>2014-10-26T14:16:50Z</time>
      </trkpt>
      <trkpt lat="43.77394" lon="3.86972">
        <ele>108.29</ele>
        <time>2014-10-26T14:16:51Z</time>
      </trkpt>
      <trkpt lat="43.77397" lon="3.86982">
        <ele>108.77</ele>
        <time>2014-10-26T14:16:52Z</time>
      </trkpt>
      <trkpt lat="43.77399" lon="3.86993">
        <ele>109.25</ele>
        <time>2014-10-26T14:16:53Z</time>
      </trkpt>
      <trkpt lat="43.77402" lon="3.87005">
        <ele>109.25</ele>
        <time>2014-10-26T14:16:54Z</time>
      </trkpt>
      <trkpt lat="43.77407" lon="3.87016">
        <ele>109.25</ele>
        <time>2014-10-26T14:16:55Z</time>
      </trkpt>
      <trkpt lat="43.77412" lon="3.87025">
        <ele>109.25</ele>
        <time>2014-10-26T14:16:56Z</time>
      </trkpt>
      <trkpt lat="43.77419" lon="3.87032">
        <ele>108.77</ele>
        <time>2014-10-26T14:16:57Z</time>
      </trkpt>
      <trkpt lat="43.77427" lon="3.87034">
        <ele>108.77</ele>
        <time>2014-10-26T14:16:58Z</time>
      </trkpt>
      <trkpt lat="43.77436" lon="3.87033">
        <ele>108.77</ele>
        <time>2014-10-26T14:16:59Z</time>
      </trkpt>
      <trkpt lat="43.77443" lon="3.87029">
        <ele>108.77</ele>
        <time>2014-10-26T14:17:00Z</time>
      </trkpt>
      <trkpt lat="43.7745" lon="3.87024">
        <ele>109.25</ele>
        <time>2014-10-26T14:17:01Z</time>
      </trkpt>
      <trkpt lat="43.77456" lon="3.87017">
        <ele>108.77</ele>
        <time>2014-10-26T14:17:02Z</time>
      </trkpt>
      <trkpt lat="43.77461" lon="3.87007">
        <ele>108.77</ele>
        <time>2014-10-26T14:17:03Z</time>
      </trkpt>
      <trkpt lat="43.77463" lon="3.86997">
        <ele>108.77</ele>
        <time>2014-10-26T14:17:04Z</time>
      </trkpt>
      <trkpt lat="43.77464" lon="3.86986">
        <ele>108.29</ele>
        <time>2014-10-26T14:17:05Z</time>
      </trkpt>
      <trkpt lat="43.77463" lon="3.86974">
        <ele>108.29</ele>
        <time>2014-10-26T14:17:06Z</time>
      </trkpt>
      <trkpt lat="43.77461" lon="3.86962">
        <ele>107.81</ele>
        <time>2014-10-26T14:17:07Z</time>
      </trkpt>
      <trkpt lat="43.77457" lon="3.86951">
        <ele>107.81</ele>
        <time>2014-10-26T14:17:08Z</time>
      </trkpt>
      <trkpt lat="43.77454" lon="3.86939">
        <ele>107.81</ele>
        <time>2014-10-26T14:17:09Z</time>
      </trkpt>
      <trkpt lat="43.77453" lon="3.86925">
        <ele>107.32</ele>
        <time>2014-10-26T14:17:10Z</time>
      </trkpt>
      <trkpt lat="43.77453" lon="3.8691">
        <ele>108.29</ele>
        <time>2014-10-26T14:17:11Z</time>
      </trkpt>
      <trkpt lat="43.77455" lon="3.86894">
        <ele>108.29</ele>
        <time>2014-10-26T14:17:12Z</time>
      </trkpt>
      <trkpt lat="43.77458" lon="3.86876">
        <ele>108.77</ele>
        <time>2014-10-26T14:17:13Z</time>
      </trkpt>
      <trkpt lat="43.775" lon="3.86726">
        <ele>107.32</ele>
        <time>2014-10-26T14:17:20Z</time>
      </trkpt>
      <trkpt lat="43.77605" lon="3.86378">
        <ele>103.48</ele>
        <time>2014-10-26T14:17:35Z</time>
      </trkpt>
      <trkpt lat="43.77685" lon="3.86119">
        <ele>108.29</ele>
        <time>2014-10-26T14:17:45Z</time>
      </trkpt>
      <trkpt lat="43.77769" lon="3.85844">
        <ele>114.05</ele>
        <time>2014-10-26T14:17:56Z</time>
      </trkpt>
      <trkpt lat="43.77779" lon="3.85823">
        <ele>114.53</ele>
        <time>2014-10-26T14:17:57Z</time>
      </trkpt>
      <trkpt lat="43.77791" lon="3.85804">
        <ele>115.01</ele>
        <time>2014-10-26T14:17:58Z</time>
      </trkpt>
      <trkpt lat="43.77804" lon="3.85788">
        <ele>115.5</ele>
        <time>2014-10-26T14:17:59Z</time>
      </trkpt>
      <trkpt lat="43.77818" lon="3.85773">
        <ele>115.5</ele>
        <time>2014-10-26T14:18:00Z</time>
      </trkpt>
      <trkpt lat="43.77919" lon="3.8567">
        <ele>116.46</ele>
        <time>2014-10-26T14:18:08Z</time>
      </trkpt>
      <trkpt lat="43.77933" lon="3.85666">
        <ele>116.46</ele>
        <time>2014-10-26T14:18:09Z</time>
      </trkpt>
      <trkpt lat="43.77948" lon="3.85667">
        <ele>116.94</ele>
        <time>2014-10-26T14:18:10Z</time>
      </trkpt>
      <trkpt lat="43.77962" lon="3.85671">
        <ele>116.94</ele>
        <time>2014-10-26T14:18:11Z</time>
      </trkpt>
      <trkpt lat="43.77977" lon="3.85678">
        <ele>117.42</ele>
        <time>2014-10-26T14:18:12Z</time>
      </trkpt>
      <trkpt lat="43.77993" lon="3.85687">
        <ele>116.46</ele>
        <time>2014-10-26T14:18:13Z</time>
      </trkpt>
      <trkpt lat="43.78192" lon="3.85771">
        <ele>117.9</ele>
        <time>2014-10-26T14:18:25Z</time>
      </trkpt>
      <trkpt lat="43.78372" lon="3.85808">
        <ele>116.46</ele>
        <time>2014-10-26T14:18:35Z</time>
      </trkpt>
      <trkpt lat="43.78405" lon="3.85812">
        <ele>116.94</ele>
        <time>2014-10-26T14:18:37Z</time>
      </trkpt>
      <trkpt lat="43.78421" lon="3.8581">
        <ele>117.42</ele>
        <time>2014-10-26T14:18:38Z</time>
      </trkpt>
      <trkpt lat="43.78585" lon="3.85772">
        <ele>117.9</ele>
        <time>2014-10-26T14:18:48Z</time>
      </trkpt>
      <trkpt lat="43.78786" lon="3.85723">
        <ele>117.9</ele>
        <time>2014-10-26T14:18:59Z</time>
      </trkpt>
      <trkpt lat="43.78959" lon="3.85678">
        <ele>119.82</ele>
        <time>2014-10-26T14:19:09Z</time>
      </trkpt>
      <trkpt lat="43.78975" lon="3.85669">
        <ele>119.82</ele>
        <time>2014-10-26T14:19:10Z</time>
      </trkpt>
      <trkpt lat="43.7899" lon="3.85658">
        <ele>120.3</ele>
        <time>2014-10-26T14:19:11Z</time>
      </trkpt>
      <trkpt lat="43.79005" lon="3.85644">
        <ele>120.3</ele>
        <time>2014-10-26T14:19:12Z</time>
      </trkpt>
      <trkpt lat="43.79018" lon="3.85629">
        <ele>120.3</ele>
        <time>2014-10-26T14:19:13Z</time>
      </trkpt>
      <trkpt lat="43.79031" lon="3.85611">
        <ele>120.3</ele>
        <time>2014-10-26T14:19:14Z</time>
      </trkpt>
      <trkpt lat="43.79042" lon="3.85592">
        <ele>120.3</ele>
        <time>2014-10-26T14:19:15Z</time>
      </trkpt>
      <trkpt lat="43.79051" lon="3.85571">
        <ele>120.3</ele>
        <time>2014-10-26T14:19:16Z</time>
      </trkpt>
      <trkpt lat="43.79059" lon="3.85549">
        <ele>120.3</ele>
        <time>2014-10-26T14:19:17Z</time>
      </trkpt>
      <trkpt lat="43.79065" lon="3.85525">
        <ele>120.3</ele>
        <time>2014-10-26T14:19:18Z</time>
      </trkpt>
      <trkpt lat="43.7907" lon="3.85501">
        <ele>121.26</ele>
        <time>2014-10-26T14:19:19Z</time>
      </trkpt>
      <trkpt lat="43.79073" lon="3.85476">
        <ele>121.26</ele>
        <time>2014-10-26T14:19:20Z</time>
      </trkpt>
      <trkpt lat="43.79076" lon="3.85451">
        <ele>121.26</ele>
        <time>2014-10-26T14:19:21Z</time>
      </trkpt>
      <trkpt lat="43.79103" lon="3.85094">
        <ele>124.15</ele>
        <time>2014-10-26T14:19:35Z</time>
      </trkpt>
      <trkpt lat="43.79104" lon="3.85029">
        <ele>125.11</ele>
        <time>2014-10-26T14:19:38Z</time>
      </trkpt>
      <trkpt lat="43.79101" lon="3.85007">
        <ele>125.11</ele>
        <time>2014-10-26T14:19:39Z</time>
      </trkpt>
      <trkpt lat="43.79097" lon="3.84985">
        <ele>125.59</ele>
        <time>2014-10-26T14:19:40Z</time>
      </trkpt>
      <trkpt lat="43.79092" lon="3.84962">
        <ele>125.59</ele>
        <time>2014-10-26T14:19:41Z</time>
      </trkpt>
      <trkpt lat="43.79087" lon="3.8494">
        <ele>125.59</ele>
        <time>2014-10-26T14:19:42Z</time>
      </trkpt>
      <trkpt lat="43.79016" lon="3.84682">
        <ele>126.07</ele>
        <time>2014-10-26T14:19:52Z</time>
      </trkpt>
      <trkpt lat="43.7891" lon="3.84258">
        <ele>132.8</ele>
        <time>2014-10-26T14:20:08Z</time>
      </trkpt>
      <trkpt lat="43.78846" lon="3.83886">
        <ele>144.34</ele>
        <time>2014-10-26T14:20:20Z</time>
      </trkpt>
      <trkpt lat="43.78788" lon="3.83542">
        <ele>154.91</ele>
        <time>2014-10-26T14:20:32Z</time>
      </trkpt>
      <trkpt lat="43.78788" lon="3.83514">
        <ele>155.39</ele>
        <time>2014-10-26T14:20:33Z</time>
      </trkpt>
      <trkpt lat="43.78791" lon="3.83486">
        <ele>155.87</ele>
        <time>2014-10-26T14:20:34Z</time>
      </trkpt>
      <trkpt lat="43.78796" lon="3.83456">
        <ele>156.83</ele>
        <time>2014-10-26T14:20:35Z</time>
      </trkpt>
      <trkpt lat="43.78802" lon="3.83427">
        <ele>157.79</ele>
        <time>2014-10-26T14:20:36Z</time>
      </trkpt>
      <trkpt lat="43.78827" lon="3.8323">
        <ele>162.12</ele>
        <time>2014-10-26T14:20:43Z</time>
      </trkpt>
      <trkpt lat="43.78856" lon="3.83049">
        <ele>167.89</ele>
        <time>2014-10-26T14:20:50Z</time>
      </trkpt>
      <trkpt lat="43.78913" lon="3.82879">
        <ele>175.1</ele>
        <time>2014-10-26T14:20:58Z</time>
      </trkpt>
      <trkpt lat="43.79016" lon="3.82559">
        <ele>186.63</ele>
        <time>2014-10-26T14:21:12Z</time>
      </trkpt>
      <trkpt lat="43.79077" lon="3.8224">
        <ele>195.77</ele>
        <time>2014-10-26T14:21:24Z</time>
      </trkpt>
      <trkpt lat="43.79104" lon="3.81999">
        <ele>202.01</ele>
        <time>2014-10-26T14:21:33Z</time>
      </trkpt>
      <trkpt lat="43.79113" lon="3.81599">
        <ele>212.59</ele>
        <time>2014-10-26T14:21:47Z</time>
      </trkpt>
      <trkpt lat="43.79087" lon="3.81164">
        <ele>223.64</ele>
        <time>2014-10-26T14:22:02Z</time>
      </trkpt>
      <trkpt lat="43.79034" lon="3.80901">
        <ele>231.81</ele>
        <time>2014-10-26T14:22:12Z</time>
      </trkpt>
      <trkpt lat="43.79026" lon="3.80882">
        <ele>232.3</ele>
        <time>2014-10-26T14:22:13Z</time>
      </trkpt>
      <trkpt lat="43.79017" lon="3.80864">
        <ele>232.78</ele>
        <time>2014-10-26T14:22:14Z</time>
      </trkpt>
      <trkpt lat="43.79006" lon="3.80849">
        <ele>233.74</ele>
        <time>2014-10-26T14:22:15Z</time>
      </trkpt>
      <trkpt lat="43.78994" lon="3.80836">
        <ele>234.7</ele>
        <time>2014-10-26T14:22:16Z</time>
      </trkpt>
      <trkpt lat="43.78982" lon="3.80824">
        <ele>235.66</ele>
        <time>2014-10-26T14:22:17Z</time>
      </trkpt>
      <trkpt lat="43.78922" lon="3.80769">
        <ele>239.51</ele>
        <time>2014-10-26T14:22:22Z</time>
      </trkpt>
      <trkpt lat="43.78912" lon="3.80754">
        <ele>239.99</ele>
        <time>2014-10-26T14:22:23Z</time>
      </trkpt>
      <trkpt lat="43.78904" lon="3.80737">
        <ele>240.47</ele>
        <time>2014-10-26T14:22:24Z</time>
      </trkpt>
      <trkpt lat="43.78897" lon="3.80719">
        <ele>241.43</ele>
        <time>2014-10-26T14:22:25Z</time>
      </trkpt>
      <trkpt lat="43.78891" lon="3.807">
        <ele>242.39</ele>
        <time>2014-10-26T14:22:26Z</time>
      </trkpt>
      <trkpt lat="43.7888" lon="3.80668">
        <ele>243.83</ele>
        <time>2014-10-26T14:22:28Z</time>
      </trkpt>
      <trkpt lat="43.78872" lon="3.80656">
        <ele>244.31</ele>
        <time>2014-10-26T14:22:29Z</time>
      </trkpt>
      <trkpt lat="43.78862" lon="3.80647">
        <ele>244.79</ele>
        <time>2014-10-26T14:22:30Z</time>
      </trkpt>
      <trkpt lat="43.78852" lon="3.8064">
        <ele>244.79</ele>
        <time>2014-10-26T14:22:31Z</time>
      </trkpt>
      <trkpt lat="43.78842" lon="3.80636">
        <ele>245.75</ele>
        <time>2014-10-26T14:22:32Z</time>
      </trkpt>
      <trkpt lat="43.78818" lon="3.80622">
        <ele>246.23</ele>
        <time>2014-10-26T14:22:35Z</time>
      </trkpt>
      <trkpt lat="43.78812" lon="3.80615">
        <ele>245.75</ele>
        <time>2014-10-26T14:22:36Z</time>
      </trkpt>
      <trkpt lat="43.78809" lon="3.80607">
        <ele>245.27</ele>
        <time>2014-10-26T14:22:37Z</time>
      </trkpt>
      <trkpt lat="43.78812" lon="3.80599">
        <ele>243.83</ele>
        <time>2014-10-26T14:22:38Z</time>
      </trkpt>
      <trkpt lat="43.78818" lon="3.8059">
        <ele>243.83</ele>
        <time>2014-10-26T14:22:39Z</time>
      </trkpt>
      <trkpt lat="43.78828" lon="3.80584">
        <ele>243.83</ele>
        <time>2014-10-26T14:22:40Z</time>
      </trkpt>
      <trkpt lat="43.7884" lon="3.80579">
        <ele>243.83</ele>
        <time>2014-10-26T14:22:41Z</time>
      </trkpt>
      <trkpt lat="43.78852" lon="3.80576">
        <ele>242.87</ele>
        <time>2014-10-26T14:22:42Z</time>
      </trkpt>
      <trkpt lat="43.78864" lon="3.80574">
        <ele>242.39</ele>
        <time>2014-10-26T14:22:43Z</time>
      </trkpt>
      <trkpt lat="43.78876" lon="3.80574">
        <ele>241.43</ele>
        <time>2014-10-26T14:22:44Z</time>
      </trkpt>
      <trkpt lat="43.78887" lon="3.80579">
        <ele>239.99</ele>
        <time>2014-10-26T14:22:45Z</time>
      </trkpt>
      <trkpt lat="43.78897" lon="3.80586">
        <ele>239.02</ele>
        <time>2014-10-26T14:22:46Z</time>
      </trkpt>
      <trkpt lat="43.78905" lon="3.80592">
        <ele>238.06</ele>
        <time>2014-10-26T14:22:47Z</time>
      </trkpt>
      <trkpt lat="43.78911" lon="3.80598">
        <ele>237.58</ele>
        <time>2014-10-26T14:22:48Z</time>
      </trkpt>
      <trkpt lat="43.78917" lon="3.80603">
        <ele>237.1</ele>
        <time>2014-10-26T14:22:49Z</time>
      </trkpt>
      <trkpt lat="43.78923" lon="3.80605">
        <ele>236.62</ele>
        <time>2014-10-26T14:22:50Z</time>
      </trkpt>
      <trkpt lat="43.78928" lon="3.80602">
        <ele>235.66</ele>
        <time>2014-10-26T14:22:51Z</time>
      </trkpt>
      <trkpt lat="43.78931" lon="3.80593">
        <ele>235.18</ele>
        <time>2014-10-26T14:22:52Z</time>
      </trkpt>
      <trkpt lat="43.78929" lon="3.80583">
        <ele>234.22</ele>
        <time>2014-10-26T14:22:53Z</time>
      </trkpt>
      <trkpt lat="43.78925" lon="3.80573">
        <ele>234.22</ele>
        <time>2014-10-26T14:22:54Z</time>
      </trkpt>
      <trkpt lat="43.78916" lon="3.80563">
        <ele>233.26</ele>
        <time>2014-10-26T14:22:55Z</time>
      </trkpt>
      <trkpt lat="43.78904" lon="3.80555">
        <ele>232.78</ele>
        <time>2014-10-26T14:22:56Z</time>
      </trkpt>
      <trkpt lat="43.78892" lon="3.80544">
        <ele>232.3</ele>
        <time>2014-10-26T14:22:57Z</time>
      </trkpt>
      <trkpt lat="43.78839" lon="3.80471">
        <ele>228.93</ele>
        <time>2014-10-26T14:23:02Z</time>
      </trkpt>
      <trkpt lat="43.78832" lon="3.80453">
        <ele>228.45</ele>
        <time>2014-10-26T14:23:03Z</time>
      </trkpt>
      <trkpt lat="43.78826" lon="3.80438">
        <ele>227.97</ele>
        <time>2014-10-26T14:23:04Z</time>
      </trkpt>
      <trkpt lat="43.78823" lon="3.80425">
        <ele>227.49</ele>
        <time>2014-10-26T14:23:05Z</time>
      </trkpt>
      <trkpt lat="43.78824" lon="3.80415">
        <ele>226.53</ele>
        <time>2014-10-26T14:23:06Z</time>
      </trkpt>
      <trkpt lat="43.78829" lon="3.80405">
        <ele>226.05</ele>
        <time>2014-10-26T14:23:07Z</time>
      </trkpt>
      <trkpt lat="43.78836" lon="3.804">
        <ele>225.57</ele>
        <time>2014-10-26T14:23:08Z</time>
      </trkpt>
      <trkpt lat="43.78847" lon="3.80403">
        <ele>224.61</ele>
        <time>2014-10-26T14:23:09Z</time>
      </trkpt>
      <trkpt lat="43.78857" lon="3.80412">
        <ele>223.64</ele>
        <time>2014-10-26T14:23:10Z</time>
      </trkpt>
      <trkpt lat="43.78868" lon="3.80422">
        <ele>223.16</ele>
        <time>2014-10-26T14:23:11Z</time>
      </trkpt>
      <trkpt lat="43.78879" lon="3.80433">
        <ele>222.68</ele>
        <time>2014-10-26T14:23:12Z</time>
      </trkpt>
      <trkpt lat="43.78966" lon="3.80538">
        <ele>217.4</ele>
        <time>2014-10-26T14:23:20Z</time>
      </trkpt>
      <trkpt lat="43.78975" lon="3.80549">
        <ele>216.91</ele>
        <time>2014-10-26T14:23:21Z</time>
      </trkpt>
      <trkpt lat="43.78984" lon="3.80557">
        <ele>216.43</ele>
        <time>2014-10-26T14:23:22Z</time>
      </trkpt>
      <trkpt lat="43.78995" lon="3.80562">
        <ele>215.47</ele>
        <time>2014-10-26T14:23:23Z</time>
      </trkpt>
      <trkpt lat="43.79006" lon="3.80561">
        <ele>214.99</ele>
        <time>2014-10-26T14:23:24Z</time>
      </trkpt>
      <trkpt lat="43.79017" lon="3.80553">
        <ele>214.03</ele>
        <time>2014-10-26T14:23:25Z</time>
      </trkpt>
      <trkpt lat="43.79028" lon="3.80543">
        <ele>213.55</ele>
        <time>2014-10-26T14:23:26Z</time>
      </trkpt>
      <trkpt lat="43.79038" lon="3.8053">
        <ele>212.59</ele>
        <time>2014-10-26T14:23:27Z</time>
      </trkpt>
      <trkpt lat="43.79049" lon="3.80514">
        <ele>211.63</ele>
        <time>2014-10-26T14:23:28Z</time>
      </trkpt>
      <trkpt lat="43.79124" lon="3.80401">
        <ele>205.86</ele>
        <time>2014-10-26T14:23:36Z</time>
      </trkpt>
      <trkpt lat="43.79136" lon="3.8039">
        <ele>205.38</ele>
        <time>2014-10-26T14:23:37Z</time>
      </trkpt>
      <trkpt lat="43.79262" lon="3.80307">
        <ele>198.17</ele>
        <time>2014-10-26T14:23:45Z</time>
      </trkpt>
      <trkpt lat="43.79318" lon="3.80261">
        <ele>195.28</ele>
        <time>2014-10-26T14:23:49Z</time>
      </trkpt>
      <trkpt lat="43.7933" lon="3.80247">
        <ele>194.32</ele>
        <time>2014-10-26T14:23:50Z</time>
      </trkpt>
      <trkpt lat="43.7934" lon="3.80231">
        <ele>193.36</ele>
        <time>2014-10-26T14:23:51Z</time>
      </trkpt>
      <trkpt lat="43.7935" lon="3.80213">
        <ele>192.4</ele>
        <time>2014-10-26T14:23:52Z</time>
      </trkpt>
      <trkpt lat="43.79358" lon="3.80194">
        <ele>191.44</ele>
        <time>2014-10-26T14:23:53Z</time>
      </trkpt>
      <trkpt lat="43.79365" lon="3.80173">
        <ele>190.48</ele>
        <time>2014-10-26T14:23:54Z</time>
      </trkpt>
      <trkpt lat="43.7937" lon="3.80152">
        <ele>189.52</ele>
        <time>2014-10-26T14:23:55Z</time>
      </trkpt>
      <trkpt lat="43.79374" lon="3.80129">
        <ele>189.04</ele>
        <time>2014-10-26T14:23:56Z</time>
      </trkpt>
      <trkpt lat="43.79377" lon="3.80107">
        <ele>188.08</ele>
        <time>2014-10-26T14:23:57Z</time>
      </trkpt>
      <trkpt lat="43.79379" lon="3.80085">
        <ele>187.59</ele>
        <time>2014-10-26T14:23:58Z</time>
      </trkpt>
      <trkpt lat="43.7938" lon="3.80063">
        <ele>186.63</ele>
        <time>2014-10-26T14:23:59Z</time>
      </trkpt>
      <trkpt lat="43.79378" lon="3.80041">
        <ele>186.15</ele>
        <time>2014-10-26T14:24:00Z</time>
      </trkpt>
      <trkpt lat="43.79374" lon="3.80017">
        <ele>185.19</ele>
        <time>2014-10-26T14:24:01Z</time>
      </trkpt>
      <trkpt lat="43.7937" lon="3.79992">
        <ele>184.71</ele>
        <time>2014-10-26T14:24:02Z</time>
      </trkpt>
      <trkpt lat="43.79327" lon="3.79745">
        <ele>183.75</ele>
        <time>2014-10-26T14:24:11Z</time>
      </trkpt>
      <trkpt lat="43.79318" lon="3.79719">
        <ele>184.23</ele>
        <time>2014-10-26T14:24:12Z</time>
      </trkpt>
      <trkpt lat="43.79307" lon="3.79693">
        <ele>184.71</ele>
        <time>2014-10-26T14:24:13Z</time>
      </trkpt>
      <trkpt lat="43.79294" lon="3.7967">
        <ele>185.19</ele>
        <time>2014-10-26T14:24:14Z</time>
      </trkpt>
      <trkpt lat="43.7928" lon="3.79648">
        <ele>185.67</ele>
        <time>2014-10-26T14:24:15Z</time>
      </trkpt>
      <trkpt lat="43.79265" lon="3.79627">
        <ele>185.67</ele>
        <time>2014-10-26T14:24:16Z</time>
      </trkpt>
      <trkpt lat="43.79213" lon="3.79546">
        <ele>185.19</ele>
        <time>2014-10-26T14:24:20Z</time>
      </trkpt>
      <trkpt lat="43.79204" lon="3.79522">
        <ele>185.19</ele>
        <time>2014-10-26T14:24:21Z</time>
      </trkpt>
      <trkpt lat="43.79196" lon="3.79496">
        <ele>185.19</ele>
        <time>2014-10-26T14:24:22Z</time>
      </trkpt>
      <trkpt lat="43.79191" lon="3.7947">
        <ele>185.19</ele>
        <time>2014-10-26T14:24:23Z</time>
      </trkpt>
      <trkpt lat="43.79188" lon="3.79442">
        <ele>185.19</ele>
        <time>2014-10-26T14:24:24Z</time>
      </trkpt>
      <trkpt lat="43.79187" lon="3.79415">
        <ele>185.19</ele>
        <time>2014-10-26T14:24:25Z</time>
      </trkpt>
      <trkpt lat="43.79189" lon="3.79388">
        <ele>185.19</ele>
        <time>2014-10-26T14:24:26Z</time>
      </trkpt>
      <trkpt lat="43.79192" lon="3.79362">
        <ele>185.19</ele>
        <time>2014-10-26T14:24:27Z</time>
      </trkpt>
      <trkpt lat="43.79198" lon="3.79336">
        <ele>185.19</ele>
        <time>2014-10-26T14:24:28Z</time>
      </trkpt>
      <trkpt lat="43.79204" lon="3.79309">
        <ele>185.19</ele>
        <time>2014-10-26T14:24:29Z</time>
      </trkpt>
      <trkpt lat="43.79248" lon="3.79097">
        <ele>183.75</ele>
        <time>2014-10-26T14:24:37Z</time>
      </trkpt>
      <trkpt lat="43.79248" lon="3.7907">
        <ele>183.75</ele>
        <time>2014-10-26T14:24:38Z</time>
      </trkpt>
      <trkpt lat="43.79247" lon="3.79041">
        <ele>183.75</ele>
        <time>2014-10-26T14:24:39Z</time>
      </trkpt>
      <trkpt lat="43.79227" lon="3.78804">
        <ele>183.75</ele>
        <time>2014-10-26T14:24:47Z</time>
      </trkpt>
      <trkpt lat="43.7923" lon="3.78774">
        <ele>184.23</ele>
        <time>2014-10-26T14:24:48Z</time>
      </trkpt>
      <trkpt lat="43.79235" lon="3.78744">
        <ele>184.71</ele>
        <time>2014-10-26T14:24:49Z</time>
      </trkpt>
      <trkpt lat="43.79242" lon="3.78715">
        <ele>185.19</ele>
        <time>2014-10-26T14:24:50Z</time>
      </trkpt>
      <trkpt lat="43.79251" lon="3.78686">
        <ele>185.67</ele>
        <time>2014-10-26T14:24:51Z</time>
      </trkpt>
      <trkpt lat="43.7926" lon="3.78658">
        <ele>186.15</ele>
        <time>2014-10-26T14:24:52Z</time>
      </trkpt>
      <trkpt lat="43.79347" lon="3.78443">
        <ele>187.59</ele>
        <time>2014-10-26T14:25:00Z</time>
      </trkpt>
      <trkpt lat="43.79362" lon="3.7842">
        <ele>187.59</ele>
        <time>2014-10-26T14:25:01Z</time>
      </trkpt>
      <trkpt lat="43.79379" lon="3.78398">
        <ele>187.11</ele>
        <time>2014-10-26T14:25:02Z</time>
      </trkpt>
      <trkpt lat="43.79457" lon="3.78307">
        <ele>188.08</ele>
        <time>2014-10-26T14:25:07Z</time>
      </trkpt>
      <trkpt lat="43.79467" lon="3.78287">
        <ele>188.08</ele>
        <time>2014-10-26T14:25:08Z</time>
      </trkpt>
      <trkpt lat="43.79475" lon="3.78265">
        <ele>187.59</ele>
        <time>2014-10-26T14:25:09Z</time>
      </trkpt>
      <trkpt lat="43.7948" lon="3.78242">
        <ele>187.59</ele>
        <time>2014-10-26T14:25:10Z</time>
      </trkpt>
      <trkpt lat="43.79482" lon="3.78217">
        <ele>187.11</ele>
        <time>2014-10-26T14:25:11Z</time>
      </trkpt>
      <trkpt lat="43.79481" lon="3.78192">
        <ele>187.11</ele>
        <time>2014-10-26T14:25:12Z</time>
      </trkpt>
      <trkpt lat="43.79478" lon="3.78167">
        <ele>187.11</ele>
        <time>2014-10-26T14:25:13Z</time>
      </trkpt>
      <trkpt lat="43.79474" lon="3.78143">
        <ele>187.11</ele>
        <time>2014-10-26T14:25:14Z</time>
      </trkpt>
      <trkpt lat="43.7947" lon="3.78117">
        <ele>186.63</ele>
        <time>2014-10-26T14:25:15Z</time>
      </trkpt>
      <trkpt lat="43.79469" lon="3.78091">
        <ele>187.11</ele>
        <time>2014-10-26T14:25:16Z</time>
      </trkpt>
      <trkpt lat="43.7947" lon="3.78062">
        <ele>187.11</ele>
        <time>2014-10-26T14:25:17Z</time>
      </trkpt>
      <trkpt lat="43.79511" lon="3.77809">
        <ele>187.11</ele>
        <time>2014-10-26T14:25:26Z</time>
      </trkpt>
      <trkpt lat="43.79538" lon="3.77708">
        <ele>186.63</ele>
        <time>2014-10-26T14:25:30Z</time>
      </trkpt>
      <trkpt lat="43.79539" lon="3.77681">
        <ele>186.63</ele>
        <time>2014-10-26T14:25:31Z</time>
      </trkpt>
      <trkpt lat="43.79538" lon="3.77653">
        <ele>186.15</ele>
        <time>2014-10-26T14:25:32Z</time>
      </trkpt>
      <trkpt lat="43.79534" lon="3.77624">
        <ele>186.15</ele>
        <time>2014-10-26T14:25:33Z</time>
      </trkpt>
      <trkpt lat="43.7953" lon="3.77595">
        <ele>185.67</ele>
        <time>2014-10-26T14:25:34Z</time>
      </trkpt>
      <trkpt lat="43.79452" lon="3.77222">
        <ele>180.38</ele>
        <time>2014-10-26T14:25:46Z</time>
      </trkpt>
      <trkpt lat="43.79404" lon="3.76907">
        <ele>178.46</ele>
        <time>2014-10-26T14:25:56Z</time>
      </trkpt>
      <trkpt lat="43.79395" lon="3.76817">
        <ele>178.94</ele>
        <time>2014-10-26T14:25:59Z</time>
      </trkpt>
      <trkpt lat="43.79389" lon="3.76788">
        <ele>178.94</ele>
        <time>2014-10-26T14:26:00Z</time>
      </trkpt>
      <trkpt lat="43.7938" lon="3.76759">
        <ele>178.94</ele>
        <time>2014-10-26T14:26:01Z</time>
      </trkpt>
      <trkpt lat="43.79369" lon="3.7673">
        <ele>179.42</ele>
        <time>2014-10-26T14:26:02Z</time>
      </trkpt>
      <trkpt lat="43.79357" lon="3.76702">
        <ele>179.42</ele>
        <time>2014-10-26T14:26:03Z</time>
      </trkpt>
      <trkpt lat="43.79236" lon="3.76368">
        <ele>181.35</ele>
        <time>2014-10-26T14:26:15Z</time>
      </trkpt>
      <trkpt lat="43.79155" lon="3.76177">
        <ele>179.9</ele>
        <time>2014-10-26T14:26:22Z</time>
      </trkpt>
      <trkpt lat="43.79114" lon="3.76111">
        <ele>181.35</ele>
        <time>2014-10-26T14:26:25Z</time>
      </trkpt>
      <trkpt lat="43.79098" lon="3.76093">
        <ele>181.35</ele>
        <time>2014-10-26T14:26:26Z</time>
      </trkpt>
      <trkpt lat="43.7908" lon="3.76076">
        <ele>182.31</ele>
        <time>2014-10-26T14:26:27Z</time>
      </trkpt>
      <trkpt lat="43.7906" lon="3.76063">
        <ele>183.27</ele>
        <time>2014-10-26T14:26:28Z</time>
      </trkpt>
      <trkpt lat="43.7904" lon="3.76053">
        <ele>184.71</ele>
        <time>2014-10-26T14:26:29Z</time>
      </trkpt>
      <trkpt lat="43.79019" lon="3.76043">
        <ele>186.15</ele>
        <time>2014-10-26T14:26:30Z</time>
      </trkpt>
      <trkpt lat="43.78886" lon="3.7594">
        <ele>190.96</ele>
        <time>2014-10-26T14:26:37Z</time>
      </trkpt>
      <trkpt lat="43.78837" lon="3.75892">
        <ele>192.4</ele>
        <time>2014-10-26T14:26:40Z</time>
      </trkpt>
      <trkpt lat="43.7882" lon="3.7588">
        <ele>192.88</ele>
        <time>2014-10-26T14:26:41Z</time>
      </trkpt>
      <trkpt lat="43.78687" lon="3.75809">
        <ele>198.65</ele>
        <time>2014-10-26T14:26:50Z</time>
      </trkpt>
      <trkpt lat="43.7861" lon="3.75764">
        <ele>202.49</ele>
        <time>2014-10-26T14:26:57Z</time>
      </trkpt>
      <trkpt lat="43.78601" lon="3.75754">
        <ele>202.98</ele>
        <time>2014-10-26T14:26:58Z</time>
      </trkpt>
      <trkpt lat="43.78593" lon="3.75742">
        <ele>202.98</ele>
        <time>2014-10-26T14:26:59Z</time>
      </trkpt>
      <trkpt lat="43.78586" lon="3.75727">
        <ele>203.46</ele>
        <time>2014-10-26T14:27:00Z</time>
      </trkpt>
      <trkpt lat="43.78581" lon="3.75712">
        <ele>203.94</ele>
        <time>2014-10-26T14:27:01Z</time>
      </trkpt>
      <trkpt lat="43.7853" lon="3.75552">
        <ele>202.01</ele>
        <time>2014-10-26T14:27:10Z</time>
      </trkpt>
      <trkpt lat="43.78527" lon="3.75531">
        <ele>202.01</ele>
        <time>2014-10-26T14:27:11Z</time>
      </trkpt>
      <trkpt lat="43.78522" lon="3.75487">
        <ele>201.53</ele>
        <time>2014-10-26T14:27:13Z</time>
      </trkpt>
      <trkpt lat="43.78479" lon="3.75241">
        <ele>199.61</ele>
        <time>2014-10-26T14:27:23Z</time>
      </trkpt>
      <trkpt lat="43.78432" lon="3.75022">
        <ele>203.94</ele>
        <time>2014-10-26T14:27:31Z</time>
      </trkpt>
      <trkpt lat="43.78433" lon="3.74994">
        <ele>204.42</ele>
        <time>2014-10-26T14:27:32Z</time>
      </trkpt>
      <trkpt lat="43.78437" lon="3.74967">
        <ele>204.42</ele>
        <time>2014-10-26T14:27:33Z</time>
      </trkpt>
      <trkpt lat="43.78445" lon="3.74942">
        <ele>204.42</ele>
        <time>2014-10-26T14:27:34Z</time>
      </trkpt>
      <trkpt lat="43.78456" lon="3.74921">
        <ele>204.9</ele>
        <time>2014-10-26T14:27:35Z</time>
      </trkpt>
      <trkpt lat="43.78465" lon="3.749">
        <ele>204.42</ele>
        <time>2014-10-26T14:27:36Z</time>
      </trkpt>
      <trkpt lat="43.7849" lon="3.74838">
        <ele>202.01</ele>
        <time>2014-10-26T14:27:39Z</time>
      </trkpt>
      <trkpt lat="43.78495" lon="3.74815">
        <ele>201.05</ele>
        <time>2014-10-26T14:27:40Z</time>
      </trkpt>
      <trkpt lat="43.78499" lon="3.7479">
        <ele>200.57</ele>
        <time>2014-10-26T14:27:41Z</time>
      </trkpt>
      <trkpt lat="43.78557" lon="3.74496">
        <ele>198.17</ele>
        <time>2014-10-26T14:27:52Z</time>
      </trkpt>
      <trkpt lat="43.78617" lon="3.74262">
        <ele>197.69</ele>
        <time>2014-10-26T14:28:00Z</time>
      </trkpt>
      <trkpt lat="43.78687" lon="3.741">
        <ele>199.61</ele>
        <time>2014-10-26T14:28:06Z</time>
      </trkpt>
      <trkpt lat="43.78702" lon="3.74079">
        <ele>199.61</ele>
        <time>2014-10-26T14:28:07Z</time>
      </trkpt>
      <trkpt lat="43.78718" lon="3.74061">
        <ele>199.61</ele>
        <time>2014-10-26T14:28:08Z</time>
      </trkpt>
      <trkpt lat="43.78735" lon="3.74046">
        <ele>199.13</ele>
        <time>2014-10-26T14:28:09Z</time>
      </trkpt>
      <trkpt lat="43.78751" lon="3.74033">
        <ele>198.17</ele>
        <time>2014-10-26T14:28:10Z</time>
      </trkpt>
      <trkpt lat="43.78768" lon="3.74023">
        <ele>197.69</ele>
        <time>2014-10-26T14:28:11Z</time>
      </trkpt>
      <trkpt lat="43.78785" lon="3.74015">
        <ele>197.21</ele>
        <time>2014-10-26T14:28:12Z</time>
      </trkpt>
      <trkpt lat="43.78888" lon="3.73935">
        <ele>192.88</ele>
        <time>2014-10-26T14:28:19Z</time>
      </trkpt>
      <trkpt lat="43.78923" lon="3.73893">
        <ele>190.96</ele>
        <time>2014-10-26T14:28:22Z</time>
      </trkpt>
      <trkpt lat="43.78931" lon="3.73876">
        <ele>190.48</ele>
        <time>2014-10-26T14:28:23Z</time>
      </trkpt>
      <trkpt lat="43.78938" lon="3.73859">
        <ele>190</ele>
        <time>2014-10-26T14:28:24Z</time>
      </trkpt>
      <trkpt lat="43.78942" lon="3.73841">
        <ele>189.52</ele>
        <time>2014-10-26T14:28:25Z</time>
      </trkpt>
      <trkpt lat="43.78945" lon="3.73824">
        <ele>189.04</ele>
        <time>2014-10-26T14:28:26Z</time>
      </trkpt>
      <trkpt lat="43.78946" lon="3.73807">
        <ele>189.04</ele>
        <time>2014-10-26T14:28:27Z</time>
      </trkpt>
      <trkpt lat="43.78947" lon="3.7379">
        <ele>188.56</ele>
        <time>2014-10-26T14:28:28Z</time>
      </trkpt>
      <trkpt lat="43.78953" lon="3.73705">
        <ele>187.59</ele>
        <time>2014-10-26T14:28:36Z</time>
      </trkpt>
      <trkpt lat="43.78958" lon="3.73689">
        <ele>188.08</ele>
        <time>2014-10-26T14:28:41Z</time>
      </trkpt>
      <trkpt lat="43.78962" lon="3.73683">
        <ele>188.08</ele>
        <time>2014-10-26T14:28:42Z</time>
      </trkpt>
      <trkpt lat="43.78966" lon="3.73675">
        <ele>188.08</ele>
        <time>2014-10-26T14:28:43Z</time>
      </trkpt>
      <trkpt lat="43.78967" lon="3.73665">
        <ele>188.08</ele>
        <time>2014-10-26T14:28:44Z</time>
      </trkpt>
      <trkpt lat="43.78967" lon="3.73654">
        <ele>188.08</ele>
        <time>2014-10-26T14:28:45Z</time>
      </trkpt>
      <trkpt lat="43.78966" lon="3.73642">
        <ele>188.08</ele>
        <time>2014-10-26T14:28:46Z</time>
      </trkpt>
      <trkpt lat="43.78967" lon="3.73631">
        <ele>188.08</ele>
        <time>2014-10-26T14:28:47Z</time>
      </trkpt>
      <trkpt lat="43.7897" lon="3.73619">
        <ele>188.08</ele>
        <time>2014-10-26T14:28:48Z</time>
      </trkpt>
      <trkpt lat="43.78975" lon="3.7361">
        <ele>188.08</ele>
        <time>2014-10-26T14:28:49Z</time>
      </trkpt>
      <trkpt lat="43.78982" lon="3.73601">
        <ele>187.59</ele>
        <time>2014-10-26T14:28:50Z</time>
      </trkpt>
      <trkpt lat="43.78994" lon="3.7358">
        <ele>187.11</ele>
        <time>2014-10-26T14:28:52Z</time>
      </trkpt>
      <trkpt lat="43.78999" lon="3.73569">
        <ele>187.11</ele>
        <time>2014-10-26T14:28:53Z</time>
      </trkpt>
      <trkpt lat="43.79051" lon="3.73425">
        <ele>186.15</ele>
        <time>2014-10-26T14:29:06Z</time>
      </trkpt>
      <trkpt lat="43.79094" lon="3.73342">
        <ele>186.63</ele>
        <time>2014-10-26T14:29:15Z</time>
      </trkpt>
      <trkpt lat="43.79097" lon="3.73332">
        <ele>187.11</ele>
        <time>2014-10-26T14:29:16Z</time>
      </trkpt>
      <trkpt lat="43.79098" lon="3.73323">
        <ele>187.11</ele>
        <time>2014-10-26T14:29:17Z</time>
      </trkpt>
      <trkpt lat="43.79098" lon="3.73318">
        <ele>187.11</ele>
        <time>2014-10-26T14:29:18Z</time>
      </trkpt>
      <trkpt lat="43.79098" lon="3.73314">
        <ele>187.11</ele>
        <time>2014-10-26T14:29:19Z</time>
      </trkpt>
      <trkpt lat="43.79097" lon="3.73311">
        <ele>187.11</ele>
        <time>2014-10-26T14:29:20Z</time>
      </trkpt>
      <trkpt lat="43.79095" lon="3.73302">
        <ele>187.59</ele>
        <time>2014-10-26T14:29:32Z</time>
      </trkpt>
      <trkpt lat="43.79089" lon="3.73269">
        <ele>186.15</ele>
        <time>2014-10-26T14:29:47Z</time>
      </trkpt>
      <trkpt lat="43.7909" lon="3.73266">
        <ele>187.11</ele>
        <time>2014-10-26T14:29:53Z</time>
      </trkpt>
      <trkpt lat="43.79092" lon="3.73262">
        <ele>187.59</ele>
        <time>2014-10-26T14:29:56Z</time>
      </trkpt>
      <trkpt lat="43.79095" lon="3.73261">
        <ele>187.59</ele>
        <time>2014-10-26T14:29:57Z</time>
      </trkpt>
      <trkpt lat="43.79098" lon="3.7326">
        <ele>188.08</ele>
        <time>2014-10-26T14:29:58Z</time>
      </trkpt>
      <trkpt lat="43.7911" lon="3.73259">
        <ele>188.08</ele>
        <time>2014-10-26T14:30:01Z</time>
      </trkpt>
      <trkpt lat="43.79112" lon="3.73257">
        <ele>188.08</ele>
        <time>2014-10-26T14:30:02Z</time>
      </trkpt>
      <trkpt lat="43.79113" lon="3.73255">
        <ele>188.08</ele>
        <time>2014-10-26T14:30:03Z</time>
      </trkpt>
      <trkpt lat="43.79113" lon="3.73253">
        <ele>188.08</ele>
        <time>2014-10-26T14:30:04Z</time>
      </trkpt>
      <trkpt lat="43.79113" lon="3.7325">
        <ele>188.08</ele>
        <time>2014-10-26T14:30:05Z</time>
      </trkpt>
      <trkpt lat="43.79112" lon="3.73247">
        <ele>188.08</ele>
        <time>2014-10-26T14:30:06Z</time>
      </trkpt>
      <trkpt lat="43.79111" lon="3.73246">
        <ele>188.08</ele>
        <time>2014-10-26T14:30:07Z</time>
      </trkpt>
      <trkpt lat="43.7911" lon="3.73245">
        <ele>187.59</ele>
        <time>2014-10-26T14:30:08Z</time>
      </trkpt>
      <trkpt lat="43.79108" lon="3.73244">
        <ele>187.59</ele>
        <time>2014-10-26T14:30:09Z</time>
      </trkpt>
      <trkpt lat="43.79108" lon="3.73244">
        <ele>187.11</ele>
        <time>2014-10-26T14:30:10Z</time>
      </trkpt>
      <trkpt lat="43.79106" lon="3.73244">
        <ele>186.63</ele>
        <time>2014-10-26T14:30:11Z</time>
      </trkpt>
      <trkpt lat="43.79105" lon="3.73243">
        <ele>186.15</ele>
        <time>2014-10-26T14:30:12Z</time>
      </trkpt>
      <trkpt lat="43.79103" lon="3.7324">
        <ele>186.15</ele>
        <time>2014-10-26T14:30:17Z</time>
      </trkpt>
      <trkpt lat="43.79102" lon="3.73239">
        <ele>186.15</ele>
        <time>2014-10-26T14:30:18Z</time>
      </trkpt>
      <trkpt lat="43.79102" lon="3.73231">
        <ele>187.11</ele>
        <time>2014-10-26T14:30:31Z</time>
      </trkpt>
      <trkpt lat="43.79101" lon="3.73233">
        <ele>192.88</ele>
        <time>2014-10-26T14:30:55Z</time>
      </trkpt>
      <trkpt lat="43.791" lon="3.73236">
        <ele>193.84</ele>
        <time>2014-10-26T14:31:07Z</time>
      </trkpt>
      <trkpt lat="43.79098" lon="3.73232">
        <ele>186.15</ele>
        <time>2014-10-26T15:34:21Z</time>
      </trkpt>
      <trkpt lat="43.79104" lon="3.73231">
        <ele>184.23</ele>
        <time>2014-10-26T15:37:57Z</time>
      </trkpt>
      <trkpt lat="43.79104" lon="3.73227">
        <ele>185.19</ele>
        <time>2014-10-26T15:38:14Z</time>
      </trkpt>
      <trkpt lat="43.79106" lon="3.73222">
        <ele>177.98</ele>
        <time>2014-10-26T15:41:43Z</time>
      </trkpt>
      <trkpt lat="43.79116" lon="3.73242">
        <ele>175.58</ele>
        <time>2014-10-26T15:41:53Z</time>
      </trkpt>
      <trkpt lat="43.79113" lon="3.73254">
        <ele>180.38</ele>
        <time>2014-10-26T15:41:58Z</time>
      </trkpt>
      <trkpt lat="43.79097" lon="3.7326">
        <ele>181.83</ele>
        <time>2014-10-26T15:42:03Z</time>
      </trkpt>
      <trkpt lat="43.79033" lon="3.7326">
        <ele>183.27</ele>
        <time>2014-10-26T15:42:12Z</time>
      </trkpt>
      <trkpt lat="43.78902" lon="3.73232">
        <ele>187.59</ele>
        <time>2014-10-26T15:42:26Z</time>
      </trkpt>
      <trkpt lat="43.7885" lon="3.73223">
        <ele>190</ele>
        <time>2014-10-26T15:42:33Z</time>
      </trkpt>
      <trkpt lat="43.78846" lon="3.73221">
        <ele>190</ele>
        <time>2014-10-26T15:42:34Z</time>
      </trkpt>
      <trkpt lat="43.78842" lon="3.73218">
        <ele>190</ele>
        <time>2014-10-26T15:42:35Z</time>
      </trkpt>
      <trkpt lat="43.78838" lon="3.73214">
        <ele>190</ele>
        <time>2014-10-26T15:42:36Z</time>
      </trkpt>
      <trkpt lat="43.78833" lon="3.73209">
        <ele>190.48</ele>
        <time>2014-10-26T15:42:37Z</time>
      </trkpt>
      <trkpt lat="43.78829" lon="3.73204">
        <ele>190.48</ele>
        <time>2014-10-26T15:42:38Z</time>
      </trkpt>
      <trkpt lat="43.7876" lon="3.73141">
        <ele>192.88</ele>
        <time>2014-10-26T15:42:48Z</time>
      </trkpt>
      <trkpt lat="43.78667" lon="3.73054">
        <ele>194.32</ele>
        <time>2014-10-26T15:43:00Z</time>
      </trkpt>
      <trkpt lat="43.78588" lon="3.72979">
        <ele>195.77</ele>
        <time>2014-10-26T15:43:09Z</time>
      </trkpt>
      <trkpt lat="43.78521" lon="3.72915">
        <ele>195.77</ele>
        <time>2014-10-26T15:43:18Z</time>
      </trkpt>
      <trkpt lat="43.78389" lon="3.72792">
        <ele>198.17</ele>
        <time>2014-10-26T15:43:29Z</time>
      </trkpt>
      <trkpt lat="43.78309" lon="3.72712">
        <ele>199.61</ele>
        <time>2014-10-26T15:43:37Z</time>
      </trkpt>
      <trkpt lat="43.78298" lon="3.72695">
        <ele>200.09</ele>
        <time>2014-10-26T15:43:39Z</time>
      </trkpt>
      <trkpt lat="43.7829" lon="3.72689">
        <ele>200.09</ele>
        <time>2014-10-26T15:43:40Z</time>
      </trkpt>
      <trkpt lat="43.78271" lon="3.72677">
        <ele>200.09</ele>
        <time>2014-10-26T15:43:42Z</time>
      </trkpt>
      <trkpt lat="43.78261" lon="3.72669">
        <ele>200.57</ele>
        <time>2014-10-26T15:43:43Z</time>
      </trkpt>
      <trkpt lat="43.78143" lon="3.72559">
        <ele>202.01</ele>
        <time>2014-10-26T15:43:53Z</time>
      </trkpt>
      <trkpt lat="43.78039" lon="3.72473">
        <ele>204.42</ele>
        <time>2014-10-26T15:43:59Z</time>
      </trkpt>
      <trkpt lat="43.77696" lon="3.72215">
        <ele>210.67</ele>
        <time>2014-10-26T15:44:17Z</time>
      </trkpt>
      <trkpt lat="43.77536" lon="3.72107">
        <ele>214.03</ele>
        <time>2014-10-26T15:44:26Z</time>
      </trkpt>
      <trkpt lat="43.77464" lon="3.72066">
        <ele>214.99</ele>
        <time>2014-10-26T15:44:31Z</time>
      </trkpt>
      <trkpt lat="43.7745" lon="3.72062">
        <ele>214.99</ele>
        <time>2014-10-26T15:44:32Z</time>
      </trkpt>
      <trkpt lat="43.77435" lon="3.7206">
        <ele>215.47</ele>
        <time>2014-10-26T15:44:33Z</time>
      </trkpt>
      <trkpt lat="43.77311" lon="3.72066">
        <ele>218.36</ele>
        <time>2014-10-26T15:44:41Z</time>
      </trkpt>
      <trkpt lat="43.77297" lon="3.72072">
        <ele>218.84</ele>
        <time>2014-10-26T15:44:42Z</time>
      </trkpt>
      <trkpt lat="43.77286" lon="3.72085">
        <ele>219.32</ele>
        <time>2014-10-26T15:44:43Z</time>
      </trkpt>
      <trkpt lat="43.77278" lon="3.72103">
        <ele>219.8</ele>
        <time>2014-10-26T15:44:44Z</time>
      </trkpt>
      <trkpt lat="43.7727" lon="3.72124">
        <ele>220.28</ele>
        <time>2014-10-26T15:44:45Z</time>
      </trkpt>
      <trkpt lat="43.77264" lon="3.72147">
        <ele>220.76</ele>
        <time>2014-10-26T15:44:46Z</time>
      </trkpt>
      <trkpt lat="43.7726" lon="3.72172">
        <ele>221.72</ele>
        <time>2014-10-26T15:44:47Z</time>
      </trkpt>
      <trkpt lat="43.77255" lon="3.72198">
        <ele>223.64</ele>
        <time>2014-10-26T15:44:48Z</time>
      </trkpt>
      <trkpt lat="43.77201" lon="3.72459">
        <ele>237.1</ele>
        <time>2014-10-26T15:44:58Z</time>
      </trkpt>
      <trkpt lat="43.77189" lon="3.72477">
        <ele>238.54</ele>
        <time>2014-10-26T15:44:59Z</time>
      </trkpt>
      <trkpt lat="43.77173" lon="3.72492">
        <ele>239.51</ele>
        <time>2014-10-26T15:45:00Z</time>
      </trkpt>
      <trkpt lat="43.77155" lon="3.72502">
        <ele>240.95</ele>
        <time>2014-10-26T15:45:01Z</time>
      </trkpt>
      <trkpt lat="43.77136" lon="3.72511">
        <ele>242.39</ele>
        <time>2014-10-26T15:45:02Z</time>
      </trkpt>
      <trkpt lat="43.77118" lon="3.72519">
        <ele>243.83</ele>
        <time>2014-10-26T15:45:03Z</time>
      </trkpt>
      <trkpt lat="43.77102" lon="3.72529">
        <ele>244.79</ele>
        <time>2014-10-26T15:45:04Z</time>
      </trkpt>
      <trkpt lat="43.77086" lon="3.72539">
        <ele>246.23</ele>
        <time>2014-10-26T15:45:05Z</time>
      </trkpt>
      <trkpt lat="43.7707" lon="3.72547">
        <ele>246.72</ele>
        <time>2014-10-26T15:45:06Z</time>
      </trkpt>
      <trkpt lat="43.77054" lon="3.72553">
        <ele>248.16</ele>
        <time>2014-10-26T15:45:07Z</time>
      </trkpt>
      <trkpt lat="43.7704" lon="3.72556">
        <ele>249.12</ele>
        <time>2014-10-26T15:45:08Z</time>
      </trkpt>
      <trkpt lat="43.77025" lon="3.72559">
        <ele>250.08</ele>
        <time>2014-10-26T15:45:09Z</time>
      </trkpt>
      <trkpt lat="43.77009" lon="3.7256">
        <ele>251.04</ele>
        <time>2014-10-26T15:45:10Z</time>
      </trkpt>
      <trkpt lat="43.76992" lon="3.72559">
        <ele>252</ele>
        <time>2014-10-26T15:45:11Z</time>
      </trkpt>
      <trkpt lat="43.76927" lon="3.72551">
        <ele>254.41</ele>
        <time>2014-10-26T15:45:15Z</time>
      </trkpt>
      <trkpt lat="43.76911" lon="3.72545">
        <ele>254.89</ele>
        <time>2014-10-26T15:45:16Z</time>
      </trkpt>
      <trkpt lat="43.76746" lon="3.7246">
        <ele>257.77</ele>
        <time>2014-10-26T15:45:25Z</time>
      </trkpt>
      <trkpt lat="43.76359" lon="3.72259">
        <ele>253.93</ele>
        <time>2014-10-26T15:45:45Z</time>
      </trkpt>
      <trkpt lat="43.76017" lon="3.72081">
        <ele>254.89</ele>
        <time>2014-10-26T15:46:02Z</time>
      </trkpt>
      <trkpt lat="43.75756" lon="3.71921">
        <ele>252</ele>
        <time>2014-10-26T15:46:14Z</time>
      </trkpt>
      <trkpt lat="43.75595" lon="3.7182">
        <ele>248.64</ele>
        <time>2014-10-26T15:46:22Z</time>
      </trkpt>
      <trkpt lat="43.75391" lon="3.71671">
        <ele>250.08</ele>
        <time>2014-10-26T15:46:32Z</time>
      </trkpt>
      <trkpt lat="43.75287" lon="3.71562">
        <ele>245.75</ele>
        <time>2014-10-26T15:46:39Z</time>
      </trkpt>
      <trkpt lat="43.75122" lon="3.71396">
        <ele>240.95</ele>
        <time>2014-10-26T15:46:51Z</time>
      </trkpt>
      <trkpt lat="43.74866" lon="3.7114">
        <ele>233.74</ele>
        <time>2014-10-26T15:47:06Z</time>
      </trkpt>
      <trkpt lat="43.74691" lon="3.70965">
        <ele>238.06</ele>
        <time>2014-10-26T15:47:17Z</time>
      </trkpt>
      <trkpt lat="43.74584" lon="3.70858">
        <ele>241.43</ele>
        <time>2014-10-26T15:47:26Z</time>
      </trkpt>
      <trkpt lat="43.74522" lon="3.70789">
        <ele>245.75</ele>
        <time>2014-10-26T15:47:34Z</time>
      </trkpt>
      <trkpt lat="43.74501" lon="3.70742">
        <ele>248.16</ele>
        <time>2014-10-26T15:47:38Z</time>
      </trkpt>
      <trkpt lat="43.74497" lon="3.70727">
        <ele>249.12</ele>
        <time>2014-10-26T15:47:39Z</time>
      </trkpt>
      <trkpt lat="43.74493" lon="3.70711">
        <ele>249.6</ele>
        <time>2014-10-26T15:47:40Z</time>
      </trkpt>
      <trkpt lat="43.7449" lon="3.70694">
        <ele>250.56</ele>
        <time>2014-10-26T15:47:41Z</time>
      </trkpt>
      <trkpt lat="43.74488" lon="3.70677">
        <ele>251.04</ele>
        <time>2014-10-26T15:47:42Z</time>
      </trkpt>
      <trkpt lat="43.74472" lon="3.70578">
        <ele>254.89</ele>
        <time>2014-10-26T15:47:49Z</time>
      </trkpt>
      <trkpt lat="43.74467" lon="3.70565">
        <ele>255.37</ele>
        <time>2014-10-26T15:47:50Z</time>
      </trkpt>
      <trkpt lat="43.74461" lon="3.70554">
        <ele>255.85</ele>
        <time>2014-10-26T15:47:51Z</time>
      </trkpt>
      <trkpt lat="43.74454" lon="3.70545">
        <ele>256.33</ele>
        <time>2014-10-26T15:47:52Z</time>
      </trkpt>
      <trkpt lat="43.74446" lon="3.70538">
        <ele>256.33</ele>
        <time>2014-10-26T15:47:53Z</time>
      </trkpt>
      <trkpt lat="43.74439" lon="3.70532">
        <ele>256.33</ele>
        <time>2014-10-26T15:47:54Z</time>
      </trkpt>
      <trkpt lat="43.74389" lon="3.70485">
        <ele>256.33</ele>
        <time>2014-10-26T15:48:03Z</time>
      </trkpt>
      <trkpt lat="43.74322" lon="3.70415">
        <ele>258.25</ele>
        <time>2014-10-26T15:48:13Z</time>
      </trkpt>
      <trkpt lat="43.74318" lon="3.70408">
        <ele>258.73</ele>
        <time>2014-10-26T15:48:14Z</time>
      </trkpt>
      <trkpt lat="43.74315" lon="3.70401">
        <ele>258.73</ele>
        <time>2014-10-26T15:48:15Z</time>
      </trkpt>
      <trkpt lat="43.74294" lon="3.70345">
        <ele>256.81</ele>
        <time>2014-10-26T15:48:23Z</time>
      </trkpt>
      <trkpt lat="43.74282" lon="3.70326">
        <ele>255.37</ele>
        <time>2014-10-26T15:48:26Z</time>
      </trkpt>
      <trkpt lat="43.74279" lon="3.70319">
        <ele>255.37</ele>
        <time>2014-10-26T15:48:27Z</time>
      </trkpt>
      <trkpt lat="43.74278" lon="3.70312">
        <ele>254.89</ele>
        <time>2014-10-26T15:48:28Z</time>
      </trkpt>
      <trkpt lat="43.74277" lon="3.70306">
        <ele>254.41</ele>
        <time>2014-10-26T15:48:29Z</time>
      </trkpt>
      <trkpt lat="43.74276" lon="3.70299">
        <ele>254.41</ele>
        <time>2014-10-26T15:48:30Z</time>
      </trkpt>
      <trkpt lat="43.74274" lon="3.70293">
        <ele>253.93</ele>
        <time>2014-10-26T15:48:31Z</time>
      </trkpt>
      <trkpt lat="43.74272" lon="3.70289">
        <ele>253.44</ele>
        <time>2014-10-26T15:48:32Z</time>
      </trkpt>
      <trkpt lat="43.74271" lon="3.70285">
        <ele>253.44</ele>
        <time>2014-10-26T15:48:33Z</time>
      </trkpt>
      <trkpt lat="43.74268" lon="3.70279">
        <ele>252</ele>
        <time>2014-10-26T15:48:44Z</time>
      </trkpt>
      <trkpt lat="43.74267" lon="3.70278">
        <ele>252</ele>
        <time>2014-10-26T15:48:53Z</time>
      </trkpt>
      <trkpt lat="43.74266" lon="3.70276">
        <ele>252</ele>
        <time>2014-10-26T15:48:54Z</time>
      </trkpt>
      <trkpt lat="43.74265" lon="3.70275">
        <ele>252</ele>
        <time>2014-10-26T15:48:55Z</time>
      </trkpt>
      <trkpt lat="43.74265" lon="3.70272">
        <ele>252</ele>
        <time>2014-10-26T15:48:56Z</time>
      </trkpt>
      <trkpt lat="43.74264" lon="3.7027">
        <ele>252</ele>
        <time>2014-10-26T15:48:57Z</time>
      </trkpt>
      <trkpt lat="43.74263" lon="3.70267">
        <ele>252</ele>
        <time>2014-10-26T15:49:09Z</time>
      </trkpt>
      <trkpt lat="43.74249" lon="3.70254">
        <ele>256.33</ele>
        <time>2014-10-26T15:51:14Z</time>
      </trkpt>
      <trkpt lat="43.74247" lon="3.70254">
        <ele>256.33</ele>
        <time>2014-10-26T15:51:15Z</time>
      </trkpt>
      <trkpt lat="43.74244" lon="3.70254">
        <ele>256.33</ele>
        <time>2014-10-26T15:51:16Z</time>
      </trkpt>
      <trkpt lat="43.74242" lon="3.70254">
        <ele>256.33</ele>
        <time>2014-10-26T15:51:17Z</time>
      </trkpt>
      <trkpt lat="43.74239" lon="3.70252">
        <ele>256.33</ele>
        <time>2014-10-26T15:51:18Z</time>
      </trkpt>
      <trkpt lat="43.74236" lon="3.70247">
        <ele>256.33</ele>
        <time>2014-10-26T15:51:19Z</time>
      </trkpt>
      <trkpt lat="43.74234" lon="3.7024">
        <ele>256.33</ele>
        <time>2014-10-26T15:51:20Z</time>
      </trkpt>
      <trkpt lat="43.74231" lon="3.70232">
        <ele>255.85</ele>
        <time>2014-10-26T15:51:21Z</time>
      </trkpt>
      <trkpt lat="43.74211" lon="3.70178">
        <ele>253.44</ele>
        <time>2014-10-26T15:51:27Z</time>
      </trkpt>
      <trkpt lat="43.74209" lon="3.70166">
        <ele>253.44</ele>
        <time>2014-10-26T15:51:28Z</time>
      </trkpt>
      <trkpt lat="43.74207" lon="3.70152">
        <ele>252.96</ele>
        <time>2014-10-26T15:51:29Z</time>
      </trkpt>
      <trkpt lat="43.74196" lon="3.70017">
        <ele>251.04</ele>
        <time>2014-10-26T15:51:36Z</time>
      </trkpt>
      <trkpt lat="43.74171" lon="3.69792">
        <ele>251.04</ele>
        <time>2014-10-26T15:51:48Z</time>
      </trkpt>
      <trkpt lat="43.74108" lon="3.69577">
        <ele>252</ele>
        <time>2014-10-26T15:51:59Z</time>
      </trkpt>
      <trkpt lat="43.74046" lon="3.6939">
        <ele>248.64</ele>
        <time>2014-10-26T15:52:08Z</time>
      </trkpt>
      <trkpt lat="43.74025" lon="3.69343">
        <ele>246.72</ele>
        <time>2014-10-26T15:52:10Z</time>
      </trkpt>
      <trkpt lat="43.7401" lon="3.69321">
        <ele>246.72</ele>
        <time>2014-10-26T15:52:11Z</time>
      </trkpt>
      <trkpt lat="43.73993" lon="3.69302">
        <ele>247.68</ele>
        <time>2014-10-26T15:52:12Z</time>
      </trkpt>
      <trkpt lat="43.73973" lon="3.69287">
        <ele>248.64</ele>
        <time>2014-10-26T15:52:13Z</time>
      </trkpt>
      <trkpt lat="43.73952" lon="3.69276">
        <ele>248.64</ele>
        <time>2014-10-26T15:52:14Z</time>
      </trkpt>
      <trkpt lat="43.73928" lon="3.69271">
        <ele>248.64</ele>
        <time>2014-10-26T15:52:15Z</time>
      </trkpt>
      <trkpt lat="43.73904" lon="3.69273">
        <ele>249.12</ele>
        <time>2014-10-26T15:52:16Z</time>
      </trkpt>
      <trkpt lat="43.73881" lon="3.69275">
        <ele>249.12</ele>
        <time>2014-10-26T15:52:17Z</time>
      </trkpt>
      <trkpt lat="43.73859" lon="3.69278">
        <ele>249.6</ele>
        <time>2014-10-26T15:52:18Z</time>
      </trkpt>
      <trkpt lat="43.73713" lon="3.69281">
        <ele>250.08</ele>
        <time>2014-10-26T15:52:25Z</time>
      </trkpt>
      <trkpt lat="43.73692" lon="3.69274">
        <ele>250.56</ele>
        <time>2014-10-26T15:52:26Z</time>
      </trkpt>
      <trkpt lat="43.73672" lon="3.69265">
        <ele>251.04</ele>
        <time>2014-10-26T15:52:27Z</time>
      </trkpt>
      <trkpt lat="43.73653" lon="3.69254">
        <ele>251.52</ele>
        <time>2014-10-26T15:52:28Z</time>
      </trkpt>
      <trkpt lat="43.73634" lon="3.69242">
        <ele>252.48</ele>
        <time>2014-10-26T15:52:29Z</time>
      </trkpt>
      <trkpt lat="43.73465" lon="3.69099">
        <ele>258.73</ele>
        <time>2014-10-26T15:52:39Z</time>
      </trkpt>
      <trkpt lat="43.73289" lon="3.68837">
        <ele>263.54</ele>
        <time>2014-10-26T15:52:52Z</time>
      </trkpt>
      <trkpt lat="43.73221" lon="3.6863">
        <ele>271.23</ele>
        <time>2014-10-26T15:53:01Z</time>
      </trkpt>
      <trkpt lat="43.73179" lon="3.68419">
        <ele>279.88</ele>
        <time>2014-10-26T15:53:10Z</time>
      </trkpt>
      <trkpt lat="43.73147" lon="3.68261">
        <ele>282.77</ele>
        <time>2014-10-26T15:53:16Z</time>
      </trkpt>
      <trkpt lat="43.73067" lon="3.68057">
        <ele>282.28</ele>
        <time>2014-10-26T15:53:25Z</time>
      </trkpt>
      <trkpt lat="43.72993" lon="3.67877">
        <ele>282.28</ele>
        <time>2014-10-26T15:53:35Z</time>
      </trkpt>
      <trkpt lat="43.72924" lon="3.67709">
        <ele>280.36</ele>
        <time>2014-10-26T15:53:44Z</time>
      </trkpt>
      <trkpt lat="43.72891" lon="3.67626">
        <ele>279.4</ele>
        <time>2014-10-26T15:53:50Z</time>
      </trkpt>
      <trkpt lat="43.72887" lon="3.67605">
        <ele>279.4</ele>
        <time>2014-10-26T15:53:57Z</time>
      </trkpt>
      <trkpt lat="43.72886" lon="3.67607">
        <ele>278.92</ele>
        <time>2014-10-26T15:54:09Z</time>
      </trkpt>
      <trkpt lat="43.72885" lon="3.67608">
        <ele>278.92</ele>
        <time>2014-10-26T15:54:15Z</time>
      </trkpt>
      <trkpt lat="43.72886" lon="3.67619">
        <ele>278.92</ele>
        <time>2014-10-26T15:54:18Z</time>
      </trkpt>
      <trkpt lat="43.7289" lon="3.67634">
        <ele>278.92</ele>
        <time>2014-10-26T15:54:19Z</time>
      </trkpt>
      <trkpt lat="43.72897" lon="3.67652">
        <ele>278.92</ele>
        <time>2014-10-26T15:54:20Z</time>
      </trkpt>
      <trkpt lat="43.72904" lon="3.67669">
        <ele>279.4</ele>
        <time>2014-10-26T15:54:21Z</time>
      </trkpt>
      <trkpt lat="43.72976" lon="3.67839">
        <ele>282.28</ele>
        <time>2014-10-26T15:54:32Z</time>
      </trkpt>
      <trkpt lat="43.73002" lon="3.67905">
        <ele>281.8</ele>
        <time>2014-10-26T15:54:40Z</time>
      </trkpt>
      <trkpt lat="43.73001" lon="3.67909">
        <ele>281.32</ele>
        <time>2014-10-26T15:54:41Z</time>
      </trkpt>
      <trkpt lat="43.72999" lon="3.67912">
        <ele>280.84</ele>
        <time>2014-10-26T15:54:42Z</time>
      </trkpt>
      <trkpt lat="43.72996" lon="3.67912">
        <ele>280.36</ele>
        <time>2014-10-26T15:54:43Z</time>
      </trkpt>
      <trkpt lat="43.72992" lon="3.6791">
        <ele>279.88</ele>
        <time>2014-10-26T15:54:44Z</time>
      </trkpt>
      <trkpt lat="43.72987" lon="3.67906">
        <ele>279.4</ele>
        <time>2014-10-26T15:54:45Z</time>
      </trkpt>
      <trkpt lat="43.72981" lon="3.67901">
        <ele>279.4</ele>
        <time>2014-10-26T15:54:46Z</time>
      </trkpt>
      <trkpt lat="43.72911" lon="3.67852">
        <ele>278.92</ele>
        <time>2014-10-26T15:54:53Z</time>
      </trkpt>
      <trkpt lat="43.72808" lon="3.67746">
        <ele>277.48</ele>
        <time>2014-10-26T15:55:02Z</time>
      </trkpt>
      <trkpt lat="43.72716" lon="3.67621">
        <ele>272.19</ele>
        <time>2014-10-26T15:55:10Z</time>
      </trkpt>
      <trkpt lat="43.72703" lon="3.67609">
        <ele>271.23</ele>
        <time>2014-10-26T15:55:11Z</time>
      </trkpt>
      <trkpt lat="43.72689" lon="3.676">
        <ele>271.23</ele>
        <time>2014-10-26T15:55:12Z</time>
      </trkpt>
      <trkpt lat="43.72674" lon="3.67592">
        <ele>270.75</ele>
        <time>2014-10-26T15:55:13Z</time>
      </trkpt>
      <trkpt lat="43.7266" lon="3.67585">
        <ele>270.27</ele>
        <time>2014-10-26T15:55:14Z</time>
      </trkpt>
      <trkpt lat="43.72585" lon="3.67555">
        <ele>268.83</ele>
        <time>2014-10-26T15:55:19Z</time>
      </trkpt>
      <trkpt lat="43.72487" lon="3.67554">
        <ele>266.9</ele>
        <time>2014-10-26T15:55:25Z</time>
      </trkpt>
      <trkpt lat="43.72474" lon="3.6756">
        <ele>266.42</ele>
        <time>2014-10-26T15:55:26Z</time>
      </trkpt>
      <trkpt lat="43.72463" lon="3.67574">
        <ele>266.42</ele>
        <time>2014-10-26T15:55:27Z</time>
      </trkpt>
      <trkpt lat="43.72453" lon="3.67587">
        <ele>266.42</ele>
        <time>2014-10-26T15:55:28Z</time>
      </trkpt>
      <trkpt lat="43.72444" lon="3.67601">
        <ele>266.42</ele>
        <time>2014-10-26T15:55:29Z</time>
      </trkpt>
      <trkpt lat="43.72421" lon="3.67637">
        <ele>265.46</ele>
        <time>2014-10-26T15:55:32Z</time>
      </trkpt>
      <trkpt lat="43.72409" lon="3.67644">
        <ele>265.46</ele>
        <time>2014-10-26T15:55:33Z</time>
      </trkpt>
      <trkpt lat="43.72397" lon="3.67646">
        <ele>264.98</ele>
        <time>2014-10-26T15:55:34Z</time>
      </trkpt>
      <trkpt lat="43.72384" lon="3.67645">
        <ele>264.98</ele>
        <time>2014-10-26T15:55:35Z</time>
      </trkpt>
      <trkpt lat="43.72371" lon="3.67643">
        <ele>264.5</ele>
        <time>2014-10-26T15:55:36Z</time>
      </trkpt>
      <trkpt lat="43.72211" lon="3.67622">
        <ele>261.14</ele>
        <time>2014-10-26T15:55:47Z</time>
      </trkpt>
      <trkpt lat="43.72172" lon="3.67628">
        <ele>260.17</ele>
        <time>2014-10-26T15:55:50Z</time>
      </trkpt>
      <trkpt lat="43.7216" lon="3.67635">
        <ele>259.69</ele>
        <time>2014-10-26T15:55:51Z</time>
      </trkpt>
      <trkpt lat="43.7215" lon="3.67646">
        <ele>259.21</ele>
        <time>2014-10-26T15:55:52Z</time>
      </trkpt>
      <trkpt lat="43.72141" lon="3.6766">
        <ele>258.73</ele>
        <time>2014-10-26T15:55:53Z</time>
      </trkpt>
      <trkpt lat="43.72132" lon="3.67676">
        <ele>258.73</ele>
        <time>2014-10-26T15:55:54Z</time>
      </trkpt>
      <trkpt lat="43.72125" lon="3.67692">
        <ele>258.25</ele>
        <time>2014-10-26T15:55:55Z</time>
      </trkpt>
      <trkpt lat="43.72108" lon="3.67719">
        <ele>257.29</ele>
        <time>2014-10-26T15:55:57Z</time>
      </trkpt>
      <trkpt lat="43.72099" lon="3.6773">
        <ele>256.33</ele>
        <time>2014-10-26T15:55:58Z</time>
      </trkpt>
      <trkpt lat="43.72088" lon="3.67737">
        <ele>255.85</ele>
        <time>2014-10-26T15:55:59Z</time>
      </trkpt>
      <trkpt lat="43.72077" lon="3.67742">
        <ele>255.37</ele>
        <time>2014-10-26T15:56:00Z</time>
      </trkpt>
      <trkpt lat="43.72067" lon="3.67748">
        <ele>254.41</ele>
        <time>2014-10-26T15:56:01Z</time>
      </trkpt>
      <trkpt lat="43.72058" lon="3.67757">
        <ele>253.93</ele>
        <time>2014-10-26T15:56:02Z</time>
      </trkpt>
      <trkpt lat="43.7205" lon="3.67768">
        <ele>252.96</ele>
        <time>2014-10-26T15:56:03Z</time>
      </trkpt>
      <trkpt lat="43.72043" lon="3.6778">
        <ele>252.48</ele>
        <time>2014-10-26T15:56:04Z</time>
      </trkpt>
      <trkpt lat="43.72038" lon="3.67793">
        <ele>251.52</ele>
        <time>2014-10-26T15:56:05Z</time>
      </trkpt>
      <trkpt lat="43.72033" lon="3.67807">
        <ele>250.56</ele>
        <time>2014-10-26T15:56:06Z</time>
      </trkpt>
      <trkpt lat="43.7203" lon="3.67822">
        <ele>249.12</ele>
        <time>2014-10-26T15:56:07Z</time>
      </trkpt>
      <trkpt lat="43.72028" lon="3.67838">
        <ele>248.16</ele>
        <time>2014-10-26T15:56:08Z</time>
      </trkpt>
      <trkpt lat="43.72025" lon="3.67854">
        <ele>246.72</ele>
        <time>2014-10-26T15:56:09Z</time>
      </trkpt>
      <trkpt lat="43.7202" lon="3.67886">
        <ele>244.79</ele>
        <time>2014-10-26T15:56:11Z</time>
      </trkpt>
      <trkpt lat="43.72015" lon="3.67901">
        <ele>243.35</ele>
        <time>2014-10-26T15:56:12Z</time>
      </trkpt>
      <trkpt lat="43.72008" lon="3.67914">
        <ele>242.39</ele>
        <time>2014-10-26T15:56:13Z</time>
      </trkpt>
      <trkpt lat="43.72" lon="3.67925">
        <ele>241.43</ele>
        <time>2014-10-26T15:56:14Z</time>
      </trkpt>
      <trkpt lat="43.71993" lon="3.67935">
        <ele>240.47</ele>
        <time>2014-10-26T15:56:15Z</time>
      </trkpt>
      <trkpt lat="43.71987" lon="3.67947">
        <ele>239.51</ele>
        <time>2014-10-26T15:56:16Z</time>
      </trkpt>
      <trkpt lat="43.71984" lon="3.6796">
        <ele>239.02</ele>
        <time>2014-10-26T15:56:17Z</time>
      </trkpt>
      <trkpt lat="43.71981" lon="3.67973">
        <ele>238.06</ele>
        <time>2014-10-26T15:56:18Z</time>
      </trkpt>
      <trkpt lat="43.71979" lon="3.67988">
        <ele>236.62</ele>
        <time>2014-10-26T15:56:19Z</time>
      </trkpt>
      <trkpt lat="43.71952" lon="3.68101">
        <ele>228.93</ele>
        <time>2014-10-26T15:56:27Z</time>
      </trkpt>
      <trkpt lat="43.71945" lon="3.68112">
        <ele>227.97</ele>
        <time>2014-10-26T15:56:28Z</time>
      </trkpt>
      <trkpt lat="43.71937" lon="3.68121">
        <ele>227.49</ele>
        <time>2014-10-26T15:56:29Z</time>
      </trkpt>
      <trkpt lat="43.71928" lon="3.68127">
        <ele>227.01</ele>
        <time>2014-10-26T15:56:30Z</time>
      </trkpt>
      <trkpt lat="43.71917" lon="3.68131">
        <ele>226.05</ele>
        <time>2014-10-26T15:56:31Z</time>
      </trkpt>
      <trkpt lat="43.71907" lon="3.68136">
        <ele>226.05</ele>
        <time>2014-10-26T15:56:32Z</time>
      </trkpt>
      <trkpt lat="43.71873" lon="3.68143">
        <ele>225.57</ele>
        <time>2014-10-26T15:56:35Z</time>
      </trkpt>
      <trkpt lat="43.71863" lon="3.68141">
        <ele>225.57</ele>
        <time>2014-10-26T15:56:36Z</time>
      </trkpt>
      <trkpt lat="43.71852" lon="3.68136">
        <ele>225.09</ele>
        <time>2014-10-26T15:56:37Z</time>
      </trkpt>
      <trkpt lat="43.71843" lon="3.68128">
        <ele>225.09</ele>
        <time>2014-10-26T15:56:38Z</time>
      </trkpt>
      <trkpt lat="43.71835" lon="3.68117">
        <ele>224.61</ele>
        <time>2014-10-26T15:56:39Z</time>
      </trkpt>
      <trkpt lat="43.71829" lon="3.68103">
        <ele>224.61</ele>
        <time>2014-10-26T15:56:40Z</time>
      </trkpt>
      <trkpt lat="43.71824" lon="3.68089">
        <ele>224.12</ele>
        <time>2014-10-26T15:56:41Z</time>
      </trkpt>
      <trkpt lat="43.7182" lon="3.68076">
        <ele>223.16</ele>
        <time>2014-10-26T15:56:42Z</time>
      </trkpt>
      <trkpt lat="43.71814" lon="3.68064">
        <ele>222.2</ele>
        <time>2014-10-26T15:56:43Z</time>
      </trkpt>
      <trkpt lat="43.71806" lon="3.68053">
        <ele>222.2</ele>
        <time>2014-10-26T15:56:44Z</time>
      </trkpt>
      <trkpt lat="43.71796" lon="3.68046">
        <ele>222.2</ele>
        <time>2014-10-26T15:56:45Z</time>
      </trkpt>
      <trkpt lat="43.71785" lon="3.68042">
        <ele>221.72</ele>
        <time>2014-10-26T15:56:46Z</time>
      </trkpt>
      <trkpt lat="43.71772" lon="3.68038">
        <ele>221.24</ele>
        <time>2014-10-26T15:56:47Z</time>
      </trkpt>
      <trkpt lat="43.7176" lon="3.68033">
        <ele>221.24</ele>
        <time>2014-10-26T15:56:48Z</time>
      </trkpt>
      <trkpt lat="43.71748" lon="3.68026">
        <ele>221.24</ele>
        <time>2014-10-26T15:56:49Z</time>
      </trkpt>
      <trkpt lat="43.71737" lon="3.68017">
        <ele>220.76</ele>
        <time>2014-10-26T15:56:50Z</time>
      </trkpt>
      <trkpt lat="43.71727" lon="3.68006">
        <ele>220.76</ele>
        <time>2014-10-26T15:56:51Z</time>
      </trkpt>
      <trkpt lat="43.71718" lon="3.67995">
        <ele>220.28</ele>
        <time>2014-10-26T15:56:52Z</time>
      </trkpt>
      <trkpt lat="43.71647" lon="3.67928">
        <ele>218.36</ele>
        <time>2014-10-26T15:56:59Z</time>
      </trkpt>
      <trkpt lat="43.71636" lon="3.67925">
        <ele>217.88</ele>
        <time>2014-10-26T15:57:00Z</time>
      </trkpt>
      <trkpt lat="43.71624" lon="3.67926">
        <ele>216.91</ele>
        <time>2014-10-26T15:57:01Z</time>
      </trkpt>
      <trkpt lat="43.71612" lon="3.67932">
        <ele>216.91</ele>
        <time>2014-10-26T15:57:02Z</time>
      </trkpt>
      <trkpt lat="43.71599" lon="3.67938">
        <ele>216.43</ele>
        <time>2014-10-26T15:57:03Z</time>
      </trkpt>
      <trkpt lat="43.71548" lon="3.67958">
        <ele>214.51</ele>
        <time>2014-10-26T15:57:07Z</time>
      </trkpt>
      <trkpt lat="43.71538" lon="3.67967">
        <ele>214.51</ele>
        <time>2014-10-26T15:57:08Z</time>
      </trkpt>
      <trkpt lat="43.71529" lon="3.67978">
        <ele>214.03</ele>
        <time>2014-10-26T15:57:09Z</time>
      </trkpt>
      <trkpt lat="43.71509" lon="3.68003">
        <ele>213.07</ele>
        <time>2014-10-26T15:57:11Z</time>
      </trkpt>
      <trkpt lat="43.71498" lon="3.68014">
        <ele>212.59</ele>
        <time>2014-10-26T15:57:12Z</time>
      </trkpt>
      <trkpt lat="43.71486" lon="3.68021">
        <ele>211.63</ele>
        <time>2014-10-26T15:57:13Z</time>
      </trkpt>
      <trkpt lat="43.71474" lon="3.68027">
        <ele>210.67</ele>
        <time>2014-10-26T15:57:14Z</time>
      </trkpt>
      <trkpt lat="43.71462" lon="3.68031">
        <ele>210.19</ele>
        <time>2014-10-26T15:57:15Z</time>
      </trkpt>
      <trkpt lat="43.7145" lon="3.68037">
        <ele>209.7</ele>
        <time>2014-10-26T15:57:16Z</time>
      </trkpt>
      <trkpt lat="43.71439" lon="3.68045">
        <ele>209.22</ele>
        <time>2014-10-26T15:57:17Z</time>
      </trkpt>
      <trkpt lat="43.7143" lon="3.68056">
        <ele>208.74</ele>
        <time>2014-10-26T15:57:18Z</time>
      </trkpt>
      <trkpt lat="43.71421" lon="3.68069">
        <ele>207.78</ele>
        <time>2014-10-26T15:57:19Z</time>
      </trkpt>
      <trkpt lat="43.71413" lon="3.68083">
        <ele>207.3</ele>
        <time>2014-10-26T15:57:20Z</time>
      </trkpt>
      <trkpt lat="43.71406" lon="3.68096">
        <ele>206.82</ele>
        <time>2014-10-26T15:57:21Z</time>
      </trkpt>
      <trkpt lat="43.71398" lon="3.68108">
        <ele>206.34</ele>
        <time>2014-10-26T15:57:22Z</time>
      </trkpt>
      <trkpt lat="43.7139" lon="3.68118">
        <ele>205.86</ele>
        <time>2014-10-26T15:57:23Z</time>
      </trkpt>
      <trkpt lat="43.7138" lon="3.68126">
        <ele>205.38</ele>
        <time>2014-10-26T15:57:24Z</time>
      </trkpt>
      <trkpt lat="43.71357" lon="3.68139">
        <ele>204.9</ele>
        <time>2014-10-26T15:57:26Z</time>
      </trkpt>
      <trkpt lat="43.71347" lon="3.68149">
        <ele>204.42</ele>
        <time>2014-10-26T15:57:27Z</time>
      </trkpt>
      <trkpt lat="43.71318" lon="3.68183">
        <ele>202.98</ele>
        <time>2014-10-26T15:57:30Z</time>
      </trkpt>
      <trkpt lat="43.71311" lon="3.68194">
        <ele>202.98</ele>
        <time>2014-10-26T15:57:31Z</time>
      </trkpt>
      <trkpt lat="43.71295" lon="3.68221">
        <ele>202.01</ele>
        <time>2014-10-26T15:57:34Z</time>
      </trkpt>
      <trkpt lat="43.71289" lon="3.68227">
        <ele>202.01</ele>
        <time>2014-10-26T15:57:35Z</time>
      </trkpt>
      <trkpt lat="43.71282" lon="3.6823">
        <ele>202.01</ele>
        <time>2014-10-26T15:57:36Z</time>
      </trkpt>
      <trkpt lat="43.71274" lon="3.68229">
        <ele>201.53</ele>
        <time>2014-10-26T15:57:37Z</time>
      </trkpt>
      <trkpt lat="43.71265" lon="3.68226">
        <ele>202.01</ele>
        <time>2014-10-26T15:57:38Z</time>
      </trkpt>
      <trkpt lat="43.71256" lon="3.68223">
        <ele>202.01</ele>
        <time>2014-10-26T15:57:39Z</time>
      </trkpt>
      <trkpt lat="43.71239" lon="3.68217">
        <ele>202.01</ele>
        <time>2014-10-26T15:57:41Z</time>
      </trkpt>
      <trkpt lat="43.71232" lon="3.6821">
        <ele>201.53</ele>
        <time>2014-10-26T15:57:42Z</time>
      </trkpt>
      <trkpt lat="43.71226" lon="3.682">
        <ele>201.53</ele>
        <time>2014-10-26T15:57:43Z</time>
      </trkpt>
      <trkpt lat="43.71223" lon="3.68188">
        <ele>202.01</ele>
        <time>2014-10-26T15:57:44Z</time>
      </trkpt>
      <trkpt lat="43.71221" lon="3.68176">
        <ele>202.01</ele>
        <time>2014-10-26T15:57:45Z</time>
      </trkpt>
      <trkpt lat="43.71219" lon="3.68163">
        <ele>202.01</ele>
        <time>2014-10-26T15:57:46Z</time>
      </trkpt>
      <trkpt lat="43.71212" lon="3.68061">
        <ele>202.01</ele>
        <time>2014-10-26T15:57:53Z</time>
      </trkpt>
      <trkpt lat="43.71209" lon="3.68047">
        <ele>201.53</ele>
        <time>2014-10-26T15:57:54Z</time>
      </trkpt>
      <trkpt lat="43.71205" lon="3.68035">
        <ele>201.05</ele>
        <time>2014-10-26T15:57:55Z</time>
      </trkpt>
      <trkpt lat="43.71198" lon="3.68022">
        <ele>200.57</ele>
        <time>2014-10-26T15:57:56Z</time>
      </trkpt>
      <trkpt lat="43.7119" lon="3.68009">
        <ele>200.09</ele>
        <time>2014-10-26T15:57:57Z</time>
      </trkpt>
      <trkpt lat="43.71181" lon="3.67996">
        <ele>199.61</ele>
        <time>2014-10-26T15:57:58Z</time>
      </trkpt>
      <trkpt lat="43.71171" lon="3.67983">
        <ele>199.61</ele>
        <time>2014-10-26T15:57:59Z</time>
      </trkpt>
      <trkpt lat="43.71161" lon="3.67972">
        <ele>198.65</ele>
        <time>2014-10-26T15:58:00Z</time>
      </trkpt>
      <trkpt lat="43.71122" lon="3.67935">
        <ele>196.73</ele>
        <time>2014-10-26T15:58:04Z</time>
      </trkpt>
      <trkpt lat="43.71112" lon="3.6793">
        <ele>196.25</ele>
        <time>2014-10-26T15:58:05Z</time>
      </trkpt>
      <trkpt lat="43.71101" lon="3.67928">
        <ele>195.28</ele>
        <time>2014-10-26T15:58:06Z</time>
      </trkpt>
      <trkpt lat="43.71089" lon="3.6793">
        <ele>194.32</ele>
        <time>2014-10-26T15:58:07Z</time>
      </trkpt>
      <trkpt lat="43.71077" lon="3.67935">
        <ele>193.84</ele>
        <time>2014-10-26T15:58:08Z</time>
      </trkpt>
      <trkpt lat="43.71065" lon="3.6794">
        <ele>192.88</ele>
        <time>2014-10-26T15:58:09Z</time>
      </trkpt>
      <trkpt lat="43.71004" lon="3.67964">
        <ele>190.96</ele>
        <time>2014-10-26T15:58:14Z</time>
      </trkpt>
      <trkpt lat="43.70993" lon="3.67965">
        <ele>190.48</ele>
        <time>2014-10-26T15:58:15Z</time>
      </trkpt>
      <trkpt lat="43.70983" lon="3.67961">
        <ele>190</ele>
        <time>2014-10-26T15:58:16Z</time>
      </trkpt>
      <trkpt lat="43.70975" lon="3.67955">
        <ele>190</ele>
        <time>2014-10-26T15:58:17Z</time>
      </trkpt>
      <trkpt lat="43.7097" lon="3.67948">
        <ele>190</ele>
        <time>2014-10-26T15:58:18Z</time>
      </trkpt>
      <trkpt lat="43.70967" lon="3.67942">
        <ele>190.48</ele>
        <time>2014-10-26T15:58:19Z</time>
      </trkpt>
      <trkpt lat="43.70965" lon="3.67935">
        <ele>190.48</ele>
        <time>2014-10-26T15:58:20Z</time>
      </trkpt>
      <trkpt lat="43.70963" lon="3.67927">
        <ele>190.48</ele>
        <time>2014-10-26T15:58:21Z</time>
      </trkpt>
      <trkpt lat="43.70961" lon="3.67918">
        <ele>190.96</ele>
        <time>2014-10-26T15:58:22Z</time>
      </trkpt>
      <trkpt lat="43.70961" lon="3.67909">
        <ele>190.96</ele>
        <time>2014-10-26T15:58:23Z</time>
      </trkpt>
      <trkpt lat="43.7096" lon="3.67898">
        <ele>190.96</ele>
        <time>2014-10-26T15:58:24Z</time>
      </trkpt>
      <trkpt lat="43.70957" lon="3.67768">
        <ele>192.4</ele>
        <time>2014-10-26T15:58:32Z</time>
      </trkpt>
      <trkpt lat="43.70948" lon="3.67531">
        <ele>198.65</ele>
        <time>2014-10-26T15:58:44Z</time>
      </trkpt>
      <trkpt lat="43.70945" lon="3.67463">
        <ele>201.53</ele>
        <time>2014-10-26T15:58:49Z</time>
      </trkpt>
      <trkpt lat="43.70942" lon="3.67456">
        <ele>201.53</ele>
        <time>2014-10-26T15:58:50Z</time>
      </trkpt>
      <trkpt lat="43.70938" lon="3.67453">
        <ele>202.01</ele>
        <time>2014-10-26T15:58:51Z</time>
      </trkpt>
      <trkpt lat="43.70932" lon="3.67454">
        <ele>202.01</ele>
        <time>2014-10-26T15:58:52Z</time>
      </trkpt>
      <trkpt lat="43.70926" lon="3.6746">
        <ele>202.49</ele>
        <time>2014-10-26T15:58:53Z</time>
      </trkpt>
      <trkpt lat="43.70918" lon="3.67468">
        <ele>202.98</ele>
        <time>2014-10-26T15:58:54Z</time>
      </trkpt>
      <trkpt lat="43.70909" lon="3.67476">
        <ele>203.46</ele>
        <time>2014-10-26T15:58:55Z</time>
      </trkpt>
      <trkpt lat="43.70887" lon="3.67492">
        <ele>204.9</ele>
        <time>2014-10-26T15:58:57Z</time>
      </trkpt>
      <trkpt lat="43.70876" lon="3.67504">
        <ele>205.38</ele>
        <time>2014-10-26T15:58:58Z</time>
      </trkpt>
      <trkpt lat="43.70867" lon="3.67517">
        <ele>205.86</ele>
        <time>2014-10-26T15:58:59Z</time>
      </trkpt>
      <trkpt lat="43.70851" lon="3.6754">
        <ele>206.82</ele>
        <time>2014-10-26T15:59:01Z</time>
      </trkpt>
      <trkpt lat="43.70843" lon="3.67548">
        <ele>207.78</ele>
        <time>2014-10-26T15:59:02Z</time>
      </trkpt>
      <trkpt lat="43.70834" lon="3.67554">
        <ele>208.74</ele>
        <time>2014-10-26T15:59:03Z</time>
      </trkpt>
      <trkpt lat="43.70824" lon="3.67557">
        <ele>209.22</ele>
        <time>2014-10-26T15:59:04Z</time>
      </trkpt>
      <trkpt lat="43.70814" lon="3.67558">
        <ele>210.19</ele>
        <time>2014-10-26T15:59:05Z</time>
      </trkpt>
      <trkpt lat="43.70806" lon="3.67558">
        <ele>211.15</ele>
        <time>2014-10-26T15:59:06Z</time>
      </trkpt>
      <trkpt lat="43.70783" lon="3.6756">
        <ele>212.11</ele>
        <time>2014-10-26T15:59:10Z</time>
      </trkpt>
      <trkpt lat="43.70779" lon="3.67558">
        <ele>212.59</ele>
        <time>2014-10-26T15:59:11Z</time>
      </trkpt>
      <trkpt lat="43.70776" lon="3.67555">
        <ele>213.07</ele>
        <time>2014-10-26T15:59:12Z</time>
      </trkpt>
      <trkpt lat="43.70776" lon="3.67549">
        <ele>213.07</ele>
        <time>2014-10-26T15:59:13Z</time>
      </trkpt>
      <trkpt lat="43.70778" lon="3.67545">
        <ele>213.55</ele>
        <time>2014-10-26T15:59:14Z</time>
      </trkpt>
      <trkpt lat="43.70782" lon="3.67543">
        <ele>213.07</ele>
        <time>2014-10-26T15:59:15Z</time>
      </trkpt>
      <trkpt lat="43.70789" lon="3.67542">
        <ele>213.55</ele>
        <time>2014-10-26T15:59:16Z</time>
      </trkpt>
      <trkpt lat="43.70797" lon="3.67544">
        <ele>214.51</ele>
        <time>2014-10-26T15:59:17Z</time>
      </trkpt>
      <trkpt lat="43.70825" lon="3.67542">
        <ele>215.47</ele>
        <time>2014-10-26T15:59:20Z</time>
      </trkpt>
      <trkpt lat="43.70833" lon="3.67539">
        <ele>215.95</ele>
        <time>2014-10-26T15:59:21Z</time>
      </trkpt>
      <trkpt lat="43.70841" lon="3.67529">
        <ele>216.43</ele>
        <time>2014-10-26T15:59:22Z</time>
      </trkpt>
      <trkpt lat="43.70847" lon="3.67517">
        <ele>216.91</ele>
        <time>2014-10-26T15:59:23Z</time>
      </trkpt>
      <trkpt lat="43.70852" lon="3.67502">
        <ele>217.88</ele>
        <time>2014-10-26T15:59:24Z</time>
      </trkpt>
      <trkpt lat="43.70857" lon="3.67486">
        <ele>218.84</ele>
        <time>2014-10-26T15:59:25Z</time>
      </trkpt>
      <trkpt lat="43.70875" lon="3.67422">
        <ele>222.68</ele>
        <time>2014-10-26T15:59:29Z</time>
      </trkpt>
      <trkpt lat="43.70881" lon="3.67405">
        <ele>223.64</ele>
        <time>2014-10-26T15:59:30Z</time>
      </trkpt>
      <trkpt lat="43.7089" lon="3.6739">
        <ele>224.12</ele>
        <time>2014-10-26T15:59:31Z</time>
      </trkpt>
      <trkpt lat="43.70939" lon="3.67254">
        <ele>229.89</ele>
        <time>2014-10-26T15:59:39Z</time>
      </trkpt>
      <trkpt lat="43.70946" lon="3.67187">
        <ele>231.33</ele>
        <time>2014-10-26T15:59:43Z</time>
      </trkpt>
      <trkpt lat="43.70945" lon="3.67171">
        <ele>231.81</ele>
        <time>2014-10-26T15:59:44Z</time>
      </trkpt>
      <trkpt lat="43.70942" lon="3.67158">
        <ele>231.81</ele>
        <time>2014-10-26T15:59:45Z</time>
      </trkpt>
      <trkpt lat="43.70939" lon="3.67147">
        <ele>232.3</ele>
        <time>2014-10-26T15:59:46Z</time>
      </trkpt>
      <trkpt lat="43.70936" lon="3.67137">
        <ele>231.81</ele>
        <time>2014-10-26T15:59:47Z</time>
      </trkpt>
      <trkpt lat="43.70931" lon="3.67128">
        <ele>231.81</ele>
        <time>2014-10-26T15:59:48Z</time>
      </trkpt>
      <trkpt lat="43.70925" lon="3.67119">
        <ele>231.81</ele>
        <time>2014-10-26T15:59:49Z</time>
      </trkpt>
      <trkpt lat="43.70905" lon="3.6709">
        <ele>232.78</ele>
        <time>2014-10-26T15:59:52Z</time>
      </trkpt>
      <trkpt lat="43.70896" lon="3.67083">
        <ele>232.78</ele>
        <time>2014-10-26T15:59:53Z</time>
      </trkpt>
      <trkpt lat="43.70886" lon="3.67077">
        <ele>233.26</ele>
        <time>2014-10-26T15:59:54Z</time>
      </trkpt>
      <trkpt lat="43.70875" lon="3.67071">
        <ele>233.74</ele>
        <time>2014-10-26T15:59:55Z</time>
      </trkpt>
      <trkpt lat="43.70862" lon="3.67067">
        <ele>233.74</ele>
        <time>2014-10-26T15:59:56Z</time>
      </trkpt>
      <trkpt lat="43.70787" lon="3.67042">
        <ele>235.66</ele>
        <time>2014-10-26T16:00:02Z</time>
      </trkpt>
      <trkpt lat="43.70772" lon="3.6704">
        <ele>235.66</ele>
        <time>2014-10-26T16:00:03Z</time>
      </trkpt>
      <trkpt lat="43.7061" lon="3.67036">
        <ele>236.14</ele>
        <time>2014-10-26T16:00:13Z</time>
      </trkpt>
      <trkpt lat="43.7051" lon="3.67037">
        <ele>236.62</ele>
        <time>2014-10-26T16:00:19Z</time>
      </trkpt>
      <trkpt lat="43.70493" lon="3.67042">
        <ele>237.1</ele>
        <time>2014-10-26T16:00:20Z</time>
      </trkpt>
      <trkpt lat="43.70476" lon="3.67049">
        <ele>237.1</ele>
        <time>2014-10-26T16:00:21Z</time>
      </trkpt>
      <trkpt lat="43.70375" lon="3.67103">
        <ele>238.06</ele>
        <time>2014-10-26T16:00:29Z</time>
      </trkpt>
      <trkpt lat="43.70339" lon="3.67133">
        <ele>236.62</ele>
        <time>2014-10-26T16:00:36Z</time>
      </trkpt>
      <trkpt lat="43.70277" lon="3.67185">
        <ele>235.18</ele>
        <time>2014-10-26T16:00:47Z</time>
      </trkpt>
      <trkpt lat="43.70209" lon="3.67233">
        <ele>233.26</ele>
        <time>2014-10-26T16:00:58Z</time>
      </trkpt>
      <trkpt lat="43.70125" lon="3.67295">
        <ele>230.85</ele>
        <time>2014-10-26T16:01:11Z</time>
      </trkpt>
      <trkpt lat="43.70052" lon="3.6734">
        <ele>231.33</ele>
        <time>2014-10-26T16:01:23Z</time>
      </trkpt>
      <trkpt lat="43.70046" lon="3.67339">
        <ele>232.3</ele>
        <time>2014-10-26T16:01:32Z</time>
      </trkpt>
      <trkpt lat="43.70038" lon="3.67341">
        <ele>232.3</ele>
        <time>2014-10-26T16:01:39Z</time>
      </trkpt>
      <trkpt lat="43.70032" lon="3.67344">
        <ele>232.3</ele>
        <time>2014-10-26T16:01:40Z</time>
      </trkpt>
      <trkpt lat="43.6996" lon="3.67373">
        <ele>232.3</ele>
        <time>2014-10-26T16:01:49Z</time>
      </trkpt>
      <trkpt lat="43.69864" lon="3.67407">
        <ele>233.74</ele>
        <time>2014-10-26T16:02:01Z</time>
      </trkpt>
      <trkpt lat="43.69798" lon="3.67433">
        <ele>238.06</ele>
        <time>2014-10-26T16:02:11Z</time>
      </trkpt>
      <trkpt lat="43.69743" lon="3.67456">
        <ele>240.47</ele>
        <time>2014-10-26T16:02:20Z</time>
      </trkpt>
      <trkpt lat="43.69682" lon="3.6746">
        <ele>240.47</ele>
        <time>2014-10-26T16:02:30Z</time>
      </trkpt>
      <trkpt lat="43.69601" lon="3.67465">
        <ele>238.06</ele>
        <time>2014-10-26T16:02:40Z</time>
      </trkpt>
      <trkpt lat="43.69483" lon="3.67481">
        <ele>231.81</ele>
        <time>2014-10-26T16:02:51Z</time>
      </trkpt>
      <trkpt lat="43.6938" lon="3.6752">
        <ele>229.41</ele>
        <time>2014-10-26T16:03:02Z</time>
      </trkpt>
      <trkpt lat="43.69373" lon="3.67524">
        <ele>228.93</ele>
        <time>2014-10-26T16:03:03Z</time>
      </trkpt>
      <trkpt lat="43.69366" lon="3.67527">
        <ele>228.45</ele>
        <time>2014-10-26T16:03:04Z</time>
      </trkpt>
      <trkpt lat="43.69361" lon="3.67529">
        <ele>228.93</ele>
        <time>2014-10-26T16:03:05Z</time>
      </trkpt>
      <trkpt lat="43.69357" lon="3.67532">
        <ele>228.93</ele>
        <time>2014-10-26T16:03:06Z</time>
      </trkpt>
      <trkpt lat="43.69354" lon="3.67537">
        <ele>228.45</ele>
        <time>2014-10-26T16:03:07Z</time>
      </trkpt>
      <trkpt lat="43.69353" lon="3.67546">
        <ele>228.45</ele>
        <time>2014-10-26T16:03:08Z</time>
      </trkpt>
      <trkpt lat="43.69352" lon="3.67558">
        <ele>228.45</ele>
        <time>2014-10-26T16:03:09Z</time>
      </trkpt>
      <trkpt lat="43.69322" lon="3.67685">
        <ele>225.57</ele>
        <time>2014-10-26T16:03:18Z</time>
      </trkpt>
      <trkpt lat="43.69315" lon="3.67701">
        <ele>225.09</ele>
        <time>2014-10-26T16:03:19Z</time>
      </trkpt>
      <trkpt lat="43.69308" lon="3.67716">
        <ele>224.61</ele>
        <time>2014-10-26T16:03:20Z</time>
      </trkpt>
      <trkpt lat="43.69288" lon="3.67767">
        <ele>223.64</ele>
        <time>2014-10-26T16:03:23Z</time>
      </trkpt>
      <trkpt lat="43.69284" lon="3.67785">
        <ele>223.16</ele>
        <time>2014-10-26T16:03:24Z</time>
      </trkpt>
      <trkpt lat="43.69281" lon="3.67803">
        <ele>223.16</ele>
        <time>2014-10-26T16:03:25Z</time>
      </trkpt>
      <trkpt lat="43.69266" lon="3.67908">
        <ele>220.76</ele>
        <time>2014-10-26T16:03:31Z</time>
      </trkpt>
      <trkpt lat="43.6926" lon="3.67925">
        <ele>220.28</ele>
        <time>2014-10-26T16:03:32Z</time>
      </trkpt>
      <trkpt lat="43.69254" lon="3.67941">
        <ele>219.8</ele>
        <time>2014-10-26T16:03:33Z</time>
      </trkpt>
      <trkpt lat="43.6921" lon="3.68053">
        <ele>216.91</ele>
        <time>2014-10-26T16:03:38Z</time>
      </trkpt>
      <trkpt lat="43.69151" lon="3.68222">
        <ele>212.11</ele>
        <time>2014-10-26T16:03:45Z</time>
      </trkpt>
      <trkpt lat="43.6914" lon="3.68242">
        <ele>211.63</ele>
        <time>2014-10-26T16:03:46Z</time>
      </trkpt>
      <trkpt lat="43.69126" lon="3.6826">
        <ele>210.67</ele>
        <time>2014-10-26T16:03:47Z</time>
      </trkpt>
      <trkpt lat="43.68978" lon="3.68417">
        <ele>202.01</ele>
        <time>2014-10-26T16:03:56Z</time>
      </trkpt>
      <trkpt lat="43.68959" lon="3.68428">
        <ele>201.05</ele>
        <time>2014-10-26T16:03:57Z</time>
      </trkpt>
      <trkpt lat="43.68923" lon="3.68452">
        <ele>199.61</ele>
        <time>2014-10-26T16:03:59Z</time>
      </trkpt>
      <trkpt lat="43.68906" lon="3.68468">
        <ele>199.13</ele>
        <time>2014-10-26T16:04:00Z</time>
      </trkpt>
      <trkpt lat="43.6889" lon="3.68486">
        <ele>197.69</ele>
        <time>2014-10-26T16:04:01Z</time>
      </trkpt>
      <trkpt lat="43.68816" lon="3.68567">
        <ele>193.84</ele>
        <time>2014-10-26T16:04:06Z</time>
      </trkpt>
      <trkpt lat="43.68799" lon="3.68579">
        <ele>192.88</ele>
        <time>2014-10-26T16:04:07Z</time>
      </trkpt>
      <trkpt lat="43.6878" lon="3.68587">
        <ele>192.4</ele>
        <time>2014-10-26T16:04:08Z</time>
      </trkpt>
      <trkpt lat="43.6876" lon="3.68592">
        <ele>191.44</ele>
        <time>2014-10-26T16:04:09Z</time>
      </trkpt>
      <trkpt lat="43.68739" lon="3.68595">
        <ele>190.48</ele>
        <time>2014-10-26T16:04:10Z</time>
      </trkpt>
      <trkpt lat="43.6862" lon="3.68617">
        <ele>185.67</ele>
        <time>2014-10-26T16:04:16Z</time>
      </trkpt>
      <trkpt lat="43.68601" lon="3.68627">
        <ele>185.19</ele>
        <time>2014-10-26T16:04:17Z</time>
      </trkpt>
      <trkpt lat="43.68582" lon="3.6864">
        <ele>184.71</ele>
        <time>2014-10-26T16:04:18Z</time>
      </trkpt>
      <trkpt lat="43.68358" lon="3.68813">
        <ele>175.58</ele>
        <time>2014-10-26T16:04:30Z</time>
      </trkpt>
      <trkpt lat="43.68345" lon="3.68832">
        <ele>175.58</ele>
        <time>2014-10-26T16:04:31Z</time>
      </trkpt>
      <trkpt lat="43.68334" lon="3.68854">
        <ele>175.1</ele>
        <time>2014-10-26T16:04:32Z</time>
      </trkpt>
      <trkpt lat="43.68325" lon="3.68876">
        <ele>174.62</ele>
        <time>2014-10-26T16:04:33Z</time>
      </trkpt>
      <trkpt lat="43.68316" lon="3.68898">
        <ele>174.62</ele>
        <time>2014-10-26T16:04:34Z</time>
      </trkpt>
      <trkpt lat="43.68196" lon="3.69176">
        <ele>170.77</ele>
        <time>2014-10-26T16:04:46Z</time>
      </trkpt>
      <trkpt lat="43.68176" lon="3.69217">
        <ele>169.81</ele>
        <time>2014-10-26T16:04:48Z</time>
      </trkpt>
      <trkpt lat="43.68164" lon="3.69234">
        <ele>169.33</ele>
        <time>2014-10-26T16:04:49Z</time>
      </trkpt>
      <trkpt lat="43.68151" lon="3.69248">
        <ele>168.85</ele>
        <time>2014-10-26T16:04:50Z</time>
      </trkpt>
      <trkpt lat="43.68136" lon="3.69258">
        <ele>168.37</ele>
        <time>2014-10-26T16:04:51Z</time>
      </trkpt>
      <trkpt lat="43.68119" lon="3.69261">
        <ele>167.89</ele>
        <time>2014-10-26T16:04:52Z</time>
      </trkpt>
      <trkpt lat="43.68101" lon="3.6926">
        <ele>166.93</ele>
        <time>2014-10-26T16:04:53Z</time>
      </trkpt>
      <trkpt lat="43.68085" lon="3.69257">
        <ele>166.45</ele>
        <time>2014-10-26T16:04:54Z</time>
      </trkpt>
      <trkpt lat="43.68069" lon="3.69252">
        <ele>165.96</ele>
        <time>2014-10-26T16:04:55Z</time>
      </trkpt>
      <trkpt lat="43.68053" lon="3.69248">
        <ele>165.48</ele>
        <time>2014-10-26T16:04:56Z</time>
      </trkpt>
      <trkpt lat="43.67953" lon="3.69235">
        <ele>161.16</ele>
        <time>2014-10-26T16:05:02Z</time>
      </trkpt>
      <trkpt lat="43.67936" lon="3.6923">
        <ele>160.68</ele>
        <time>2014-10-26T16:05:03Z</time>
      </trkpt>
      <trkpt lat="43.67743" lon="3.69147">
        <ele>155.87</ele>
        <time>2014-10-26T16:05:14Z</time>
      </trkpt>
      <trkpt lat="43.6769" lon="3.69124">
        <ele>153.47</ele>
        <time>2014-10-26T16:05:17Z</time>
      </trkpt>
      <trkpt lat="43.67672" lon="3.69121">
        <ele>152.99</ele>
        <time>2014-10-26T16:05:18Z</time>
      </trkpt>
      <trkpt lat="43.67653" lon="3.69122">
        <ele>152.03</ele>
        <time>2014-10-26T16:05:19Z</time>
      </trkpt>
      <trkpt lat="43.67635" lon="3.69125">
        <ele>151.06</ele>
        <time>2014-10-26T16:05:20Z</time>
      </trkpt>
      <trkpt lat="43.67616" lon="3.69131">
        <ele>151.06</ele>
        <time>2014-10-26T16:05:21Z</time>
      </trkpt>
      <trkpt lat="43.67596" lon="3.69138">
        <ele>151.06</ele>
        <time>2014-10-26T16:05:22Z</time>
      </trkpt>
      <trkpt lat="43.67428" lon="3.69169">
        <ele>150.1</ele>
        <time>2014-10-26T16:05:31Z</time>
      </trkpt>
      <trkpt lat="43.67347" lon="3.69172">
        <ele>146.74</ele>
        <time>2014-10-26T16:05:37Z</time>
      </trkpt>
      <trkpt lat="43.67287" lon="3.69175">
        <ele>145.3</ele>
        <time>2014-10-26T16:05:43Z</time>
      </trkpt>
      <trkpt lat="43.67275" lon="3.69178">
        <ele>144.82</ele>
        <time>2014-10-26T16:05:44Z</time>
      </trkpt>
      <trkpt lat="43.67184" lon="3.69213">
        <ele>145.3</ele>
        <time>2014-10-26T16:05:50Z</time>
      </trkpt>
      <trkpt lat="43.67153" lon="3.69234">
        <ele>146.26</ele>
        <time>2014-10-26T16:05:52Z</time>
      </trkpt>
      <trkpt lat="43.67138" lon="3.69246">
        <ele>146.74</ele>
        <time>2014-10-26T16:05:53Z</time>
      </trkpt>
      <trkpt lat="43.67002" lon="3.69324">
        <ele>146.74</ele>
        <time>2014-10-26T16:06:01Z</time>
      </trkpt>
      <trkpt lat="43.66982" lon="3.69325">
        <ele>147.22</ele>
        <time>2014-10-26T16:06:02Z</time>
      </trkpt>
      <trkpt lat="43.66928" lon="3.69331">
        <ele>147.22</ele>
        <time>2014-10-26T16:06:05Z</time>
      </trkpt>
      <trkpt lat="43.66912" lon="3.69337">
        <ele>146.74</ele>
        <time>2014-10-26T16:06:06Z</time>
      </trkpt>
      <trkpt lat="43.66896" lon="3.69345">
        <ele>146.74</ele>
        <time>2014-10-26T16:06:07Z</time>
      </trkpt>
      <trkpt lat="43.6688" lon="3.69358">
        <ele>145.78</ele>
        <time>2014-10-26T16:06:08Z</time>
      </trkpt>
      <trkpt lat="43.66866" lon="3.69372">
        <ele>145.78</ele>
        <time>2014-10-26T16:06:09Z</time>
      </trkpt>
      <trkpt lat="43.66823" lon="3.6941">
        <ele>142.41</ele>
        <time>2014-10-26T16:06:12Z</time>
      </trkpt>
      <trkpt lat="43.66806" lon="3.6942">
        <ele>141.93</ele>
        <time>2014-10-26T16:06:13Z</time>
      </trkpt>
      <trkpt lat="43.66788" lon="3.69429">
        <ele>141.45</ele>
        <time>2014-10-26T16:06:14Z</time>
      </trkpt>
      <trkpt lat="43.66613" lon="3.69492">
        <ele>137.13</ele>
        <time>2014-10-26T16:06:23Z</time>
      </trkpt>
      <trkpt lat="43.66376" lon="3.69597">
        <ele>132.32</ele>
        <time>2014-10-26T16:06:35Z</time>
      </trkpt>
      <trkpt lat="43.66318" lon="3.69613">
        <ele>129.92</ele>
        <time>2014-10-26T16:06:38Z</time>
      </trkpt>
      <trkpt lat="43.66297" lon="3.69611">
        <ele>129.43</ele>
        <time>2014-10-26T16:06:39Z</time>
      </trkpt>
      <trkpt lat="43.66197" lon="3.6959">
        <ele>126.07</ele>
        <time>2014-10-26T16:06:44Z</time>
      </trkpt>
      <trkpt lat="43.66179" lon="3.69578">
        <ele>125.59</ele>
        <time>2014-10-26T16:06:45Z</time>
      </trkpt>
      <trkpt lat="43.66094" lon="3.69528">
        <ele>125.11</ele>
        <time>2014-10-26T16:06:50Z</time>
      </trkpt>
      <trkpt lat="43.66079" lon="3.69526">
        <ele>124.63</ele>
        <time>2014-10-26T16:06:51Z</time>
      </trkpt>
      <trkpt lat="43.66064" lon="3.69528">
        <ele>124.15</ele>
        <time>2014-10-26T16:06:52Z</time>
      </trkpt>
      <trkpt lat="43.66049" lon="3.69534">
        <ele>123.67</ele>
        <time>2014-10-26T16:06:53Z</time>
      </trkpt>
      <trkpt lat="43.66033" lon="3.69543">
        <ele>123.67</ele>
        <time>2014-10-26T16:06:54Z</time>
      </trkpt>
      <trkpt lat="43.66016" lon="3.69552">
        <ele>123.67</ele>
        <time>2014-10-26T16:06:55Z</time>
      </trkpt>
      <trkpt lat="43.65882" lon="3.6964">
        <ele>122.71</ele>
        <time>2014-10-26T16:07:03Z</time>
      </trkpt>
      <trkpt lat="43.6583" lon="3.69682">
        <ele>119.82</ele>
        <time>2014-10-26T16:07:07Z</time>
      </trkpt>
      <trkpt lat="43.65815" lon="3.69687">
        <ele>118.86</ele>
        <time>2014-10-26T16:07:08Z</time>
      </trkpt>
      <trkpt lat="43.65799" lon="3.69686">
        <ele>118.38</ele>
        <time>2014-10-26T16:07:09Z</time>
      </trkpt>
      <trkpt lat="43.65783" lon="3.69683">
        <ele>118.38</ele>
        <time>2014-10-26T16:07:10Z</time>
      </trkpt>
      <trkpt lat="43.65768" lon="3.69679">
        <ele>117.9</ele>
        <time>2014-10-26T16:07:11Z</time>
      </trkpt>
      <trkpt lat="43.65738" lon="3.69676">
        <ele>117.9</ele>
        <time>2014-10-26T16:07:13Z</time>
      </trkpt>
      <trkpt lat="43.65724" lon="3.69678">
        <ele>117.9</ele>
        <time>2014-10-26T16:07:14Z</time>
      </trkpt>
      <trkpt lat="43.65621" lon="3.69687">
        <ele>119.34</ele>
        <time>2014-10-26T16:07:22Z</time>
      </trkpt>
      <trkpt lat="43.65604" lon="3.69693">
        <ele>120.3</ele>
        <time>2014-10-26T16:07:24Z</time>
      </trkpt>
      <trkpt lat="43.65595" lon="3.69698">
        <ele>120.78</ele>
        <time>2014-10-26T16:07:25Z</time>
      </trkpt>
      <trkpt lat="43.65586" lon="3.69704">
        <ele>120.78</ele>
        <time>2014-10-26T16:07:26Z</time>
      </trkpt>
      <trkpt lat="43.65577" lon="3.69712">
        <ele>120.78</ele>
        <time>2014-10-26T16:07:27Z</time>
      </trkpt>
      <trkpt lat="43.65568" lon="3.69721">
        <ele>120.78</ele>
        <time>2014-10-26T16:07:28Z</time>
      </trkpt>
      <trkpt lat="43.65559" lon="3.69731">
        <ele>120.78</ele>
        <time>2014-10-26T16:07:29Z</time>
      </trkpt>
      <trkpt lat="43.65471" lon="3.69823">
        <ele>119.34</ele>
        <time>2014-10-26T16:07:38Z</time>
      </trkpt>
      <trkpt lat="43.65412" lon="3.69869">
        <ele>117.42</ele>
        <time>2014-10-26T16:07:44Z</time>
      </trkpt>
      <trkpt lat="43.65405" lon="3.69872">
        <ele>116.94</ele>
        <time>2014-10-26T16:07:45Z</time>
      </trkpt>
      <trkpt lat="43.65398" lon="3.69873">
        <ele>116.46</ele>
        <time>2014-10-26T16:07:46Z</time>
      </trkpt>
      <trkpt lat="43.65391" lon="3.69872">
        <ele>116.46</ele>
        <time>2014-10-26T16:07:47Z</time>
      </trkpt>
      <trkpt lat="43.65384" lon="3.6987">
        <ele>116.46</ele>
        <time>2014-10-26T16:07:48Z</time>
      </trkpt>
      <trkpt lat="43.65376" lon="3.69866">
        <ele>116.46</ele>
        <time>2014-10-26T16:07:49Z</time>
      </trkpt>
      <trkpt lat="43.65368" lon="3.69861">
        <ele>116.46</ele>
        <time>2014-10-26T16:07:50Z</time>
      </trkpt>
      <trkpt lat="43.65307" lon="3.69819">
        <ele>119.82</ele>
        <time>2014-10-26T16:07:59Z</time>
      </trkpt>
      <trkpt lat="43.6522" lon="3.69764">
        <ele>123.67</ele>
        <time>2014-10-26T16:08:11Z</time>
      </trkpt>
      <trkpt lat="43.65146" lon="3.6972">
        <ele>124.63</ele>
        <time>2014-10-26T16:08:21Z</time>
      </trkpt>
      <trkpt lat="43.65132" lon="3.69718">
        <ele>124.15</ele>
        <time>2014-10-26T16:08:29Z</time>
      </trkpt>
      <trkpt lat="43.65123" lon="3.69719">
        <ele>123.67</ele>
        <time>2014-10-26T16:08:42Z</time>
      </trkpt>
      <trkpt lat="43.65116" lon="3.69721">
        <ele>123.19</ele>
        <time>2014-10-26T16:08:43Z</time>
      </trkpt>
      <trkpt lat="43.65107" lon="3.69724">
        <ele>122.71</ele>
        <time>2014-10-26T16:08:44Z</time>
      </trkpt>
      <trkpt lat="43.65099" lon="3.69728">
        <ele>122.22</ele>
        <time>2014-10-26T16:08:45Z</time>
      </trkpt>
      <trkpt lat="43.6509" lon="3.69734">
        <ele>121.74</ele>
        <time>2014-10-26T16:08:46Z</time>
      </trkpt>
      <trkpt lat="43.65081" lon="3.69741">
        <ele>122.22</ele>
        <time>2014-10-26T16:08:47Z</time>
      </trkpt>
      <trkpt lat="43.65031" lon="3.69781">
        <ele>120.78</ele>
        <time>2014-10-26T16:08:54Z</time>
      </trkpt>
      <trkpt lat="43.65021" lon="3.69789">
        <ele>119.34</ele>
        <time>2014-10-26T16:08:56Z</time>
      </trkpt>
      <trkpt lat="43.6496" lon="3.6984">
        <ele>117.42</ele>
        <time>2014-10-26T16:09:09Z</time>
      </trkpt>
      <trkpt lat="43.64954" lon="3.69841">
        <ele>118.38</ele>
        <time>2014-10-26T16:09:10Z</time>
      </trkpt>
      <trkpt lat="43.64948" lon="3.6984">
        <ele>118.86</ele>
        <time>2014-10-26T16:09:11Z</time>
      </trkpt>
      <trkpt lat="43.64942" lon="3.6984">
        <ele>119.82</ele>
        <time>2014-10-26T16:09:12Z</time>
      </trkpt>
      <trkpt lat="43.64936" lon="3.69839">
        <ele>119.82</ele>
        <time>2014-10-26T16:09:13Z</time>
      </trkpt>
      <trkpt lat="43.6493" lon="3.69838">
        <ele>119.82</ele>
        <time>2014-10-26T16:09:14Z</time>
      </trkpt>
      <trkpt lat="43.64924" lon="3.69837">
        <ele>120.78</ele>
        <time>2014-10-26T16:09:15Z</time>
      </trkpt>
      <trkpt lat="43.64919" lon="3.69837">
        <ele>121.74</ele>
        <time>2014-10-26T16:09:16Z</time>
      </trkpt>
      <trkpt lat="43.64891" lon="3.69836">
        <ele>124.63</ele>
        <time>2014-10-26T16:09:21Z</time>
      </trkpt>
      <trkpt lat="43.64859" lon="3.69831">
        <ele>127.03</ele>
        <time>2014-10-26T16:09:30Z</time>
      </trkpt>
      <trkpt lat="43.64829" lon="3.69807">
        <ele>125.59</ele>
        <time>2014-10-26T16:09:37Z</time>
      </trkpt>
      <trkpt lat="43.64767" lon="3.69761">
        <ele>121.26</ele>
        <time>2014-10-26T16:09:46Z</time>
      </trkpt>
      <trkpt lat="43.6472" lon="3.69732">
        <ele>119.34</ele>
        <time>2014-10-26T16:09:56Z</time>
      </trkpt>
      <trkpt lat="43.64716" lon="3.69732">
        <ele>118.86</ele>
        <time>2014-10-26T16:09:57Z</time>
      </trkpt>
      <trkpt lat="43.64712" lon="3.69734">
        <ele>118.86</ele>
        <time>2014-10-26T16:09:58Z</time>
      </trkpt>
      <trkpt lat="43.6471" lon="3.69739">
        <ele>118.86</ele>
        <time>2014-10-26T16:09:59Z</time>
      </trkpt>
      <trkpt lat="43.64708" lon="3.69745">
        <ele>118.38</ele>
        <time>2014-10-26T16:10:00Z</time>
      </trkpt>
      <trkpt lat="43.64707" lon="3.69753">
        <ele>117.9</ele>
        <time>2014-10-26T16:10:01Z</time>
      </trkpt>
      <trkpt lat="43.64705" lon="3.69761">
        <ele>117.42</ele>
        <time>2014-10-26T16:10:02Z</time>
      </trkpt>
      <trkpt lat="43.64677" lon="3.69877">
        <ele>115.5</ele>
        <time>2014-10-26T16:10:14Z</time>
      </trkpt>
      <trkpt lat="43.64672" lon="3.69899">
        <ele>114.53</ele>
        <time>2014-10-26T16:10:21Z</time>
      </trkpt>
      <trkpt lat="43.64674" lon="3.69915">
        <ele>114.53</ele>
        <time>2014-10-26T16:10:29Z</time>
      </trkpt>
      <trkpt lat="43.64684" lon="3.69992">
        <ele>115.98</ele>
        <time>2014-10-26T16:10:36Z</time>
      </trkpt>
      <trkpt lat="43.6469" lon="3.70099">
        <ele>113.57</ele>
        <time>2014-10-26T16:10:45Z</time>
      </trkpt>
      <trkpt lat="43.64701" lon="3.70213">
        <ele>113.57</ele>
        <time>2014-10-26T16:10:56Z</time>
      </trkpt>
      <trkpt lat="43.64706" lon="3.70231">
        <ele>113.09</ele>
        <time>2014-10-26T16:10:58Z</time>
      </trkpt>
      <trkpt lat="43.64709" lon="3.70239">
        <ele>113.09</ele>
        <time>2014-10-26T16:10:59Z</time>
      </trkpt>
      <trkpt lat="43.64729" lon="3.70285">
        <ele>108.77</ele>
        <time>2014-10-26T16:11:09Z</time>
      </trkpt>
      <trkpt lat="43.64731" lon="3.70292">
        <ele>107.81</ele>
        <time>2014-10-26T16:11:15Z</time>
      </trkpt>
      <trkpt lat="43.64731" lon="3.70297">
        <ele>107.81</ele>
        <time>2014-10-26T16:11:16Z</time>
      </trkpt>
      <trkpt lat="43.64726" lon="3.70307">
        <ele>107.81</ele>
        <time>2014-10-26T16:11:17Z</time>
      </trkpt>
      <trkpt lat="43.64693" lon="3.70372">
        <ele>106.84</ele>
        <time>2014-10-26T16:11:23Z</time>
      </trkpt>
      <trkpt lat="43.64685" lon="3.70386">
        <ele>106.36</ele>
        <time>2014-10-26T16:11:25Z</time>
      </trkpt>
      <trkpt lat="43.6468" lon="3.70391">
        <ele>106.36</ele>
        <time>2014-10-26T16:11:26Z</time>
      </trkpt>
      <trkpt lat="43.64675" lon="3.70394">
        <ele>105.88</ele>
        <time>2014-10-26T16:11:27Z</time>
      </trkpt>
      <trkpt lat="43.6467" lon="3.70398">
        <ele>105.4</ele>
        <time>2014-10-26T16:11:28Z</time>
      </trkpt>
      <trkpt lat="43.64667" lon="3.70404">
        <ele>105.4</ele>
        <time>2014-10-26T16:11:29Z</time>
      </trkpt>
      <trkpt lat="43.64666" lon="3.70413">
        <ele>105.4</ele>
        <time>2014-10-26T16:11:30Z</time>
      </trkpt>
      <trkpt lat="43.64665" lon="3.70423">
        <ele>104.92</ele>
        <time>2014-10-26T16:11:31Z</time>
      </trkpt>
      <trkpt lat="43.64663" lon="3.70434">
        <ele>104.92</ele>
        <time>2014-10-26T16:11:32Z</time>
      </trkpt>
      <trkpt lat="43.64658" lon="3.70445">
        <ele>104.92</ele>
        <time>2014-10-26T16:11:33Z</time>
      </trkpt>
      <trkpt lat="43.64652" lon="3.70458">
        <ele>104.92</ele>
        <time>2014-10-26T16:11:34Z</time>
      </trkpt>
      <trkpt lat="43.64584" lon="3.70611">
        <ele>104.92</ele>
        <time>2014-10-26T16:11:44Z</time>
      </trkpt>
      <trkpt lat="43.64502" lon="3.70856">
        <ele>112.13</ele>
        <time>2014-10-26T16:11:56Z</time>
      </trkpt>
      <trkpt lat="43.64473" lon="3.70912">
        <ele>115.01</ele>
        <time>2014-10-26T16:11:59Z</time>
      </trkpt>
      <trkpt lat="43.6446" lon="3.70929">
        <ele>115.98</ele>
        <time>2014-10-26T16:12:00Z</time>
      </trkpt>
      <trkpt lat="43.64405" lon="3.71019">
        <ele>118.86</ele>
        <time>2014-10-26T16:12:05Z</time>
      </trkpt>
      <trkpt lat="43.64399" lon="3.71042">
        <ele>119.34</ele>
        <time>2014-10-26T16:12:06Z</time>
      </trkpt>
      <trkpt lat="43.64396" lon="3.71068">
        <ele>119.82</ele>
        <time>2014-10-26T16:12:07Z</time>
      </trkpt>
      <trkpt lat="43.64375" lon="3.71293">
        <ele>126.55</ele>
        <time>2014-10-26T16:12:16Z</time>
      </trkpt>
      <trkpt lat="43.64376" lon="3.71315">
        <ele>127.03</ele>
        <time>2014-10-26T16:12:17Z</time>
      </trkpt>
      <trkpt lat="43.6438" lon="3.71337">
        <ele>127.03</ele>
        <time>2014-10-26T16:12:18Z</time>
      </trkpt>
      <trkpt lat="43.64386" lon="3.71358">
        <ele>127.03</ele>
        <time>2014-10-26T16:12:19Z</time>
      </trkpt>
      <trkpt lat="43.64394" lon="3.71379">
        <ele>126.55</ele>
        <time>2014-10-26T16:12:20Z</time>
      </trkpt>
      <trkpt lat="43.64402" lon="3.71399">
        <ele>126.55</ele>
        <time>2014-10-26T16:12:21Z</time>
      </trkpt>
      <trkpt lat="43.64416" lon="3.71439">
        <ele>127.03</ele>
        <time>2014-10-26T16:12:23Z</time>
      </trkpt>
      <trkpt lat="43.64421" lon="3.71461">
        <ele>127.03</ele>
        <time>2014-10-26T16:12:24Z</time>
      </trkpt>
      <trkpt lat="43.64422" lon="3.71483">
        <ele>127.03</ele>
        <time>2014-10-26T16:12:25Z</time>
      </trkpt>
      <trkpt lat="43.6442" lon="3.71507">
        <ele>127.03</ele>
        <time>2014-10-26T16:12:26Z</time>
      </trkpt>
      <trkpt lat="43.64413" lon="3.7153">
        <ele>127.03</ele>
        <time>2014-10-26T16:12:27Z</time>
      </trkpt>
      <trkpt lat="43.64403" lon="3.71552">
        <ele>127.03</ele>
        <time>2014-10-26T16:12:28Z</time>
      </trkpt>
      <trkpt lat="43.64388" lon="3.71569">
        <ele>127.03</ele>
        <time>2014-10-26T16:12:29Z</time>
      </trkpt>
      <trkpt lat="43.64373" lon="3.71587">
        <ele>127.51</ele>
        <time>2014-10-26T16:12:30Z</time>
      </trkpt>
      <trkpt lat="43.64358" lon="3.71603">
        <ele>127.51</ele>
        <time>2014-10-26T16:12:31Z</time>
      </trkpt>
      <trkpt lat="43.6433" lon="3.71644">
        <ele>127.51</ele>
        <time>2014-10-26T16:12:33Z</time>
      </trkpt>
      <trkpt lat="43.64318" lon="3.71668">
        <ele>127.51</ele>
        <time>2014-10-26T16:12:34Z</time>
      </trkpt>
      <trkpt lat="43.64308" lon="3.71696">
        <ele>127.99</ele>
        <time>2014-10-26T16:12:35Z</time>
      </trkpt>
      <trkpt lat="43.64301" lon="3.71725">
        <ele>127.99</ele>
        <time>2014-10-26T16:12:36Z</time>
      </trkpt>
      <trkpt lat="43.64294" lon="3.71756">
        <ele>127.99</ele>
        <time>2014-10-26T16:12:37Z</time>
      </trkpt>
      <trkpt lat="43.64245" lon="3.71996">
        <ele>127.03</ele>
        <time>2014-10-26T16:12:44Z</time>
      </trkpt>
      <trkpt lat="43.64161" lon="3.72406">
        <ele>126.07</ele>
        <time>2014-10-26T16:12:57Z</time>
      </trkpt>
      <trkpt lat="43.64099" lon="3.72635">
        <ele>127.99</ele>
        <time>2014-10-26T16:13:05Z</time>
      </trkpt>
      <trkpt lat="43.64065" lon="3.72872">
        <ele>130.4</ele>
        <time>2014-10-26T16:13:13Z</time>
      </trkpt>
      <trkpt lat="43.64052" lon="3.72926">
        <ele>131.36</ele>
        <time>2014-10-26T16:13:15Z</time>
      </trkpt>
      <trkpt lat="43.64049" lon="3.72954">
        <ele>131.84</ele>
        <time>2014-10-26T16:13:16Z</time>
      </trkpt>
      <trkpt lat="43.64048" lon="3.72983">
        <ele>131.84</ele>
        <time>2014-10-26T16:13:17Z</time>
      </trkpt>
      <trkpt lat="43.64033" lon="3.73188">
        <ele>134.24</ele>
        <time>2014-10-26T16:13:24Z</time>
      </trkpt>
      <trkpt lat="43.64029" lon="3.73246">
        <ele>135.2</ele>
        <time>2014-10-26T16:13:26Z</time>
      </trkpt>
      <trkpt lat="43.64029" lon="3.73275">
        <ele>135.2</ele>
        <time>2014-10-26T16:13:27Z</time>
      </trkpt>
      <trkpt lat="43.64033" lon="3.73395">
        <ele>137.13</ele>
        <time>2014-10-26T16:13:31Z</time>
      </trkpt>
      <trkpt lat="43.6403" lon="3.73426">
        <ele>137.61</ele>
        <time>2014-10-26T16:13:32Z</time>
      </trkpt>
      <trkpt lat="43.64023" lon="3.73519">
        <ele>139.05</ele>
        <time>2014-10-26T16:13:35Z</time>
      </trkpt>
      <trkpt lat="43.64024" lon="3.73551">
        <ele>139.05</ele>
        <time>2014-10-26T16:13:36Z</time>
      </trkpt>
      <trkpt lat="43.64055" lon="3.73811">
        <ele>142.41</ele>
        <time>2014-10-26T16:13:45Z</time>
      </trkpt>
      <trkpt lat="43.64094" lon="3.73948">
        <ele>143.37</ele>
        <time>2014-10-26T16:13:52Z</time>
      </trkpt>
      <trkpt lat="43.64118" lon="3.74062">
        <ele>145.3</ele>
        <time>2014-10-26T16:14:00Z</time>
      </trkpt>
      <trkpt lat="43.64121" lon="3.74084">
        <ele>145.78</ele>
        <time>2014-10-26T16:14:02Z</time>
      </trkpt>
      <trkpt lat="43.64121" lon="3.74095">
        <ele>145.78</ele>
        <time>2014-10-26T16:14:03Z</time>
      </trkpt>
      <trkpt lat="43.64119" lon="3.74106">
        <ele>146.26</ele>
        <time>2014-10-26T16:14:04Z</time>
      </trkpt>
      <trkpt lat="43.64112" lon="3.74171">
        <ele>147.22</ele>
        <time>2014-10-26T16:14:10Z</time>
      </trkpt>
      <trkpt lat="43.64113" lon="3.74178">
        <ele>147.22</ele>
        <time>2014-10-26T16:14:11Z</time>
      </trkpt>
      <trkpt lat="43.64114" lon="3.74185">
        <ele>147.22</ele>
        <time>2014-10-26T16:14:12Z</time>
      </trkpt>
      <trkpt lat="43.64116" lon="3.7419">
        <ele>147.7</ele>
        <time>2014-10-26T16:14:13Z</time>
      </trkpt>
      <trkpt lat="43.64117" lon="3.74194">
        <ele>147.7</ele>
        <time>2014-10-26T16:14:14Z</time>
      </trkpt>
      <trkpt lat="43.64133" lon="3.74222">
        <ele>148.18</ele>
        <time>2014-10-26T16:14:20Z</time>
      </trkpt>
      <trkpt lat="43.64137" lon="3.74231">
        <ele>148.18</ele>
        <time>2014-10-26T16:14:21Z</time>
      </trkpt>
      <trkpt lat="43.6414" lon="3.74241">
        <ele>148.66</ele>
        <time>2014-10-26T16:14:22Z</time>
      </trkpt>
      <trkpt lat="43.64142" lon="3.74251">
        <ele>148.66</ele>
        <time>2014-10-26T16:14:23Z</time>
      </trkpt>
      <trkpt lat="43.64142" lon="3.74262">
        <ele>148.66</ele>
        <time>2014-10-26T16:14:24Z</time>
      </trkpt>
      <trkpt lat="43.6414" lon="3.74273">
        <ele>148.66</ele>
        <time>2014-10-26T16:14:25Z</time>
      </trkpt>
      <trkpt lat="43.64138" lon="3.74285">
        <ele>148.66</ele>
        <time>2014-10-26T16:14:26Z</time>
      </trkpt>
      <trkpt lat="43.64104" lon="3.74409">
        <ele>148.66</ele>
        <time>2014-10-26T16:14:35Z</time>
      </trkpt>
      <trkpt lat="43.64053" lon="3.74567">
        <ele>149.14</ele>
        <time>2014-10-26T16:14:44Z</time>
      </trkpt>
      <trkpt lat="43.63991" lon="3.74755">
        <ele>148.66</ele>
        <time>2014-10-26T16:14:51Z</time>
      </trkpt>
      <trkpt lat="43.63934" lon="3.74905">
        <ele>152.51</ele>
        <time>2014-10-26T16:14:59Z</time>
      </trkpt>
      <trkpt lat="43.63906" lon="3.74953">
        <ele>154.91</ele>
        <time>2014-10-26T16:15:05Z</time>
      </trkpt>
      <trkpt lat="43.63901" lon="3.7496">
        <ele>155.39</ele>
        <time>2014-10-26T16:15:13Z</time>
      </trkpt>
      <trkpt lat="43.639" lon="3.74963">
        <ele>155.39</ele>
        <time>2014-10-26T16:15:14Z</time>
      </trkpt>
      <trkpt lat="43.639" lon="3.74966">
        <ele>154.91</ele>
        <time>2014-10-26T16:15:15Z</time>
      </trkpt>
      <trkpt lat="43.63901" lon="3.74967">
        <ele>154.91</ele>
        <time>2014-10-26T16:15:16Z</time>
      </trkpt>
      <trkpt lat="43.63904" lon="3.74968">
        <ele>154.43</ele>
        <time>2014-10-26T16:15:17Z</time>
      </trkpt>
      <trkpt lat="43.63908" lon="3.74968">
        <ele>153.47</ele>
        <time>2014-10-26T16:15:18Z</time>
      </trkpt>
      <trkpt lat="43.63914" lon="3.74967">
        <ele>152.99</ele>
        <time>2014-10-26T16:15:19Z</time>
      </trkpt>
      <trkpt lat="43.63922" lon="3.74966">
        <ele>152.51</ele>
        <time>2014-10-26T16:15:20Z</time>
      </trkpt>
      <trkpt lat="43.63952" lon="3.74966">
        <ele>151.54</ele>
        <time>2014-10-26T16:15:23Z</time>
      </trkpt>
      <trkpt lat="43.63963" lon="3.7497">
        <ele>151.06</ele>
        <time>2014-10-26T16:15:24Z</time>
      </trkpt>
      <trkpt lat="43.63974" lon="3.74976">
        <ele>150.58</ele>
        <time>2014-10-26T16:15:25Z</time>
      </trkpt>
      <trkpt lat="43.64029" lon="3.75014">
        <ele>148.18</ele>
        <time>2014-10-26T16:15:30Z</time>
      </trkpt>
      <trkpt lat="43.64039" lon="3.75025">
        <ele>147.7</ele>
        <time>2014-10-26T16:15:31Z</time>
      </trkpt>
      <trkpt lat="43.64048" lon="3.75039">
        <ele>146.74</ele>
        <time>2014-10-26T16:15:32Z</time>
      </trkpt>
      <trkpt lat="43.64107" lon="3.75151">
        <ele>143.37</ele>
        <time>2014-10-26T16:15:37Z</time>
      </trkpt>
      <trkpt lat="43.642" lon="3.75351">
        <ele>137.13</ele>
        <time>2014-10-26T16:15:45Z</time>
      </trkpt>
      <trkpt lat="43.64251" lon="3.7552">
        <ele>131.84</ele>
        <time>2014-10-26T16:15:52Z</time>
      </trkpt>
      <trkpt lat="43.64309" lon="3.75701">
        <ele>131.36</ele>
        <time>2014-10-26T16:15:59Z</time>
      </trkpt>
      <trkpt lat="43.64361" lon="3.75942">
        <ele>132.32</ele>
        <time>2014-10-26T16:16:08Z</time>
      </trkpt>
      <trkpt lat="43.64406" lon="3.76152">
        <ele>134.24</ele>
        <time>2014-10-26T16:16:17Z</time>
      </trkpt>
      <trkpt lat="43.64454" lon="3.76332">
        <ele>131.36</ele>
        <time>2014-10-26T16:16:25Z</time>
      </trkpt>
      <trkpt lat="43.64487" lon="3.76541">
        <ele>129.43</ele>
        <time>2014-10-26T16:16:33Z</time>
      </trkpt>
      <trkpt lat="43.64505" lon="3.76631">
        <ele>129.92</ele>
        <time>2014-10-26T16:16:37Z</time>
      </trkpt>
      <trkpt lat="43.64513" lon="3.76651">
        <ele>130.4</ele>
        <time>2014-10-26T16:16:38Z</time>
      </trkpt>
      <trkpt lat="43.64524" lon="3.76668">
        <ele>130.4</ele>
        <time>2014-10-26T16:16:39Z</time>
      </trkpt>
      <trkpt lat="43.64535" lon="3.76684">
        <ele>130.88</ele>
        <time>2014-10-26T16:16:40Z</time>
      </trkpt>
      <trkpt lat="43.64546" lon="3.76699">
        <ele>130.88</ele>
        <time>2014-10-26T16:16:41Z</time>
      </trkpt>
      <trkpt lat="43.64565" lon="3.76727">
        <ele>130.88</ele>
        <time>2014-10-26T16:16:43Z</time>
      </trkpt>
      <trkpt lat="43.64572" lon="3.76743">
        <ele>130.88</ele>
        <time>2014-10-26T16:16:44Z</time>
      </trkpt>
      <trkpt lat="43.6458" lon="3.76757">
        <ele>130.4</ele>
        <time>2014-10-26T16:16:45Z</time>
      </trkpt>
      <trkpt lat="43.64589" lon="3.76771">
        <ele>129.43</ele>
        <time>2014-10-26T16:16:46Z</time>
      </trkpt>
      <trkpt lat="43.64599" lon="3.76783">
        <ele>129.43</ele>
        <time>2014-10-26T16:16:47Z</time>
      </trkpt>
      <trkpt lat="43.6461" lon="3.76792">
        <ele>128.95</ele>
        <time>2014-10-26T16:16:48Z</time>
      </trkpt>
      <trkpt lat="43.64622" lon="3.76799">
        <ele>128.47</ele>
        <time>2014-10-26T16:16:49Z</time>
      </trkpt>
      <trkpt lat="43.64632" lon="3.76803">
        <ele>128.47</ele>
        <time>2014-10-26T16:16:50Z</time>
      </trkpt>
      <trkpt lat="43.64642" lon="3.76808">
        <ele>128.47</ele>
        <time>2014-10-26T16:16:51Z</time>
      </trkpt>
      <trkpt lat="43.64651" lon="3.76814">
        <ele>128.47</ele>
        <time>2014-10-26T16:16:52Z</time>
      </trkpt>
      <trkpt lat="43.64656" lon="3.76823">
        <ele>127.99</ele>
        <time>2014-10-26T16:16:53Z</time>
      </trkpt>
      <trkpt lat="43.64659" lon="3.76836">
        <ele>127.99</ele>
        <time>2014-10-26T16:16:54Z</time>
      </trkpt>
      <trkpt lat="43.64659" lon="3.76855">
        <ele>127.99</ele>
        <time>2014-10-26T16:16:55Z</time>
      </trkpt>
      <trkpt lat="43.64658" lon="3.76876">
        <ele>128.47</ele>
        <time>2014-10-26T16:16:56Z</time>
      </trkpt>
      <trkpt lat="43.64658" lon="3.76898">
        <ele>128.95</ele>
        <time>2014-10-26T16:16:57Z</time>
      </trkpt>
      <trkpt lat="43.64642" lon="3.77106">
        <ele>128.47</ele>
        <time>2014-10-26T16:17:07Z</time>
      </trkpt>
      <trkpt lat="43.64618" lon="3.77193">
        <ele>126.07</ele>
        <time>2014-10-26T16:17:12Z</time>
      </trkpt>
      <trkpt lat="43.64617" lon="3.77211">
        <ele>125.59</ele>
        <time>2014-10-26T16:17:13Z</time>
      </trkpt>
      <trkpt lat="43.6462" lon="3.77228">
        <ele>124.63</ele>
        <time>2014-10-26T16:17:14Z</time>
      </trkpt>
      <trkpt lat="43.64625" lon="3.77246">
        <ele>124.15</ele>
        <time>2014-10-26T16:17:15Z</time>
      </trkpt>
      <trkpt lat="43.64631" lon="3.77264">
        <ele>123.67</ele>
        <time>2014-10-26T16:17:16Z</time>
      </trkpt>
      <trkpt lat="43.64635" lon="3.77283">
        <ele>123.19</ele>
        <time>2014-10-26T16:17:17Z</time>
      </trkpt>
      <trkpt lat="43.64638" lon="3.77303">
        <ele>122.22</ele>
        <time>2014-10-26T16:17:18Z</time>
      </trkpt>
      <trkpt lat="43.64645" lon="3.77435">
        <ele>119.34</ele>
        <time>2014-10-26T16:17:25Z</time>
      </trkpt>
      <trkpt lat="43.64643" lon="3.77452">
        <ele>118.86</ele>
        <time>2014-10-26T16:17:26Z</time>
      </trkpt>
      <trkpt lat="43.64639" lon="3.77467">
        <ele>118.38</ele>
        <time>2014-10-26T16:17:27Z</time>
      </trkpt>
      <trkpt lat="43.64632" lon="3.77481">
        <ele>117.9</ele>
        <time>2014-10-26T16:17:28Z</time>
      </trkpt>
      <trkpt lat="43.64626" lon="3.77495">
        <ele>117.42</ele>
        <time>2014-10-26T16:17:29Z</time>
      </trkpt>
      <trkpt lat="43.6462" lon="3.77509">
        <ele>116.94</ele>
        <time>2014-10-26T16:17:30Z</time>
      </trkpt>
      <trkpt lat="43.64617" lon="3.77524">
        <ele>116.46</ele>
        <time>2014-10-26T16:17:31Z</time>
      </trkpt>
      <trkpt lat="43.64615" lon="3.77539">
        <ele>115.98</ele>
        <time>2014-10-26T16:17:32Z</time>
      </trkpt>
      <trkpt lat="43.64615" lon="3.77581">
        <ele>114.53</ele>
        <time>2014-10-26T16:17:35Z</time>
      </trkpt>
      <trkpt lat="43.64619" lon="3.77591">
        <ele>114.05</ele>
        <time>2014-10-26T16:17:36Z</time>
      </trkpt>
      <trkpt lat="43.64626" lon="3.77598">
        <ele>113.57</ele>
        <time>2014-10-26T16:17:37Z</time>
      </trkpt>
      <trkpt lat="43.64638" lon="3.77602">
        <ele>112.61</ele>
        <time>2014-10-26T16:17:38Z</time>
      </trkpt>
      <trkpt lat="43.64651" lon="3.77604">
        <ele>112.13</ele>
        <time>2014-10-26T16:17:39Z</time>
      </trkpt>
      <trkpt lat="43.64665" lon="3.77609">
        <ele>111.17</ele>
        <time>2014-10-26T16:17:40Z</time>
      </trkpt>
      <trkpt lat="43.64677" lon="3.77615">
        <ele>110.69</ele>
        <time>2014-10-26T16:17:41Z</time>
      </trkpt>
      <trkpt lat="43.64689" lon="3.77624">
        <ele>110.21</ele>
        <time>2014-10-26T16:17:42Z</time>
      </trkpt>
      <trkpt lat="43.64699" lon="3.77634">
        <ele>109.73</ele>
        <time>2014-10-26T16:17:43Z</time>
      </trkpt>
      <trkpt lat="43.64707" lon="3.77647">
        <ele>109.25</ele>
        <time>2014-10-26T16:17:44Z</time>
      </trkpt>
      <trkpt lat="43.64714" lon="3.77661">
        <ele>108.29</ele>
        <time>2014-10-26T16:17:45Z</time>
      </trkpt>
      <trkpt lat="43.64721" lon="3.77675">
        <ele>107.81</ele>
        <time>2014-10-26T16:17:46Z</time>
      </trkpt>
      <trkpt lat="43.64736" lon="3.77702">
        <ele>106.36</ele>
        <time>2014-10-26T16:17:48Z</time>
      </trkpt>
      <trkpt lat="43.64746" lon="3.77714">
        <ele>105.88</ele>
        <time>2014-10-26T16:17:49Z</time>
      </trkpt>
      <trkpt lat="43.64757" lon="3.77723">
        <ele>104.92</ele>
        <time>2014-10-26T16:17:50Z</time>
      </trkpt>
      <trkpt lat="43.6477" lon="3.7773">
        <ele>104.44</ele>
        <time>2014-10-26T16:17:51Z</time>
      </trkpt>
      <trkpt lat="43.64785" lon="3.77734">
        <ele>103.48</ele>
        <time>2014-10-26T16:17:52Z</time>
      </trkpt>
      <trkpt lat="43.64799" lon="3.77738">
        <ele>103</ele>
        <time>2014-10-26T16:17:53Z</time>
      </trkpt>
      <trkpt lat="43.64829" lon="3.77744">
        <ele>102.04</ele>
        <time>2014-10-26T16:17:55Z</time>
      </trkpt>
      <trkpt lat="43.64843" lon="3.77743">
        <ele>101.56</ele>
        <time>2014-10-26T16:17:56Z</time>
      </trkpt>
      <trkpt lat="43.64857" lon="3.77739">
        <ele>100.6</ele>
        <time>2014-10-26T16:17:57Z</time>
      </trkpt>
      <trkpt lat="43.64871" lon="3.77737">
        <ele>99.63</ele>
        <time>2014-10-26T16:17:58Z</time>
      </trkpt>
      <trkpt lat="43.64885" lon="3.77737">
        <ele>99.15</ele>
        <time>2014-10-26T16:17:59Z</time>
      </trkpt>
      <trkpt lat="43.64899" lon="3.77738">
        <ele>98.67</ele>
        <time>2014-10-26T16:18:00Z</time>
      </trkpt>
      <trkpt lat="43.65039" lon="3.77757">
        <ele>92.9</ele>
        <time>2014-10-26T16:18:10Z</time>
      </trkpt>
      <trkpt lat="43.65049" lon="3.77767">
        <ele>92.42</ele>
        <time>2014-10-26T16:18:11Z</time>
      </trkpt>
      <trkpt lat="43.65059" lon="3.7778">
        <ele>91.94</ele>
        <time>2014-10-26T16:18:12Z</time>
      </trkpt>
      <trkpt lat="43.65068" lon="3.77797">
        <ele>90.98</ele>
        <time>2014-10-26T16:18:13Z</time>
      </trkpt>
      <trkpt lat="43.65078" lon="3.77816">
        <ele>90.98</ele>
        <time>2014-10-26T16:18:14Z</time>
      </trkpt>
      <trkpt lat="43.65085" lon="3.77834">
        <ele>90.5</ele>
        <time>2014-10-26T16:18:15Z</time>
      </trkpt>
      <trkpt lat="43.65092" lon="3.77851">
        <ele>90.02</ele>
        <time>2014-10-26T16:18:16Z</time>
      </trkpt>
      <trkpt lat="43.65098" lon="3.77869">
        <ele>89.06</ele>
        <time>2014-10-26T16:18:17Z</time>
      </trkpt>
      <trkpt lat="43.65102" lon="3.77887">
        <ele>88.58</ele>
        <time>2014-10-26T16:18:18Z</time>
      </trkpt>
      <trkpt lat="43.65105" lon="3.77905">
        <ele>88.1</ele>
        <time>2014-10-26T16:18:19Z</time>
      </trkpt>
      <trkpt lat="43.65126" lon="3.78032">
        <ele>84.25</ele>
        <time>2014-10-26T16:18:27Z</time>
      </trkpt>
      <trkpt lat="43.65131" lon="3.78039">
        <ele>83.77</ele>
        <time>2014-10-26T16:18:28Z</time>
      </trkpt>
      <trkpt lat="43.65139" lon="3.78042">
        <ele>82.33</ele>
        <time>2014-10-26T16:18:29Z</time>
      </trkpt>
      <trkpt lat="43.65147" lon="3.78042">
        <ele>82.33</ele>
        <time>2014-10-26T16:18:30Z</time>
      </trkpt>
      <trkpt lat="43.65157" lon="3.78042">
        <ele>81.37</ele>
        <time>2014-10-26T16:18:31Z</time>
      </trkpt>
      <trkpt lat="43.65166" lon="3.78048">
        <ele>79.93</ele>
        <time>2014-10-26T16:18:32Z</time>
      </trkpt>
      <trkpt lat="43.65174" lon="3.78058">
        <ele>79.45</ele>
        <time>2014-10-26T16:18:33Z</time>
      </trkpt>
      <trkpt lat="43.65179" lon="3.7807">
        <ele>78.97</ele>
        <time>2014-10-26T16:18:34Z</time>
      </trkpt>
      <trkpt lat="43.65181" lon="3.78085">
        <ele>78.48</ele>
        <time>2014-10-26T16:18:35Z</time>
      </trkpt>
      <trkpt lat="43.65184" lon="3.78098">
        <ele>78.48</ele>
        <time>2014-10-26T16:18:36Z</time>
      </trkpt>
      <trkpt lat="43.65185" lon="3.78112">
        <ele>78</ele>
        <time>2014-10-26T16:18:37Z</time>
      </trkpt>
      <trkpt lat="43.65186" lon="3.78125">
        <ele>77.52</ele>
        <time>2014-10-26T16:18:38Z</time>
      </trkpt>
      <trkpt lat="43.65184" lon="3.78139">
        <ele>77.04</ele>
        <time>2014-10-26T16:18:39Z</time>
      </trkpt>
      <trkpt lat="43.65182" lon="3.78152">
        <ele>76.08</ele>
        <time>2014-10-26T16:18:40Z</time>
      </trkpt>
      <trkpt lat="43.65178" lon="3.78166">
        <ele>76.08</ele>
        <time>2014-10-26T16:18:41Z</time>
      </trkpt>
      <trkpt lat="43.6517" lon="3.78284">
        <ele>73.68</ele>
        <time>2014-10-26T16:18:51Z</time>
      </trkpt>
      <trkpt lat="43.65187" lon="3.78384">
        <ele>70.79</ele>
        <time>2014-10-26T16:18:59Z</time>
      </trkpt>
      <trkpt lat="43.65199" lon="3.78474">
        <ele>68.87</ele>
        <time>2014-10-26T16:19:06Z</time>
      </trkpt>
      <trkpt lat="43.65199" lon="3.78485">
        <ele>68.87</ele>
        <time>2014-10-26T16:19:07Z</time>
      </trkpt>
      <trkpt lat="43.65193" lon="3.78531">
        <ele>67.43</ele>
        <time>2014-10-26T16:19:11Z</time>
      </trkpt>
      <trkpt lat="43.65194" lon="3.78545">
        <ele>66.95</ele>
        <time>2014-10-26T16:19:12Z</time>
      </trkpt>
      <trkpt lat="43.65195" lon="3.7856">
        <ele>66.47</ele>
        <time>2014-10-26T16:19:13Z</time>
      </trkpt>
      <trkpt lat="43.65197" lon="3.78574">
        <ele>65.99</ele>
        <time>2014-10-26T16:19:14Z</time>
      </trkpt>
      <trkpt lat="43.652" lon="3.78589">
        <ele>65.03</ele>
        <time>2014-10-26T16:19:15Z</time>
      </trkpt>
      <trkpt lat="43.65209" lon="3.78684">
        <ele>61.18</ele>
        <time>2014-10-26T16:19:23Z</time>
      </trkpt>
      <trkpt lat="43.65213" lon="3.78749">
        <ele>58.78</ele>
        <time>2014-10-26T16:19:28Z</time>
      </trkpt>
      <trkpt lat="43.65211" lon="3.7876">
        <ele>58.3</ele>
        <time>2014-10-26T16:19:29Z</time>
      </trkpt>
      <trkpt lat="43.65207" lon="3.7877">
        <ele>58.3</ele>
        <time>2014-10-26T16:19:30Z</time>
      </trkpt>
      <trkpt lat="43.652" lon="3.78779">
        <ele>58.3</ele>
        <time>2014-10-26T16:19:31Z</time>
      </trkpt>
      <trkpt lat="43.65192" lon="3.78786">
        <ele>57.82</ele>
        <time>2014-10-26T16:19:32Z</time>
      </trkpt>
      <trkpt lat="43.65183" lon="3.78792">
        <ele>57.82</ele>
        <time>2014-10-26T16:19:33Z</time>
      </trkpt>
      <trkpt lat="43.65112" lon="3.78837">
        <ele>57.82</ele>
        <time>2014-10-26T16:19:43Z</time>
      </trkpt>
      <trkpt lat="43.65079" lon="3.78868">
        <ele>58.78</ele>
        <time>2014-10-26T16:19:56Z</time>
      </trkpt>
      <trkpt lat="43.65075" lon="3.78873">
        <ele>57.82</ele>
        <time>2014-10-26T16:20:07Z</time>
      </trkpt>
      <trkpt lat="43.65073" lon="3.78875">
        <ele>60.22</ele>
        <time>2014-10-26T16:20:38Z</time>
      </trkpt>
      <trkpt lat="43.65071" lon="3.78893">
        <ele>61.18</ele>
        <time>2014-10-26T16:20:43Z</time>
      </trkpt>
      <trkpt lat="43.65072" lon="3.78902">
        <ele>60.7</ele>
        <time>2014-10-26T16:20:44Z</time>
      </trkpt>
      <trkpt lat="43.65075" lon="3.7891">
        <ele>60.7</ele>
        <time>2014-10-26T16:20:45Z</time>
      </trkpt>
      <trkpt lat="43.65099" lon="3.79">
        <ele>60.22</ele>
        <time>2014-10-26T16:20:54Z</time>
      </trkpt>
      <trkpt lat="43.651" lon="3.7901">
        <ele>60.22</ele>
        <time>2014-10-26T16:20:55Z</time>
      </trkpt>
      <trkpt lat="43.65099" lon="3.7902">
        <ele>60.22</ele>
        <time>2014-10-26T16:20:56Z</time>
      </trkpt>
      <trkpt lat="43.65096" lon="3.79031">
        <ele>59.74</ele>
        <time>2014-10-26T16:20:57Z</time>
      </trkpt>
      <trkpt lat="43.65092" lon="3.79043">
        <ele>59.74</ele>
        <time>2014-10-26T16:20:58Z</time>
      </trkpt>
      <trkpt lat="43.65088" lon="3.79052">
        <ele>59.74</ele>
        <time>2014-10-26T16:20:59Z</time>
      </trkpt>
      <trkpt lat="43.65083" lon="3.79059">
        <ele>59.74</ele>
        <time>2014-10-26T16:21:00Z</time>
      </trkpt>
      <trkpt lat="43.65078" lon="3.79065">
        <ele>59.74</ele>
        <time>2014-10-26T16:21:01Z</time>
      </trkpt>
      <trkpt lat="43.65075" lon="3.7907">
        <ele>60.22</ele>
        <time>2014-10-26T16:21:02Z</time>
      </trkpt>
      <trkpt lat="43.65072" lon="3.79076">
        <ele>60.7</ele>
        <time>2014-10-26T16:21:03Z</time>
      </trkpt>
      <trkpt lat="43.65071" lon="3.79082">
        <ele>61.18</ele>
        <time>2014-10-26T16:21:04Z</time>
      </trkpt>
      <trkpt lat="43.6507" lon="3.79087">
        <ele>61.66</ele>
        <time>2014-10-26T16:21:05Z</time>
      </trkpt>
      <trkpt lat="43.65068" lon="3.79092">
        <ele>61.66</ele>
        <time>2014-10-26T16:21:06Z</time>
      </trkpt>
      <trkpt lat="43.65064" lon="3.79101">
        <ele>61.66</ele>
        <time>2014-10-26T16:21:07Z</time>
      </trkpt>
      <trkpt lat="43.65058" lon="3.79111">
        <ele>61.66</ele>
        <time>2014-10-26T16:21:08Z</time>
      </trkpt>
      <trkpt lat="43.65053" lon="3.79122">
        <ele>61.66</ele>
        <time>2014-10-26T16:21:09Z</time>
      </trkpt>
      <trkpt lat="43.65048" lon="3.79133">
        <ele>61.66</ele>
        <time>2014-10-26T16:21:10Z</time>
      </trkpt>
      <trkpt lat="43.65044" lon="3.79143">
        <ele>61.66</ele>
        <time>2014-10-26T16:21:11Z</time>
      </trkpt>
      <trkpt lat="43.65036" lon="3.79161">
        <ele>61.66</ele>
        <time>2014-10-26T16:21:13Z</time>
      </trkpt>
      <trkpt lat="43.65029" lon="3.79169">
        <ele>61.66</ele>
        <time>2014-10-26T16:21:14Z</time>
      </trkpt>
      <trkpt lat="43.65022" lon="3.79177">
        <ele>61.66</ele>
        <time>2014-10-26T16:21:15Z</time>
      </trkpt>
      <trkpt lat="43.65014" lon="3.79186">
        <ele>61.66</ele>
        <time>2014-10-26T16:21:16Z</time>
      </trkpt>
      <trkpt lat="43.65007" lon="3.79196">
        <ele>62.14</ele>
        <time>2014-10-26T16:21:17Z</time>
      </trkpt>
      <trkpt lat="43.65001" lon="3.79207">
        <ele>62.14</ele>
        <time>2014-10-26T16:21:18Z</time>
      </trkpt>
      <trkpt lat="43.64997" lon="3.79219">
        <ele>62.14</ele>
        <time>2014-10-26T16:21:19Z</time>
      </trkpt>
      <trkpt lat="43.64993" lon="3.79232">
        <ele>61.66</ele>
        <time>2014-10-26T16:21:20Z</time>
      </trkpt>
      <trkpt lat="43.6499" lon="3.79245">
        <ele>61.66</ele>
        <time>2014-10-26T16:21:21Z</time>
      </trkpt>
      <trkpt lat="43.64971" lon="3.79341">
        <ele>61.18</ele>
        <time>2014-10-26T16:21:29Z</time>
      </trkpt>
      <trkpt lat="43.64933" lon="3.79466">
        <ele>60.22</ele>
        <time>2014-10-26T16:21:39Z</time>
      </trkpt>
      <trkpt lat="43.64891" lon="3.79552">
        <ele>60.22</ele>
        <time>2014-10-26T16:21:47Z</time>
      </trkpt>
      <trkpt lat="43.64829" lon="3.79675">
        <ele>60.7</ele>
        <time>2014-10-26T16:22:00Z</time>
      </trkpt>
      <trkpt lat="43.64811" lon="3.79714">
        <ele>61.18</ele>
        <time>2014-10-26T16:22:06Z</time>
      </trkpt>
      <trkpt lat="43.64795" lon="3.79738">
        <ele>61.18</ele>
        <time>2014-10-26T16:22:14Z</time>
      </trkpt>
      <trkpt lat="43.64776" lon="3.79772">
        <ele>60.7</ele>
        <time>2014-10-26T16:22:23Z</time>
      </trkpt>
      <trkpt lat="43.64778" lon="3.79771">
        <ele>59.74</ele>
        <time>2014-10-26T16:22:56Z</time>
      </trkpt>
      <trkpt lat="43.64767" lon="3.798">
        <ele>60.22</ele>
        <time>2014-10-26T16:23:05Z</time>
      </trkpt>
      <trkpt lat="43.64766" lon="3.7981">
        <ele>60.7</ele>
        <time>2014-10-26T16:23:06Z</time>
      </trkpt>
      <trkpt lat="43.64765" lon="3.79821">
        <ele>61.18</ele>
        <time>2014-10-26T16:23:07Z</time>
      </trkpt>
      <trkpt lat="43.64755" lon="3.79972">
        <ele>62.14</ele>
        <time>2014-10-26T16:23:18Z</time>
      </trkpt>
      <trkpt lat="43.64731" lon="3.80072">
        <ele>62.62</ele>
        <time>2014-10-26T16:23:26Z</time>
      </trkpt>
      <trkpt lat="43.64726" lon="3.80083">
        <ele>61.66</ele>
        <time>2014-10-26T16:23:33Z</time>
      </trkpt>
      <trkpt lat="43.64724" lon="3.80086">
        <ele>60.22</ele>
        <time>2014-10-26T16:24:13Z</time>
      </trkpt>
      <trkpt lat="43.64698" lon="3.80152">
        <ele>57.82</ele>
        <time>2014-10-26T16:24:18Z</time>
      </trkpt>
      <trkpt lat="43.64676" lon="3.80279">
        <ele>55.89</ele>
        <time>2014-10-26T16:24:26Z</time>
      </trkpt>
      <trkpt lat="43.64671" lon="3.80366">
        <ele>55.89</ele>
        <time>2014-10-26T16:24:33Z</time>
      </trkpt>
      <trkpt lat="43.64677" lon="3.80527">
        <ele>55.89</ele>
        <time>2014-10-26T16:24:44Z</time>
      </trkpt>
      <trkpt lat="43.64685" lon="3.80644">
        <ele>56.86</ele>
        <time>2014-10-26T16:24:54Z</time>
      </trkpt>
      <trkpt lat="43.64666" lon="3.80769">
        <ele>57.34</ele>
        <time>2014-10-26T16:25:05Z</time>
      </trkpt>
      <trkpt lat="43.64638" lon="3.80863">
        <ele>57.34</ele>
        <time>2014-10-26T16:25:14Z</time>
      </trkpt>
      <trkpt lat="43.64612" lon="3.80973">
        <ele>58.78</ele>
        <time>2014-10-26T16:25:23Z</time>
      </trkpt>
      <trkpt lat="43.64609" lon="3.80985">
        <ele>58.78</ele>
        <time>2014-10-26T16:25:24Z</time>
      </trkpt>
      <trkpt lat="43.64594" lon="3.81031">
        <ele>58.78</ele>
        <time>2014-10-26T16:25:29Z</time>
      </trkpt>
      <trkpt lat="43.64593" lon="3.81041">
        <ele>59.26</ele>
        <time>2014-10-26T16:25:30Z</time>
      </trkpt>
      <trkpt lat="43.64594" lon="3.81053">
        <ele>59.26</ele>
        <time>2014-10-26T16:25:31Z</time>
      </trkpt>
      <trkpt lat="43.64597" lon="3.8108">
        <ele>59.26</ele>
        <time>2014-10-26T16:25:33Z</time>
      </trkpt>
      <trkpt lat="43.64596" lon="3.81097">
        <ele>59.26</ele>
        <time>2014-10-26T16:25:34Z</time>
      </trkpt>
      <trkpt lat="43.64592" lon="3.81252">
        <ele>62.14</ele>
        <time>2014-10-26T16:25:41Z</time>
      </trkpt>
      <trkpt lat="43.64596" lon="3.8146">
        <ele>67.91</ele>
        <time>2014-10-26T16:25:51Z</time>
      </trkpt>
      <trkpt lat="43.64595" lon="3.81475">
        <ele>68.39</ele>
        <time>2014-10-26T16:25:52Z</time>
      </trkpt>
      <trkpt lat="43.64593" lon="3.81501">
        <ele>68.87</ele>
        <time>2014-10-26T16:25:54Z</time>
      </trkpt>
      <trkpt lat="43.64594" lon="3.81515">
        <ele>69.35</ele>
        <time>2014-10-26T16:25:55Z</time>
      </trkpt>
      <trkpt lat="43.646" lon="3.81551">
        <ele>70.31</ele>
        <time>2014-10-26T16:25:57Z</time>
      </trkpt>
      <trkpt lat="43.64608" lon="3.81756">
        <ele>77.04</ele>
        <time>2014-10-26T16:26:05Z</time>
      </trkpt>
      <trkpt lat="43.64614" lon="3.82006">
        <ele>84.25</ele>
        <time>2014-10-26T16:26:16Z</time>
      </trkpt>
      <trkpt lat="43.6458" lon="3.82159">
        <ele>88.58</ele>
        <time>2014-10-26T16:26:23Z</time>
      </trkpt>
      <trkpt lat="43.64512" lon="3.82254">
        <ele>93.39</ele>
        <time>2014-10-26T16:26:30Z</time>
      </trkpt>
      <trkpt lat="43.64463" lon="3.82287">
        <ele>95.31</ele>
        <time>2014-10-26T16:26:36Z</time>
      </trkpt>
      <trkpt lat="43.64455" lon="3.82287">
        <ele>95.31</ele>
        <time>2014-10-26T16:26:37Z</time>
      </trkpt>
      <trkpt lat="43.64448" lon="3.82285">
        <ele>95.31</ele>
        <time>2014-10-26T16:26:38Z</time>
      </trkpt>
      <trkpt lat="43.64441" lon="3.82278">
        <ele>94.83</ele>
        <time>2014-10-26T16:26:39Z</time>
      </trkpt>
      <trkpt lat="43.64432" lon="3.82271">
        <ele>94.35</ele>
        <time>2014-10-26T16:26:40Z</time>
      </trkpt>
      <trkpt lat="43.64424" lon="3.82265">
        <ele>94.35</ele>
        <time>2014-10-26T16:26:41Z</time>
      </trkpt>
      <trkpt lat="43.64415" lon="3.82263">
        <ele>93.87</ele>
        <time>2014-10-26T16:26:42Z</time>
      </trkpt>
      <trkpt lat="43.64406" lon="3.82263">
        <ele>93.87</ele>
        <time>2014-10-26T16:26:43Z</time>
      </trkpt>
      <trkpt lat="43.64397" lon="3.82266">
        <ele>93.87</ele>
        <time>2014-10-26T16:26:44Z</time>
      </trkpt>
      <trkpt lat="43.64389" lon="3.82271">
        <ele>93.87</ele>
        <time>2014-10-26T16:26:45Z</time>
      </trkpt>
      <trkpt lat="43.64381" lon="3.82279">
        <ele>93.87</ele>
        <time>2014-10-26T16:26:46Z</time>
      </trkpt>
      <trkpt lat="43.64374" lon="3.8229">
        <ele>93.39</ele>
        <time>2014-10-26T16:26:47Z</time>
      </trkpt>
      <trkpt lat="43.64369" lon="3.82303">
        <ele>93.39</ele>
        <time>2014-10-26T16:26:48Z</time>
      </trkpt>
      <trkpt lat="43.64366" lon="3.82318">
        <ele>92.9</ele>
        <time>2014-10-26T16:26:49Z</time>
      </trkpt>
      <trkpt lat="43.64363" lon="3.82333">
        <ele>92.42</ele>
        <time>2014-10-26T16:26:50Z</time>
      </trkpt>
      <trkpt lat="43.64358" lon="3.82347">
        <ele>92.42</ele>
        <time>2014-10-26T16:26:51Z</time>
      </trkpt>
      <trkpt lat="43.64349" lon="3.8236">
        <ele>91.94</ele>
        <time>2014-10-26T16:26:52Z</time>
      </trkpt>
      <trkpt lat="43.64336" lon="3.82373">
        <ele>91.94</ele>
        <time>2014-10-26T16:26:53Z</time>
      </trkpt>
      <trkpt lat="43.64323" lon="3.82388">
        <ele>91.94</ele>
        <time>2014-10-26T16:26:54Z</time>
      </trkpt>
      <trkpt lat="43.6431" lon="3.82404">
        <ele>91.46</ele>
        <time>2014-10-26T16:26:55Z</time>
      </trkpt>
      <trkpt lat="43.643" lon="3.82421">
        <ele>91.46</ele>
        <time>2014-10-26T16:26:56Z</time>
      </trkpt>
      <trkpt lat="43.6429" lon="3.82439">
        <ele>90.98</ele>
        <time>2014-10-26T16:26:57Z</time>
      </trkpt>
      <trkpt lat="43.64281" lon="3.82458">
        <ele>90.5</ele>
        <time>2014-10-26T16:26:58Z</time>
      </trkpt>
      <trkpt lat="43.64194" lon="3.82633">
        <ele>85.69</ele>
        <time>2014-10-26T16:27:08Z</time>
      </trkpt>
      <trkpt lat="43.64117" lon="3.82721">
        <ele>82.81</ele>
        <time>2014-10-26T16:27:16Z</time>
      </trkpt>
      <trkpt lat="43.64068" lon="3.82766">
        <ele>80.89</ele>
        <time>2014-10-26T16:27:25Z</time>
      </trkpt>
      <trkpt lat="43.64046" lon="3.82784">
        <ele>80.41</ele>
        <time>2014-10-26T16:27:37Z</time>
      </trkpt>
      <trkpt lat="43.64022" lon="3.82798">
        <ele>79.93</ele>
        <time>2014-10-26T16:27:41Z</time>
      </trkpt>
      <trkpt lat="43.64014" lon="3.828">
        <ele>79.45</ele>
        <time>2014-10-26T16:27:42Z</time>
      </trkpt>
      <trkpt lat="43.64006" lon="3.82802">
        <ele>79.45</ele>
        <time>2014-10-26T16:27:43Z</time>
      </trkpt>
      <trkpt lat="43.6398" lon="3.82806">
        <ele>78</ele>
        <time>2014-10-26T16:27:46Z</time>
      </trkpt>
      <trkpt lat="43.63972" lon="3.8281">
        <ele>78</ele>
        <time>2014-10-26T16:27:47Z</time>
      </trkpt>
      <trkpt lat="43.63966" lon="3.82814">
        <ele>77.52</ele>
        <time>2014-10-26T16:27:48Z</time>
      </trkpt>
      <trkpt lat="43.63962" lon="3.82817">
        <ele>77.52</ele>
        <time>2014-10-26T16:27:49Z</time>
      </trkpt>
      <trkpt lat="43.6396" lon="3.8282">
        <ele>77.52</ele>
        <time>2014-10-26T16:27:50Z</time>
      </trkpt>
      <trkpt lat="43.63958" lon="3.82822">
        <ele>77.04</ele>
        <time>2014-10-26T16:28:02Z</time>
      </trkpt>
      <trkpt lat="43.63946" lon="3.82838">
        <ele>76.56</ele>
        <time>2014-10-26T16:28:55Z</time>
      </trkpt>
      <trkpt lat="43.63908" lon="3.82912">
        <ele>73.68</ele>
        <time>2014-10-26T16:29:04Z</time>
      </trkpt>
      <trkpt lat="43.63825" lon="3.83034">
        <ele>71.27</ele>
        <time>2014-10-26T16:29:15Z</time>
      </trkpt>
      <trkpt lat="43.63745" lon="3.83102">
        <ele>69.83</ele>
        <time>2014-10-26T16:29:25Z</time>
      </trkpt>
      <trkpt lat="43.63739" lon="3.83102">
        <ele>69.83</ele>
        <time>2014-10-26T16:29:26Z</time>
      </trkpt>
      <trkpt lat="43.63733" lon="3.831">
        <ele>69.83</ele>
        <time>2014-10-26T16:29:27Z</time>
      </trkpt>
      <trkpt lat="43.63725" lon="3.83093">
        <ele>69.35</ele>
        <time>2014-10-26T16:29:28Z</time>
      </trkpt>
      <trkpt lat="43.63717" lon="3.83086">
        <ele>69.35</ele>
        <time>2014-10-26T16:29:29Z</time>
      </trkpt>
      <trkpt lat="43.63707" lon="3.8308">
        <ele>68.87</ele>
        <time>2014-10-26T16:29:30Z</time>
      </trkpt>
      <trkpt lat="43.63696" lon="3.83077">
        <ele>68.39</ele>
        <time>2014-10-26T16:29:31Z</time>
      </trkpt>
      <trkpt lat="43.63686" lon="3.83077">
        <ele>67.91</ele>
        <time>2014-10-26T16:29:32Z</time>
      </trkpt>
      <trkpt lat="43.63676" lon="3.83081">
        <ele>67.91</ele>
        <time>2014-10-26T16:29:33Z</time>
      </trkpt>
      <trkpt lat="43.63667" lon="3.83088">
        <ele>67.43</ele>
        <time>2014-10-26T16:29:34Z</time>
      </trkpt>
      <trkpt lat="43.63659" lon="3.83098">
        <ele>67.43</ele>
        <time>2014-10-26T16:29:35Z</time>
      </trkpt>
      <trkpt lat="43.63654" lon="3.8311">
        <ele>67.43</ele>
        <time>2014-10-26T16:29:36Z</time>
      </trkpt>
      <trkpt lat="43.6365" lon="3.83123">
        <ele>67.91</ele>
        <time>2014-10-26T16:29:37Z</time>
      </trkpt>
      <trkpt lat="43.63648" lon="3.83136">
        <ele>67.91</ele>
        <time>2014-10-26T16:29:38Z</time>
      </trkpt>
      <trkpt lat="43.63647" lon="3.83149">
        <ele>68.39</ele>
        <time>2014-10-26T16:29:39Z</time>
      </trkpt>
      <trkpt lat="43.63643" lon="3.83161">
        <ele>68.39</ele>
        <time>2014-10-26T16:29:40Z</time>
      </trkpt>
      <trkpt lat="43.63638" lon="3.83172">
        <ele>68.87</ele>
        <time>2014-10-26T16:29:41Z</time>
      </trkpt>
      <trkpt lat="43.63631" lon="3.83182">
        <ele>68.87</ele>
        <time>2014-10-26T16:29:42Z</time>
      </trkpt>
      <trkpt lat="43.63621" lon="3.83191">
        <ele>68.87</ele>
        <time>2014-10-26T16:29:43Z</time>
      </trkpt>
      <trkpt lat="43.63611" lon="3.832">
        <ele>68.39</ele>
        <time>2014-10-26T16:29:44Z</time>
      </trkpt>
      <trkpt lat="43.63493" lon="3.8332">
        <ele>66.47</ele>
        <time>2014-10-26T16:29:56Z</time>
      </trkpt>
      <trkpt lat="43.63405" lon="3.83479">
        <ele>62.14</ele>
        <time>2014-10-26T16:30:08Z</time>
      </trkpt>
      <trkpt lat="43.63314" lon="3.83661">
        <ele>56.37</ele>
        <time>2014-10-26T16:30:19Z</time>
      </trkpt>
      <trkpt lat="43.63218" lon="3.83779">
        <ele>54.93</ele>
        <time>2014-10-26T16:30:27Z</time>
      </trkpt>
      <trkpt lat="43.63156" lon="3.83881">
        <ele>54.45</ele>
        <time>2014-10-26T16:30:35Z</time>
      </trkpt>
      <trkpt lat="43.63129" lon="3.84004">
        <ele>51.57</ele>
        <time>2014-10-26T16:30:44Z</time>
      </trkpt>
      <trkpt lat="43.63112" lon="3.84112">
        <ele>50.61</ele>
        <time>2014-10-26T16:30:57Z</time>
      </trkpt>
      <trkpt lat="43.63105" lon="3.84152">
        <ele>51.09</ele>
        <time>2014-10-26T16:31:11Z</time>
      </trkpt>
      <trkpt lat="43.63099" lon="3.84164">
        <ele>51.09</ele>
        <time>2014-10-26T16:31:15Z</time>
      </trkpt>
      <trkpt lat="43.63079" lon="3.84181">
        <ele>51.09</ele>
        <time>2014-10-26T16:31:22Z</time>
      </trkpt>
      <trkpt lat="43.63073" lon="3.84184">
        <ele>51.09</ele>
        <time>2014-10-26T16:31:23Z</time>
      </trkpt>
      <trkpt lat="43.63068" lon="3.84186">
        <ele>51.09</ele>
        <time>2014-10-26T16:31:24Z</time>
      </trkpt>
      <trkpt lat="43.63062" lon="3.84187">
        <ele>51.09</ele>
        <time>2014-10-26T16:31:25Z</time>
      </trkpt>
      <trkpt lat="43.63055" lon="3.84187">
        <ele>51.09</ele>
        <time>2014-10-26T16:31:26Z</time>
      </trkpt>
      <trkpt lat="43.63049" lon="3.84186">
        <ele>51.09</ele>
        <time>2014-10-26T16:31:27Z</time>
      </trkpt>
      <trkpt lat="43.63041" lon="3.84184">
        <ele>51.09</ele>
        <time>2014-10-26T16:31:28Z</time>
      </trkpt>
      <trkpt lat="43.6296" lon="3.84169">
        <ele>51.09</ele>
        <time>2014-10-26T16:31:35Z</time>
      </trkpt>
      <trkpt lat="43.62851" lon="3.84098">
        <ele>52.53</ele>
        <time>2014-10-26T16:31:43Z</time>
      </trkpt>
      <trkpt lat="43.62748" lon="3.83985">
        <ele>55.89</ele>
        <time>2014-10-26T16:31:49Z</time>
      </trkpt>
      <trkpt lat="43.62654" lon="3.83839">
        <ele>60.7</ele>
        <time>2014-10-26T16:31:56Z</time>
      </trkpt>
      <trkpt lat="43.6258" lon="3.83716">
        <ele>65.03</ele>
        <time>2014-10-26T16:32:04Z</time>
      </trkpt>
      <trkpt lat="43.62557" lon="3.83679">
        <ele>66.95</ele>
        <time>2014-10-26T16:32:10Z</time>
      </trkpt>
      <trkpt lat="43.62555" lon="3.83672">
        <ele>66.95</ele>
        <time>2014-10-26T16:32:11Z</time>
      </trkpt>
      <trkpt lat="43.62554" lon="3.83663">
        <ele>67.43</ele>
        <time>2014-10-26T16:32:12Z</time>
      </trkpt>
      <trkpt lat="43.62554" lon="3.83653">
        <ele>67.43</ele>
        <time>2014-10-26T16:32:13Z</time>
      </trkpt>
      <trkpt lat="43.62556" lon="3.83631">
        <ele>67.91</ele>
        <time>2014-10-26T16:32:15Z</time>
      </trkpt>
      <trkpt lat="43.62555" lon="3.83621">
        <ele>67.91</ele>
        <time>2014-10-26T16:32:16Z</time>
      </trkpt>
      <trkpt lat="43.62553" lon="3.8361">
        <ele>67.91</ele>
        <time>2014-10-26T16:32:17Z</time>
      </trkpt>
      <trkpt lat="43.62549" lon="3.836">
        <ele>67.91</ele>
        <time>2014-10-26T16:32:18Z</time>
      </trkpt>
      <trkpt lat="43.62543" lon="3.83591">
        <ele>67.91</ele>
        <time>2014-10-26T16:32:19Z</time>
      </trkpt>
      <trkpt lat="43.62536" lon="3.83584">
        <ele>67.91</ele>
        <time>2014-10-26T16:32:20Z</time>
      </trkpt>
      <trkpt lat="43.62527" lon="3.8358">
        <ele>68.39</ele>
        <time>2014-10-26T16:32:21Z</time>
      </trkpt>
      <trkpt lat="43.62517" lon="3.83578">
        <ele>67.91</ele>
        <time>2014-10-26T16:32:22Z</time>
      </trkpt>
      <trkpt lat="43.62507" lon="3.8358">
        <ele>67.91</ele>
        <time>2014-10-26T16:32:23Z</time>
      </trkpt>
      <trkpt lat="43.62497" lon="3.83585">
        <ele>67.91</ele>
        <time>2014-10-26T16:32:24Z</time>
      </trkpt>
      <trkpt lat="43.62488" lon="3.83593">
        <ele>67.91</ele>
        <time>2014-10-26T16:32:25Z</time>
      </trkpt>
      <trkpt lat="43.62479" lon="3.83604">
        <ele>67.91</ele>
        <time>2014-10-26T16:32:26Z</time>
      </trkpt>
      <trkpt lat="43.62473" lon="3.83617">
        <ele>67.91</ele>
        <time>2014-10-26T16:32:27Z</time>
      </trkpt>
      <trkpt lat="43.62468" lon="3.83629">
        <ele>67.91</ele>
        <time>2014-10-26T16:32:28Z</time>
      </trkpt>
      <trkpt lat="43.62461" lon="3.83638">
        <ele>67.91</ele>
        <time>2014-10-26T16:32:29Z</time>
      </trkpt>
      <trkpt lat="43.62454" lon="3.83645">
        <ele>68.39</ele>
        <time>2014-10-26T16:32:30Z</time>
      </trkpt>
      <trkpt lat="43.62446" lon="3.83648">
        <ele>68.39</ele>
        <time>2014-10-26T16:32:31Z</time>
      </trkpt>
      <trkpt lat="43.62441" lon="3.83649">
        <ele>68.39</ele>
        <time>2014-10-26T16:32:32Z</time>
      </trkpt>
      <trkpt lat="43.62436" lon="3.83649">
        <ele>68.39</ele>
        <time>2014-10-26T16:32:33Z</time>
      </trkpt>
      <trkpt lat="43.6243" lon="3.83648">
        <ele>68.87</ele>
        <time>2014-10-26T16:32:34Z</time>
      </trkpt>
      <trkpt lat="43.62423" lon="3.83649">
        <ele>68.87</ele>
        <time>2014-10-26T16:32:35Z</time>
      </trkpt>
      <trkpt lat="43.62418" lon="3.83652">
        <ele>69.35</ele>
        <time>2014-10-26T16:32:36Z</time>
      </trkpt>
      <trkpt lat="43.62413" lon="3.83657">
        <ele>69.35</ele>
        <time>2014-10-26T16:32:37Z</time>
      </trkpt>
      <trkpt lat="43.6241" lon="3.83663">
        <ele>69.35</ele>
        <time>2014-10-26T16:32:38Z</time>
      </trkpt>
      <trkpt lat="43.62409" lon="3.83669">
        <ele>69.35</ele>
        <time>2014-10-26T16:32:39Z</time>
      </trkpt>
      <trkpt lat="43.62408" lon="3.83675">
        <ele>69.35</ele>
        <time>2014-10-26T16:32:40Z</time>
      </trkpt>
      <trkpt lat="43.62409" lon="3.83679">
        <ele>68.87</ele>
        <time>2014-10-26T16:32:41Z</time>
      </trkpt>
      <trkpt lat="43.6241" lon="3.83683">
        <ele>68.87</ele>
        <time>2014-10-26T16:32:42Z</time>
      </trkpt>
      <trkpt lat="43.62413" lon="3.83687">
        <ele>68.39</ele>
        <time>2014-10-26T16:32:43Z</time>
      </trkpt>
      <trkpt lat="43.62416" lon="3.83691">
        <ele>68.39</ele>
        <time>2014-10-26T16:32:44Z</time>
      </trkpt>
      <trkpt lat="43.62419" lon="3.83695">
        <ele>68.39</ele>
        <time>2014-10-26T16:32:45Z</time>
      </trkpt>
      <trkpt lat="43.62424" lon="3.83704">
        <ele>67.91</ele>
        <time>2014-10-26T16:32:47Z</time>
      </trkpt>
      <trkpt lat="43.62426" lon="3.8371">
        <ele>67.91</ele>
        <time>2014-10-26T16:32:48Z</time>
      </trkpt>
      <trkpt lat="43.62428" lon="3.83718">
        <ele>67.91</ele>
        <time>2014-10-26T16:32:49Z</time>
      </trkpt>
      <trkpt lat="43.62437" lon="3.8376">
        <ele>67.43</ele>
        <time>2014-10-26T16:32:54Z</time>
      </trkpt>
      <trkpt lat="43.62436" lon="3.83768">
        <ele>67.43</ele>
        <time>2014-10-26T16:32:55Z</time>
      </trkpt>
      <trkpt lat="43.62435" lon="3.83774">
        <ele>67.43</ele>
        <time>2014-10-26T16:32:56Z</time>
      </trkpt>
      <trkpt lat="43.62433" lon="3.8378">
        <ele>67.91</ele>
        <time>2014-10-26T16:32:57Z</time>
      </trkpt>
      <trkpt lat="43.62423" lon="3.83793">
        <ele>68.87</ele>
        <time>2014-10-26T16:33:01Z</time>
      </trkpt>
    </trkseg>
  </trk>
</gpx>